[[{"header":{"parameterUnit":"m.s-1","parameterCategory":1,"la1":31.0,"la2":29.5877,"lo1":-88.7671,"lo2":-86.6584,"dy":0.0162,"dx":0.0185,"nx":115,"ny":88,"refTime":"2023-03-03T06:00:00:Z","depth":0,"parameterNumber":2,"parameterNumberName":"U-component_of_WINDS"},"data":[0.0,0.0,0.0,0.0,0.0,0.0,0.0,0.0,0.0,0.0,0.0,0.0,0.0,0.0,0.0,0.0,0.0,0.0,0.0,0.0,0.0,0.0,0.0,0.0,0.0,0.0,0.0,0.0,0.0,0.0,0.0,0.0,0.0,0.0,0.0,0.0,0.0,0.0,0.0,0.0,0.0,0.0,0.0,0.0,0.0,0.0,0.0,0.0,0.0,0.0,0.0,0.0,0.0,0.0,0.0,0.0,0.0,0.0,0.0,0.0,0.0,0.0,0.0,0.0,0.0,0.0,0.0,0.0,0.0,0.0,0.0,0.0,0.0,0.0,0.0,0.0,0.0,0.0,0.0,0.0,0.0,0.0,0.0,0.0,0.0,0.0,0.0,0.0,0.0,0.0,0.0,0.0,0.0,0.0,0.0,0.0,0.0,0.0,0.0,0.0,0.0,0.0,0.0,0.0,0.0,0.0,0.0,0.0,0.0,0.0,0.0,0.0,0.0,0.0,0.0,0.0,0.0,0.0,0.0,0.0,0.0,0.0,0.0,0.0,0.0,0.0,0.0,0.0,0.0,0.0,0.0,0.0,0.0,0.0,0.0,0.0,0.0,0.0,0.0,0.0,0.0,0.0,0.0,0.0,0.0,0.0,0.0,0.0,0.0,0.0,0.0,0.0,0.0,0.0,0.0,0.0,0.0,0.0,0.0,0.0,0.0,0.0,0.0,0.0,0.0,0.0,0.0,0.0,0.0,0.0,0.0,0.0,0.0,0.0,0.0,0.0,0.0,0.0,0.0,0.0,0.0,0.0,0.0,0.0,0.0,0.0,0.0,0.0,0.0,0.0,0.0,0.0,0.0,0.0,0.0,0.0,0.0,0.0,0.0,0.0,0.0,0.0,0.0,0.0,0.0,0.0,0.0,0.0,0.0,0.0,0.0,0.0,0.0,0.0,0.0,0.0,0.0,0.0,0.0,0.0,0.0,0.0,0.0,0.0,0.0,0.0,0.0,0.0,0.0,0.0,0.0,0.0,0.0,0.0,0.0,0.0,0.0,0.0,0.0,0.0,0.0,0.0,0.0,0.0,0.0,0.0,0.0,0.0,0.0,0.0,0.0,0.0,0.0,0.0,0.0,0.0,0.0,0.0,0.0,0.0,0.0,0.0,0.0,0.0,0.0,0.0,0.0,0.0,0.0,0.0,0.0,0.0,0.0,0.0,0.0,0.0,0.0,0.0,0.0,0.0,0.0,0.0,0.0,0.0,0.0,0.0,0.0,0.0,0.0,0.0,0.0,0.0,0.0,0.0,0.0,0.0,0.0,0.0,0.0,0.0,0.0,0.0,0.0,0.0,0.0,0.0,0.0,0.0,0.0,0.0,0.0,0.0,0.0,0.0,0.0,0.0,0.0,0.0,0.0,0.0,0.0,0.0,0.0,0.0,0.0,0.0,0.0,0.0,0.0,0.0,0.0,0.0,0.0,0.0,0.0,0.0,0.0,0.0,0.0,0.0,0.0,0.0,0.0,0.0,0.0,0.0,0.0,0.0,0.0,0.0,0.0,0.0,0.0,0.0,0.0,0.0,0.0,0.0,0.0,0.0,0.0,0.0,0.0,0.0,0.0,0.0,0.0,0.0,0.0,0.0,0.0,0.0,0.0,0.0,0.0,0.0,0.0,0.0,0.0,0.0,0.0,0.0,0.0,0.0,0.0,0.0,0.0,0.0,0.0,0.0,0.0,0.0,0.0,0.0,0.0,0.0,0.0,0.0,0.0,0.0,0.0,0.0,0.0,0.0,0.0,0.0,0.0,0.0,0.0,0.0,0.0,0.0,0.0,0.0,0.0,0.0,0.0,0.0,0.0,0.0,0.0,0.0,0.0,0.0,0.0,0.0,0.0,0.0,0.0,0.0,0.0,0.0,0.0,0.0,0.0,0.0,0.0,0.0,0.0,0.0,0.0,0.0,0.0,0.0,0.0,0.0,0.0,0.0,0.0,0.0,0.0,0.0,0.0,0.0,0.0,0.0,0.0,0.0,0.0,0.0,0.0,0.0,0.0,0.0,0.0,0.0,0.0,0.0,0.0,0.0,0.0,0.0,0.0,0.0,0.0,0.0,0.0,0.0,0.0,0.0,0.0,0.0,0.0,0.0,0.0,0.0,0.0,0.0,0.0,0.0,0.0,0.0,0.0,0.0,0.0,0.0,0.0,0.0,0.0,0.0,0.0,0.0,0.0,0.0,0.0,0.0,0.0,0.0,0.0,0.0,0.0,0.0,0.0,0.0,0.0,0.0,0.0,0.0,0.0,0.0,0.0,0.0,0.0,0.0,0.0,0.0,0.0,0.0,0.0,0.0,0.0,0.0,0.0,0.0,0.0,0.0,0.0,0.0,0.0,0.0,0.0,0.0,0.0,0.0,0.0,0.0,0.0,0.0,0.0,0.0,0.0,0.0,0.0,0.0,0.0,0.0,0.0,0.0,0.0,0.0,0.0,0.0,0.0,0.0,0.0,0.0,0.0,0.0,0.0,0.0,0.0,0.0,0.0,0.0,0.0,0.0,0.0,0.0,0.0,0.0,0.0,0.0,0.0,0.0,0.0,0.0,0.0,0.0,0.0,0.0,0.0,0.0,0.0,0.0,0.0,0.0,0.0,0.0,0.0,0.0,0.0,0.0,0.0,0.0,0.0,0.0,0.0,0.0,0.0,0.0,0.0,0.0,0.0,0.0,0.0,0.0,0.0,0.0,0.0,0.0,0.0,0.0,0.0,0.0,0.0,0.0,0.0,0.0,0.0,0.0,0.0,0.0,0.0,0.0,0.0,0.0,0.0,0.0,0.0,0.0,0.0,0.0,0.0,0.0,0.0,0.0,0.0,0.0,0.0,0.0,0.0,0.0,0.0,0.0,0.0,0.0,0.0,0.0,0.0,0.0,0.0,0.0,0.0,0.0,0.0,0.0,0.0,0.0,0.0,0.0,0.0,0.0,0.0,0.0,0.0,0.0,0.0,0.0,0.0,0.0,0.0,0.0,0.0,0.0,0.0,0.0,0.0,0.0,0.0,0.0,0.0,0.0,0.0,0.0,0.0,0.0,0.0,0.0,0.0,0.0,0.0,0.0,0.0,0.0,0.0,0.0,0.0,0.0,0.0,0.0,0.0,0.0,0.0,0.0,0.0,0.0,0.0,0.0,0.0,0.0,0.0,0.0,0.0,0.0,0.0,0.0,0.0,0.0,0.0,0.0,0.0,0.0,0.0,0.0,0.0,0.0,0.0,0.0,0.0,0.0,0.0,0.0,0.0,0.0,0.0,0.0,0.0,0.0,0.0,0.0,0.0,0.0,0.0,0.0,0.0,0.0,0.0,0.0,0.0,0.0,0.0,0.0,0.0,0.0,0.0,0.0,0.0,0.0,0.0,0.0,0.0,0.0,0.0,0.0,0.0,0.0,0.0,0.0,0.0,0.0,0.0,0.0,0.0,0.0,0.0,0.0,0.0,0.0,0.0,0.0,0.0,0.0,0.0,0.0,0.0,0.0,0.0,0.0,0.0,0.0,0.0,0.0,0.0,0.0,0.0,0.0,0.0,0.0,0.0,0.0,0.0,0.0,0.0,0.0,0.0,0.0,0.0,0.0,0.0,0.0,0.0,0.0,0.0,0.0,0.0,0.0,0.0,0.0,0.0,0.0,0.0,0.0,0.0,0.0,0.0,0.0,0.0,0.0,0.0,0.0,0.0,0.0,0.0,0.0,0.0,0.0,0.0,0.0,0.0,0.0,0.0,0.0,0.0,0.0,0.0,0.0,0.0,0.0,0.0,0.0,0.0,0.0,0.0,0.0,0.0,0.0,0.0,0.0,0.0,0.0,0.0,0.0,0.0,0.0,0.0,0.0,0.0,0.0,0.0,0.0,0.0,0.0,0.0,0.0,0.0,0.0,0.0,0.0,0.0,0.0,0.0,0.0,0.0,0.0,0.0,0.0,0.0,0.0,0.0,0.0,0.0,0.0,0.0,0.0,0.0,0.0,0.0,0.0,0.0,0.0,0.0,0.0,0.0,0.0,0.0,0.0,0.0,0.0,0.0,0.0,0.0,0.0,0.0,0.0,0.0,0.0,0.0,0.0,0.0,0.0,0.0,0.0,0.0,0.0,0.0,0.0,0.0,0.0,0.0,0.0,0.0,0.0,0.0,0.0,0.0,0.0,0.0,0.0,0.0,0.0,0.0,0.0,0.0,0.0,0.0,0.0,0.0,0.0,0.0,0.0,0.0,0.0,0.0,0.0,0.0,0.0,-0.2204,0.0,0.0,0.0,0.0,0.0,0.0,0.0,0.0,0.0,0.0,0.0,0.0,0.0,0.0,0.0,0.0,0.0,0.0,0.0,0.0,0.0,0.0,0.0,0.0,0.0,0.0,0.0,0.0,0.0,0.0,0.0,0.0,0.0,0.0,0.0,0.0,0.0,0.0,0.0,0.0,0.0,0.0,0.0,0.0,0.0,0.0,0.0,0.0,0.0,0.0,0.0,0.0,0.0,0.0,0.0,0.0,0.0,0.0,0.0,0.0,0.0,0.0,0.0,0.0,0.0,0.0,0.0,0.0,0.0,0.0,0.0,0.0,0.0,0.0,0.0,0.0,0.0,0.0,0.0,0.0,0.0,0.0,0.0,0.0,0.0,0.0,0.0,0.0,0.0,0.0,0.0,0.0,0.0,0.0,0.0,0.0,0.0,0.0,0.0,0.0,0.0,0.0,0.0,0.0,0.0,0.0,0.0,0.0,0.0,0.0,-0.2204,-0.2188,-0.2102,-0.2035,-0.2035,0.0,0.0,0.0,0.0,0.0,0.0,0.0,0.0,0.0,0.0,0.0,0.0,0.0,0.0,0.0,0.0,0.0,0.0,0.0,0.0,0.0,0.0,0.0,0.0,0.0,0.0,0.0,0.0,0.0,0.0,0.0,0.0,0.0,0.0,0.0,0.0,0.0,0.0,0.0,0.0,0.0,0.0,0.0,0.0,0.0,0.0,0.0,0.0,0.0,0.0,0.0,0.0,0.0,0.0,0.0,0.0,0.0,0.0,0.0,0.0,0.0,0.0,0.0,0.0,0.0,0.0,0.0,0.0,0.0,0.0,0.0,0.0,0.0,0.0,0.0,0.0,0.0,0.0,0.0,0.0,0.0,0.0,0.0,0.0,0.0,0.0,0.0,0.0,0.0,0.0,0.0,0.0,0.0,0.0,0.0,0.0,0.0,0.0,0.0,0.0,0.0,0.0,0.0,0.0,0.0,0.0,0.0,0.0,0.0,0.0,0.0,0.0,-0.1918,-0.1832,-0.1816,0.0,0.0,0.0,0.0,0.0,0.0,0.0,0.0,0.0,0.0,0.0,0.0,0.0,0.0,0.0,0.0,0.0,0.0,0.0,0.0,0.0,0.0,0.0,0.0,0.0,0.0,0.0,0.0,0.0,0.0,0.0,0.0,0.0,0.0,0.0,0.0,0.0,0.0,0.0,0.0,0.0,0.0,0.0,0.0,0.0,0.0,0.0,0.0,0.0,0.0,0.0,0.0,0.0,0.0,0.0,0.0,0.0,0.0,0.0,0.0,0.0,0.0,0.0,0.0,0.0,0.0,0.0,0.0,0.0,0.0,0.0,0.0,0.0,0.0,0.0,0.0,0.0,0.0,0.0,0.0,0.0,0.0,0.0,0.0,0.0,0.0,0.0,0.0,0.0,0.0,0.0,0.0,0.0,0.0,0.0,0.0,0.0,0.0,0.0,0.0,0.0,0.0,0.0,0.0,0.0,0.0,0.0,0.0,0.0,0.0,-0.1648,-0.1648,-0.1631,0.0,-0.1614,0.0,0.0,0.0,0.0,0.0,0.0,0.0,0.0,0.0,0.0,0.0,0.0,0.0,0.0,0.0,0.0,0.0,0.0,0.0,0.0,0.0,0.0,0.0,0.0,0.0,0.0,0.0,0.0,0.0,0.0,0.0,0.0,0.0,0.0,0.0,0.0,0.0,0.0,0.0,0.0,0.0,0.0,0.0,0.0,0.0,0.0,0.0,0.0,0.0,0.0,0.0,0.0,0.0,0.0,0.0,0.0,0.0,0.0,0.0,0.0,0.0,0.0,0.0,0.0,0.0,0.0,0.0,0.0,0.0,0.0,0.0,0.0,0.0,0.0,0.0,0.0,0.0,0.0,0.0,0.0,0.0,0.0,0.0,0.0,0.0,0.0,0.0,0.0,0.0,0.0,0.0,0.0,0.0,0.0,0.0,0.0,0.0,0.0,0.0,0.0,0.0,0.0,0.0,0.0,0.0,0.0,0.0,0.0,0.0,0.0,-0.156,-0.1579,-0.152,-0.1419,0.0,0.0,0.0,0.0,0.0,0.0,0.0,0.0,0.0,0.0,0.0,0.0,0.0,0.0,0.0,0.0,0.0,0.0,0.0,0.0,0.0,0.0,0.0,0.0,0.0,0.0,0.0,0.0,0.0,0.0,0.0,0.0,0.0,0.0,0.0,0.0,0.0,0.0,0.0,0.0,0.0,0.0,0.0,0.0,0.0,0.0,0.0,0.0,0.0,0.0,0.0,0.0,0.0,0.0,0.0,0.0,0.0,0.0,0.0,0.0,0.0,0.0,0.0,0.0,0.0,0.0,0.0,0.0,0.0,0.0,0.0,0.0,0.0,0.0,0.0,0.0,0.0,0.0,0.0,0.0,0.0,0.0,0.0,0.0,0.0,0.0,0.0,0.0,0.0,0.0,0.0,0.0,0.0,0.0,0.0,0.0,0.0,0.0,0.0,0.0,0.0,0.0,0.0,0.0,0.0,0.0,0.0,0.0,0.0,0.0,-0.1421,-0.1397,-0.1428,-0.1347,-0.123,-0.1081,0.0,0.0,0.0,0.0,0.0,0.0,0.0,0.0,0.0,0.0,0.0,0.0,0.0,0.0,0.0,0.0,0.0,0.0,0.0,0.0,0.0,0.0,0.0,0.0,0.0,0.0,0.0,0.0,0.0,0.0,0.0,0.0,0.0,0.0,0.0,0.0,0.0,0.0,0.0,0.0,0.0,0.0,0.0,0.0,0.0,0.0,0.0,0.0,0.0,0.0,0.0,0.0,0.0,0.0,0.0,0.0,0.0,0.0,0.0,0.0,0.0,0.0,0.0,0.0,0.0,0.0,0.0,0.0,0.0,0.0,0.0,0.0,0.0,0.0,0.0,0.0,0.0,0.0,0.0,0.0,0.0,0.0,0.0,0.0,0.0,0.0,0.0,0.0,0.0,0.0,0.0,0.0,0.0,0.0,0.0,0.0,0.0,0.0,0.0,0.0,0.0,0.0,0.0,0.0,0.0,0.0,0.0,0.0,-0.1307,-0.1171,-0.1092,-0.1037,-0.1041,-0.1023,0.0,0.0,0.0,0.0,0.0,0.0,0.0,0.0,0.0,0.0,0.0,0.0,0.0,0.0,0.0,0.0,0.0,0.0,0.0,0.0,0.0,0.0,0.0,0.0,0.0,0.0,0.0,0.0,0.0,0.0,0.0,0.0,0.0,0.0,0.0,0.0,0.0,0.0,0.0,0.0,0.0,0.0,0.0,0.0,0.0,0.0,0.0,0.0,0.0,0.0,0.0,0.0,0.0,0.0,0.0,0.0,0.0,0.0,0.0,0.0,0.0,0.0,0.0,0.0,0.0,0.0,0.0,0.0,0.0,0.0,0.0,0.0,0.0,0.0,0.0,0.0,0.0,0.0,0.0,0.0,0.0,0.0,0.0,0.0,0.0,0.0,0.0,0.0,0.0,0.0,0.0,0.0,0.0,0.0,0.0,0.0,0.0,0.0,0.0,0.0,0.0,0.0,0.0,0.0,0.0,0.0,0.0,0.0,0.0,-0.1118,-0.1105,-0.1062,-0.1003,-0.104,-0.1066,0.0,0.0,0.0,0.0,0.0,0.0,0.0,0.0,0.0,0.0,0.0,0.0,0.0,0.0,0.0,0.0,0.0,0.0,0.0,0.0,0.0,0.0,0.0,0.0,0.0,0.0,0.0,0.0,0.0,0.0,0.0,0.0,0.0,0.0,0.0,0.0,0.0,0.0,0.0,0.0,0.0,0.0,0.0,0.0,0.0,0.0,0.0,0.0,0.0,0.0,0.0,0.0,0.0,0.0,0.0,0.0,0.0,0.0,0.0,0.0,0.0,0.0,0.0,0.0,0.0,0.0,0.0,0.0,0.0,0.0,0.0,0.0,0.0,0.0,0.0,0.0,0.0,0.0,0.0,0.0,0.0,0.0,0.0,0.0,0.0,0.0,0.0,0.0,0.0,0.0,0.0,0.0,0.0,0.0,0.0,0.0,0.0,0.0,0.0,0.0,0.0,0.0,0.0,0.0,0.0,0.0,0.0,0.0,0.0,-0.1005,0.0,-0.1032,0.0,-0.1012,-0.1037,0.0,0.0,0.0,0.0,0.0,0.0,0.0,0.0,0.0,0.0,0.0,0.0,0.0,0.0,0.0,0.0,0.0,0.0,0.0,0.0,0.0,0.0,0.0,0.0,0.0,0.0,0.0,0.0,0.0,0.0,0.0,0.0,0.0,0.0,0.0,0.0,0.0,0.0,0.0,0.0,0.0,0.0,0.0,0.0,0.0,0.0,0.0,0.0,0.0,0.0,0.0,0.0,0.0,0.0,0.0,0.0,0.0,0.0,0.0,0.0,0.0,0.0,0.0,0.0,0.0,0.0,0.0,0.0,0.0,0.0,0.0,0.0,0.0,0.0,0.0,0.0,0.0,0.0,0.0,0.0,0.0,0.0,0.0,0.0,0.0,0.0,0.0,0.0,0.0,0.0,0.0,0.0,0.0,0.0,0.0,0.0,0.0,0.0,0.0,0.0,0.0,0.0,0.0,0.0,0.0,0.0,0.0,0.0,-0.1002,-0.1002,-0.1002,-0.1008,-0.1007,-0.0951,-0.0947,0.0,0.0,0.0,0.0,0.0,0.0,0.0,0.0,0.0,0.0,0.0,0.0,0.0,0.0,0.0,0.0,0.0,0.0,0.0,0.0,0.0,0.0,0.0,0.0,0.0,0.0,0.0,0.0,0.0,0.0,0.0,0.0,0.0,0.0,0.0,0.0,0.0,0.0,0.0,0.0,0.0,0.0,0.0,0.0,0.0,0.0,0.0,0.0,0.0,0.0,0.0,0.0,0.0,0.0,0.0,0.0,0.0,0.0,0.0,0.0,0.0,0.0,0.0,0.0,0.0,0.0,0.0,0.0,0.0,0.0,0.0,0.0,0.0,0.0,0.0,0.0,0.0,0.0,0.0,0.0,0.0,0.0,0.0,0.0,0.0,0.0,0.0,0.0,0.0,0.0,0.0,0.0,0.0,0.0,0.0,0.0,0.0,0.0,0.0,0.0,0.0,0.0,0.0,0.0,0.0,0.0,0.0,0.0,0.0,-0.1062,-0.1063,-0.1068,-0.1078,-0.0999,-0.0996,0.0,0.0,0.0,0.0,0.0,0.0,0.0,0.0,0.0,0.0,0.0,0.0,0.0,0.0,0.0,0.0,0.0,0.0,0.0,0.0,0.0,0.0,0.0,0.0,0.0,0.0,0.0,0.0,0.0,0.0,0.0,0.0,0.0,0.0,0.0,0.0,0.0,0.0,0.0,0.0,0.0,0.0,0.0,0.0,0.0,0.0,0.0,0.0,0.0,0.0,0.0,0.0,0.0,0.0,0.0,0.0,0.0,0.0,0.0,0.0,0.0,0.0,0.0,0.0,0.0,0.0,0.0,0.0,0.0,0.0,0.0,0.0,0.0,0.0,0.0,0.0,0.0,0.0,0.0,0.0,0.0,0.0,0.0,0.0,0.0,0.0,0.0,0.0,0.0,0.0,0.0,0.0,0.0,0.0,0.0,0.0,0.0,0.0,0.0,0.0,0.0,0.0,0.0,0.0,0.0,0.0,0.0,0.0,0.0,-0.099,-0.099,-0.0993,-0.0984,-0.0936,-0.0979,-0.1069,0.0,0.0,0.0,0.0,0.0,0.0,0.0,0.0,0.0,0.0,0.0,0.0,0.0,0.0,0.0,0.0,0.0,0.0,0.0,0.0,0.0,0.0,0.0,0.0,0.0,0.0,0.0,0.0,0.0,0.0,0.0,0.0,0.0,0.0,0.0,0.0,0.0,0.0,0.0,0.0,0.0,0.0,0.0,0.0,0.0,0.0,0.0,0.0,0.0,0.0,0.0,0.0,0.0,0.0,0.0,0.0,0.0,0.0,0.0,0.0,0.0,0.0,0.0,0.0,0.0,0.0,0.0,0.0,0.0,0.0,0.0,0.0,0.0,0.0,0.0,0.0,0.0,0.0,0.0,0.0,0.0,0.0,0.0,0.0,0.0,0.0,0.0,0.0,0.0,0.0,0.0,0.0,0.0,0.0,0.0,0.0,0.0,0.0,0.0,0.0,0.0,0.0,0.0,0.0,0.0,0.0,0.0,0.0,-0.0793,-0.0777,-0.0786,-0.08,-0.0797,-0.0853,0.0,0.0,0.0,0.0,0.0,0.0,0.0,0.0,0.0,0.0,0.0,0.0,0.0,0.0,0.0,0.0,0.0,0.0,0.0,0.0,0.0,0.0,0.0,0.0,0.0,0.0,0.0,0.0,0.0,0.0,0.0,0.0,0.0,0.0,0.0,0.0,0.0,0.0,0.0,0.0,0.0,0.0,0.0,0.0,0.0,0.0,0.0,0.0,0.0,0.0,0.0,0.0,0.0,0.0,0.0,0.0,0.0,0.0,0.0,0.0,0.0,0.0,0.0,0.0,0.0,0.0,0.0,0.0,0.0,0.0,0.0,0.0,0.0,0.0,0.0,0.0,0.0,0.0,0.0,0.0,0.0,0.0,0.0,0.0,0.0,0.0,0.0,0.0,0.0,0.0,0.0,0.0,0.0,0.0,0.0,0.0,0.0,0.0,0.0,0.0,0.0,0.0,0.0,0.0,0.0,0.0,0.0,0.0,0.0,-0.0648,-0.0505,-0.05,-0.0645,-0.074,-0.0854,0.0,0.0,0.0,0.0,0.0,0.0,0.0,0.0,0.0,0.0,0.0,0.0,0.0,0.0,0.0,0.0,0.0,0.0,0.0,0.0,0.0,0.0,0.0,0.0,0.0,0.0,0.0,0.0,0.0,0.0,0.0,0.0,0.0,0.0,0.0,0.0,0.0,0.0,0.0,0.0,0.0,0.0,0.0,0.0,0.0,0.0,0.0,0.0,0.0,0.0,0.0,0.0,0.0,0.0,0.0,0.0,0.0,0.0,0.0,0.0,0.0,0.0,0.0,0.0,0.0,0.0,0.0,0.0,0.0,0.0,0.0,0.0,0.0,0.0,0.0,0.0,0.0,0.0,0.0,0.0,0.0,0.0,0.0,0.0,0.0,0.0,0.0,0.0,0.0,0.0,0.0,0.0,0.0,0.0,0.0,0.0,0.0,0.0,0.0,0.0,0.0,0.0,0.0,0.0,0.0,0.0,0.0,0.0,-0.0635,-0.0608,-0.0325,-0.0224,-0.0357,-0.0581,-0.0776,0.0,0.0,0.0,0.0,0.0,0.0,0.0,0.0,0.0,0.0,0.0,0.0,0.0,0.0,0.0,0.0,0.0,0.0,0.0,0.0,0.0,0.0,0.0,0.0,0.0,0.0,0.0,0.0,0.0,0.0,0.0,0.0,0.0,0.0,0.0,0.0,0.0,0.0,0.0,0.0,0.0,0.0,0.0,0.0,0.0,0.0,0.0,0.0,0.0,0.0,0.0,0.0,0.0,0.0,0.0,0.0,0.0,0.0,0.0,0.0,0.0,0.0,0.0,0.0,0.0,0.0,0.0,0.0,0.0,0.0,0.0,0.0,0.0,0.0,0.0,0.0,0.0,0.0,0.0,0.0,0.0,0.0,0.0,0.0,0.0,0.0,0.0,0.0,0.0,0.0,0.0,0.0,0.0,0.0,0.0,0.0,0.0,0.0,0.0,0.0,0.0,0.0,0.0,0.0,0.0,0.0,0.0,0.0,-0.0527,-0.0554,-0.0186,0.0,0.0,-0.0392,-0.0677,0.0,0.0,0.0,0.0,0.0,0.0,0.0,0.0,0.0,0.0,0.0,0.0,0.0,0.0,0.0,0.0,0.0,0.0,0.0,0.0,0.0,0.0,0.0,0.0,0.0,0.0,0.0,0.0,0.0,0.0,0.0,0.0,0.0,0.0,0.0,0.0,0.0,0.0,0.0,0.0,0.0,0.0,0.0,0.0,0.0,0.0,0.0,0.0,0.0,0.0,0.0,0.0,0.0,0.0,0.0,0.0,0.0,0.0,0.0,0.0,0.0,0.0,0.0,0.0,0.0,0.0,0.0,0.0,0.0,0.0,0.0,0.0,0.0,0.0,0.0,0.0,0.0,0.0,0.0,0.0,0.0,0.0,0.0,0.0,0.0,0.0,0.0,0.0,0.0,0.0,0.0,0.0,0.0,0.0,0.0,0.0,0.0,0.0,0.0,0.0,0.0,0.0,0.0,0.0,0.0,0.0,0.0,0.0,-0.0455,-0.0353,-0.013,0.0,0.0,-0.0399,-0.0602,0.0,0.0,0.0,0.0,0.0,0.0,0.0,0.0,0.0,0.0,0.0,0.0,0.0,0.0,0.0,0.0,0.0,0.0,0.0,0.0,0.0,0.0,0.0,0.0,0.0,0.0,0.0,0.0,0.0,0.0,0.0,0.0,0.0,0.0,0.0,0.0,0.0,0.0,0.0,0.0,0.0,0.0,0.0,0.0,0.0,0.0,0.0,0.0,0.4476,0.0,0.0,0.0,0.0,0.0,0.0,0.0,0.0,0.0,0.0,0.0,0.0,0.0,0.0,0.0,0.0,0.0,0.0,0.0,0.0,0.0,0.0,0.0,0.0,0.0,0.0,0.0,0.0,0.0,0.0,0.0,0.0,0.0,0.0,0.0,0.0,0.0,0.0,0.0,0.0,0.0,0.0,0.0,0.0,0.0,0.0,0.0,0.0,0.0,0.0,0.0,0.0,0.0,0.0,0.0,0.0,0.0,0.0,0.0,0.0184,0.0341,0.0552,0.0651,0.0628,-0.0065,-0.0499,0.0,0.0,0.0,0.0,0.0,0.0,0.0,0.0,0.0,0.0,0.0,0.0,0.0,0.0,0.0,0.0,0.0,0.0,0.0,0.0,0.0,0.0,0.0,0.0,0.0,0.0,0.0,0.0,0.0,0.0,0.0,0.0,0.0,0.0,0.0,0.0,0.0,0.0,0.0,0.0,0.0,0.0,0.0,0.0,0.0,0.0,0.0,0.0,0.0,0.0,0.0,0.0,0.0,0.0,0.0,0.0,0.0,0.0,0.0,0.0,0.0,0.0,0.0,0.0,0.0,0.0,0.0,0.0,0.0,0.0,0.0,0.0,0.0,0.0,0.0,0.0,0.0,0.0,0.0,0.0,0.0,0.0,0.0,0.0,0.0,0.0,0.0,0.0,0.0,0.0,0.0,0.0,0.0,0.0,0.0,0.0,0.0,0.0,0.0,0.0,0.0,0.0,0.0,0.0,0.0,0.0,0.0,0.0101,0.0706,0.0933,0.1087,0.1189,0.1189,0.0221,-0.0411,-0.059,0.0,0.0,0.0,0.0,0.0,0.0,0.0,0.0,0.0,0.0,0.0,0.0,0.0,0.0,0.0,0.0,0.0,0.0,0.0,0.0,0.0,0.0,0.0,0.0,0.0,0.0,0.0,0.0,0.0,0.0,0.0,0.0,0.0,0.0,0.0,0.0,0.0,0.0,0.4393,0.4603,0.0,0.0,0.0,0.0,0.0,0.0,0.0,0.0,0.5038,0.0,0.0,0.0,0.0,0.0,0.0,0.0,0.0,0.0,0.0,0.0,0.0,0.0,0.0,0.0,0.0,0.0,0.0,0.0,0.0,0.0,0.0,0.0,0.0,0.0,0.0,0.0,0.0,0.0,0.0,0.0,0.0,0.0,0.0,0.0,0.0,0.0,0.0,0.0,0.0,0.0,0.0,0.0,0.0,0.0,0.0,0.0,0.0,0.0,0.0,0.0,0.0,0.0,0.0,0.0,0.0,-0.0728,-0.0492,-0.0187,0.0174,0.0222,0.0225,0.0225,-0.0157,-0.046,-0.0591,0.0,0.0,0.0,0.0,0.0,0.0,0.0,0.0,0.0,0.0,0.0,0.0,0.0,0.0,0.0,0.0,0.0,0.0,0.0,0.0,0.0,0.0,0.0,0.0,0.0,0.0,0.0,0.0,0.0,0.0,0.0,0.0,0.0,0.0,0.0,0.0,0.0,0.0,0.0,0.495,0.5153,0.0,0.0,0.0,0.0,0.0,0.0,0.0,0.0,0.5244,0.0,0.0,0.0,0.0,0.0,0.0,0.0,0.0,0.0,0.0,0.0,0.0,0.0,0.0,0.0,0.0,0.0,0.0,0.0,0.0,0.0,0.0,0.0,0.0,0.0,0.0,0.0,0.0,0.0,0.0,0.0,0.0,0.0,0.0,0.0,0.0,0.0,0.0,0.0,0.0,0.0,0.0,0.0,0.0,0.0,0.0,0.0,0.0,0.0,0.0,0.0,0.0,0.0,0.0,0.0,-0.063,-0.0042,0.0449,0.0707,0.0714,0.0718,0.0718,0.0044,-0.0435,0.0,0.0,0.0,0.0,0.0,0.0,0.0,0.0,0.0,0.0,0.0,0.0,0.0,0.0,0.0,0.0,0.0,0.0,0.0,0.0,0.0,0.0,0.0,0.0,0.0,0.0,0.0,0.0,0.0,0.0,0.0,0.0,0.0,0.0,0.0,0.0,0.0,0.0,0.0,0.0,0.5297,0.5499,0.5732,0.0,0.0,0.0,0.0,0.0,0.0,0.5326,0.5366,0.0,0.0,0.0,0.0,0.0,0.0,0.0,0.0,0.0,0.0,0.0,0.0,0.0,0.0,0.0,0.0,0.0,0.0,0.0,0.0,0.0,0.0,0.0,0.0,0.0,0.0,0.0,0.0,0.0,0.0,0.0,0.0,0.0,0.0,0.0,0.0,0.0,0.0,0.0,0.0,0.0,0.0,0.0,0.0,0.0,0.0,0.0,0.0,0.0,0.0,0.0,0.0,0.0,0.0,0.0,-0.0568,0.0365,0.0966,0.1098,0.1122,0.1101,0.1105,0.0155,-0.0456,0.0,0.0,0.0,0.0,0.0,0.0,0.0,0.0,0.0,0.0,0.0,0.0,0.0,0.0,0.0,0.0,0.0,0.0,0.0,0.0,0.0,0.0,0.0,0.0,0.0,0.0,0.0,0.0,0.0,0.0,0.0,0.0,0.0,0.0,0.0,0.0,0.0,0.0,0.0,0.0,0.0,0.5749,0.6114,0.596,0.0,0.0,0.0,0.0,0.5513,0.5644,0.0,0.0,0.0,0.0,0.0,0.0,0.0,0.0,0.0,0.0,0.0,0.0,0.0,0.0,0.0,0.0,0.0,0.0,0.0,0.0,0.0,0.0,0.0,0.0,0.0,0.0,0.0,0.0,0.0,0.0,0.0,0.0,0.0,0.0,0.0,0.0,0.0,0.0,0.0,0.0,0.0,0.0,0.0,0.0,0.0,0.0,0.0,0.0,0.0,0.0,0.0,0.0,0.0,0.0,0.0,0.0,-0.0589,-0.0129,0.0154,0.0157,0.0,0.0159,0.0161,-0.0362,-0.0669,0.0,0.0,0.0,0.0,0.0,0.0,0.0,0.0,0.0,0.0,0.0,0.0,0.0,0.0,0.0,0.0,0.0,0.0,0.0,0.0,0.0,0.0,0.0,0.0,0.0,0.0,0.0,0.0,0.0,0.0,0.0,0.0,0.0,0.0,0.0,0.0,0.0,0.0,0.0,0.0,0.0,0.5711,0.5756,0.5737,0.57,0.0,0.0,0.6208,0.6172,0.6433,0.0,0.0,0.0,0.0,0.0,0.0,0.0,0.0,0.0,0.0,0.0,0.0,0.0,0.0,0.0,0.0,0.0,0.0,0.0,0.0,0.0,0.0,0.0,0.0,0.0,0.0,0.0,0.0,0.0,0.0,0.0,0.0,0.0,0.0,0.0,0.0,0.0,0.0,0.0,0.0,0.0,0.0,0.0,0.0,0.0,0.0,0.0,0.0,0.0,0.0,0.0,0.0,0.0,0.0,0.0,-0.0503,-0.0622,-0.0066,0.0156,0.0,0.0,0.0,0.0,-0.0471,-0.0709,0.0,0.0,0.0,0.0,0.0,0.0,0.0,0.0,0.0,0.0,0.0,0.0,0.0,0.0,0.0,0.0,0.0,0.0,0.0,0.0,0.0,0.0,0.0,0.0,0.0,0.0,0.0,0.0,0.0,0.0,0.0,0.0,0.0,0.0,0.0,0.0,0.0,0.0,0.0,0.0,0.0,0.0,0.6308,0.6282,0.0,0.0,0.0,0.646,0.6307,0.0,0.0,0.0,0.0,0.0,0.0,0.0,0.0,0.0,0.0,0.0,0.0,0.0,0.0,0.0,0.0,0.0,0.0,0.0,0.0,0.0,0.0,0.0,0.0,0.0,0.0,0.0,0.0,0.0,0.0,0.0,0.0,0.0,0.0,0.0,0.0,0.0,0.0,0.0,0.0,0.0,0.0,0.0,0.0,0.0,0.0,0.0,0.0,0.0,0.0,0.0,0.0,0.0,0.0,0.0,0.0,0.0,-0.0461,0.0225,0.0456,0.0205,0.0137,0.0092,0.0094,-0.036,0.0,0.0,0.0,0.0,0.0,0.0,0.0,0.0,0.0,0.0,0.0,0.0,0.0,0.0,0.0,0.0,0.0,0.0,0.0,0.0,0.0,0.0,0.0,0.0,0.0,0.0,0.0,0.4285,0.0,0.0,0.0,0.0,0.0,0.0,0.0,0.0,0.0,0.0,0.0,0.0,0.0,0.0,0.6612,0.6762,0.679,0.6842,0.0,0.0,0.6767,0.6624,0.7002,0.7083,0.0,0.0,0.0,0.0,0.0,0.0,0.0,0.0,0.0,0.0,0.0,0.0,0.0,0.0,0.0,0.0,0.0,0.0,0.0,0.0,0.0,0.0,0.0,0.0,0.0,0.0,0.0,0.0,0.0,0.0,0.0,0.0,0.0,0.0,0.0,0.0,0.0,0.0,0.0,0.0,0.0,0.0,0.0,0.0,0.0,0.0,0.0,0.0,0.0,0.0,0.0,0.0,0.0,0.0,0.0,0.0067,0.0768,0.0997,0.0736,0.0499,0.0383,0.0366,-0.0139,-0.0502,0.0,0.0,0.0,0.0,0.0,0.0,0.0,0.0,0.0,0.0,0.0,0.0,0.0,0.0,0.0,0.0,0.0,0.0,0.0,0.0,0.0,0.0,0.0,0.0,0.0,0.0,0.0,0.0,0.0,0.0,0.0,0.0,0.0,0.0,0.0,0.0,0.0,0.0,0.0,0.0,0.0,0.672,0.677,0.6946,0.7163,0.0,0.0,0.724,0.7377,0.7715,0.7626,0.672,0.0,0.0,0.0,0.0,0.0,0.0,0.0,0.0,0.0,0.0,0.0,0.0,0.0,0.0,0.0,0.0,0.0,0.0,0.0,0.0,0.0,0.0,0.0,0.0,0.0,0.0,0.0,0.0,0.0,0.0,0.0,0.0,0.0,0.0,0.0,0.0,0.0,0.0,0.0,0.0,0.0,0.0,0.0,0.0,0.0,0.0,0.0,0.0,0.0,0.0,0.0,0.0,0.0,0.0291,0.0069,0.0799,0.1073,0.0811,0.0715,0.065,0.0662,0.0281,-0.0069,0.0,0.0,0.0,0.0,0.0,0.0,0.0,0.0,0.0,0.0,0.0,0.0,0.0,0.0,0.0,0.0,0.0,0.0,0.0,0.0,0.0,0.0,0.0,0.0,0.0,0.0,0.0,0.0,0.5676,0.5773,0.5635,0.0,0.0,0.0,0.0,0.0,0.0,0.0,0.0,0.0,0.0,0.7161,0.7438,0.7465,0.0,0.0,0.764,0.7493,0.7434,0.7597,0.7431,0.6705,0.6719,0.0,0.0,0.0,0.0,0.0,0.0,0.0,0.0,0.0,0.0,0.0,0.0,0.0,0.0,0.0,0.0,0.0,0.0,0.0,0.0,0.0,0.0,0.0,0.0,0.0,0.0,0.0,0.0,0.0,0.0,0.0,0.0,0.0,0.0,0.0,0.0,0.0,0.0,0.0,0.0,0.0,0.0,0.0,0.0,0.0,0.0,0.0,0.0,0.0,0.0,0.0,0.0,0.0436,0.0235,0.0961,0.1237,0.1019,0.0946,0.0928,0.0914,0.0664,0.0326,0.0,0.0,0.0,0.0,0.0,0.0,0.0,0.0,0.0,0.0,0.0,0.0,0.0,0.0,0.0,0.0,0.0,0.0,0.0,0.0,0.0,0.0,0.0,0.0,0.0,0.0,0.0,0.0,0.5835,0.5944,0.5799,0.0,0.0,0.0,0.0,0.0,0.0,0.0,0.0,0.0,0.0,0.7554,0.7832,0.7829,0.7862,0.8077,0.7885,0.7724,0.7682,0.7671,0.7478,0.6918,0.0,0.0,0.0,0.0,0.0,0.0,0.0,0.0,0.0,0.0,0.0,0.0,0.0,0.0,0.0,0.0,0.0,0.0,0.0,0.0,0.0,0.0,0.0,0.0,0.0,0.0,0.0,0.0,0.0,0.0,-0.2172,0.0,0.0,0.0,0.0,0.0,0.0,0.0,0.0,0.0,0.0,0.0,0.0,0.0,0.0,0.0,0.0,0.0,0.0,0.0,0.0,0.0,0.0,0.0778,0.0784,0.1298,0.1564,0.1564,0.1312,0.121,0.1184,0.0931,0.0671,0.0394,0.0,0.0,0.0,0.0,0.0,0.0,0.0,0.0,0.0,0.0,0.0,0.0,0.0,0.0,0.0,0.0,0.0,0.0,0.0,0.0,0.0,0.0,0.0,0.0,0.0,0.0,0.5453,0.5788,0.5985,0.0,0.0,0.0,0.0,0.0,0.0,0.0,0.0,0.0,0.0,0.7366,0.7787,0.781,0.7925,0.8074,0.8267,0.8014,0.7898,0.8204,0.8101,0.7858,0.0,0.0,0.0,0.0,0.0,0.0,0.0,0.0,0.0,0.0,0.0,0.0,0.0,0.0,0.0,0.0,0.0,0.0,0.0,0.0,0.0,0.0,0.0,0.0,0.0,0.0,0.0,-0.1396,-0.1285,0.0,0.0,0.0,0.0,0.0,0.0,0.0,0.0,0.0,0.0,0.0,0.0,0.0073,0.0,0.0,0.0,0.0,0.0,0.0,0.0,0.0,0.0,0.0,0.0,0.0,0.0818,0.0874,0.136,0.1626,0.1671,0.1551,0.1465,0.1464,0.1371,0.1117,0.0671,0.0,0.0,0.0,0.0,0.0,0.0,0.0,0.0,0.0,0.0,0.0,0.0,0.0,0.0,0.0,0.0,0.0,0.0,0.0,0.0,0.0,0.0,0.0,0.0,0.0,0.6082,0.0,0.0,0.0,0.0,0.0,0.0,0.0,0.0,0.0,0.0,0.0,0.6996,0.7403,0.7732,0.7976,0.8127,0.8157,0.8236,0.0,0.0,0.0,0.0,0.0,0.0,0.0,0.0,0.0,0.0,0.0,0.0,0.0,0.0,0.8478,0.7941,0.8105,0.8378,0.8505,0.0,0.0,0.0,0.0,0.0,0.0,0.0,0.0,0.0,0.0,0.0,0.0,0.0,0.0,-0.0746,0.0,-0.0783,0.0,0.0,0.0,0.0,0.0,0.0,0.0,0.0,-0.0151,0.0227,0.0576,0.0655,0.0773,0.0,0.0857,0.0539,0.0,0.0,0.0,0.0,0.0,0.0,0.0,0.0,0.0832,0.0882,0.1338,0.1626,0.1645,0.1627,0.1592,0.1591,0.1577,0.1384,0.1031,0.061,0.036,0.0,0.0,0.0,0.0,0.0,0.0,0.0,0.0,0.0,0.0,0.0,0.0,0.0,0.0,0.0,0.0,0.0,0.0,0.0,0.0,0.0,0.0,0.0,0.6019,0.0,0.0,0.0,0.0,0.0,0.0,0.0,0.0,0.0,0.6794,0.7129,0.7508,0.7797,0.7943,0.8025,0.8177,0.0,0.0,0.0,0.0,0.0,0.0,0.0,0.7758,0.7551,0.766,0.7913,0.8255,0.8809,0.9175,0.9115,0.0,0.0,0.8741,0.8804,0.9043,0.9179,0.9405,0.9633,0.9793,0.9859,0.9904,0.0,0.0,0.0,0.0,0.0,0.0,0.0,0.0,0.0023,-0.0251,0.0,-0.0209,0.0,0.0,0.0,0.0,0.0,-0.0251,0.0,0.0,0.1114,0.1354,0.0985,0.1148,0.124,0.124,0.1002,0.0872,0.0854,0.0795,0.0,0.0,0.0,0.0,0.0,0.0,0.0794,0.0835,0.1341,0.1594,0.1621,0.162,0.1593,0.159,0.1535,0.1478,0.1399,0.1192,0.1069,0.0985,0.0635,0.0,0.0,0.0,0.0,0.0,0.0,0.0,0.0,0.0,0.0,0.0,0.0,0.0,0.0,0.0,0.0,0.0,0.0,0.0,0.0,0.4266,0.0,0.0,0.0,0.0,0.0,0.0,0.0,0.0,0.0,0.0,0.7038,0.7514,0.7914,0.7893,0.0,0.0,0.0,0.0,0.8102,0.831,0.833,0.8275,0.8092,0.8321,0.8477,0.8359,0.0,0.0,0.9094,0.9287,0.9406,0.9189,0.9565,0.984,0.981,0.9642,0.9652,1.0065,1.0023,1.0071,1.0465,1.0608,1.0773,0.018,0.0,0.0,0.0,0.0,-0.0222,0.0074,0.0566,0.0579,0.0484,0.0369,0.0486,0.0,0.0,0.0,0.0,0.0,0.0,0.0849,0.121,0.1565,0.1868,0.2115,0.2184,0.219,0.2136,0.2068,0.199,0.1926,0.1885,0.1373,0.041,0.0,0.0,0.0,0.0,0.0916,0.1151,0.1478,0.1685,0.1678,0.1686,0.1639,0.1592,0.1579,0.1551,0.1557,0.1444,0.129,0.1092,0.095,0.0,0.0,0.0,0.0,0.0,0.0,0.0,0.0,0.0,0.0,0.0,0.0,0.0,0.0,0.0,0.0,0.0,0.0,0.0,0.5743,0.6311,0.6721,0.0,0.0,0.0,0.0,0.0,0.0,0.0,0.0,0.0,0.8302,0.803,0.7851,0.0,0.0,0.8054,0.8213,0.8378,0.8558,0.8706,0.0,0.0,0.0,0.9066,0.913,0.9083,0.9414,0.9686,0.9746,1.0068,1.0309,1.0223,1.0339,1.0461,1.0444,1.0211,1.0072,1.0178,1.0217,1.0286,1.0431,1.0601,1.0755,0.115,0.0856,0.0286,0.0155,0.0358,0.036,0.0665,0.1111,0.1157,0.1112,0.1019,0.1201,0.1028,0.0587,0.0612,0.0,0.0,0.0,0.1546,0.2071,0.2109,0.2296,0.261,0.262,0.2571,0.2542,0.2549,0.2513,0.2484,0.2333,0.1858,0.1115,0.0,0.0,0.0753,0.0882,0.1076,0.1315,0.1555,0.1653,0.1643,0.1653,0.1661,0.1592,0.1599,0.1583,0.1596,0.1561,0.1443,0.1272,0.115,0.0967,0.0,0.0,0.0,0.0,0.0,0.0,0.0,0.0,0.0,0.0,0.0,0.1086,0.0,0.0,0.0,0.0,0.3855,0.502,0.612,0.6499,0.0,0.0,0.0,0.0,0.0,0.0,0.0,0.8009,0.8392,0.8729,0.8947,0.8585,0.8418,0.8679,0.8624,0.8587,0.8708,0.0,0.9031,0.9154,0.9342,0.9478,0.9408,0.9499,0.9602,0.9739,1.0054,1.0282,1.0286,1.0514,1.0715,1.0719,1.0719,1.0716,1.0785,1.0593,1.0398,1.0402,1.0456,1.0507,1.0511,1.068,1.0829,0.2095,0.223,0.0888,0.0621,0.1047,0.1063,0.1287,0.1685,0.1736,0.1643,0.143,0.1867,0.1689,0.1065,0.1091,0.0,0.1846,0.1905,0.2215,0.2644,0.2664,0.2708,0.2774,0.2705,0.2684,0.2679,0.269,0.2668,0.2663,0.2422,0.2292,0.2212,0.183,0.1538,0.1301,0.1233,0.1233,0.1306,0.1492,0.1579,0.1599,0.1622,0.1619,0.1592,0.1592,0.1579,0.1577,0.1597,0.1569,0.1489,0.1249,0.1108,0.109,0.0,0.0,0.0,0.0,0.0,0.0,0.0,0.0,0.0,0.0,0.0,0.0,0.0,0.0,0.0,0.366,0.0,0.5353,0.569,0.0,0.0,0.0,0.8329,0.8754,0.8811,0.8844,0.8822,0.0,0.0,0.9148,0.0,0.9349,0.9792,0.9609,0.9392,0.9399,0.9433,0.9512,0.9643,0.9693,0.9641,0.9623,0.9778,1.0048,1.0323,1.0571,1.0713,1.0717,1.0749,1.0741,1.0757,1.0741,1.0813,1.0984,1.0846,1.076,1.0733,1.0732,1.0715,1.0715,1.0802,1.0939,0.2815,0.2803,0.2403,0.2269,0.2371,0.2352,0.24,0.2519,0.2469,0.2431,0.2374,0.2439,0.2453,0.2515,0.2726,0.2886,0.2995,0.3045,0.3177,0.329,0.3345,0.3352,0.339,0.3351,0.3321,0.3279,0.3292,0.3265,0.32,0.3145,0.2871,0.2444,0.2147,0.1768,0.1323,0.1281,0.1289,0.1322,0.1344,0.1459,0.1658,0.1688,0.1641,0.1592,0.1592,0.1588,0.1581,0.1583,0.1578,0.1494,0.1453,0.1325,0.1111,0.0995,0.0,0.0,0.0,0.0,0.0,0.0,0.0,0.0,0.0,0.1392,0.1724,0.0,0.197,0.0,0.4553,0.6034,0.6557,0.7467,0.0,0.0,0.8496,0.8621,0.879,0.9112,0.9268,0.9069,0.9306,0.958,0.9772,0.9934,1.0143,1.0418,0.9857,0.9429,0.9541,0.9747,0.9942,1.0097,1.0296,1.0425,1.0374,1.0564,1.0775,1.096,1.1033,1.1094,1.1098,1.1098,1.1098,1.1066,1.1098,1.109,1.1155,1.1094,1.1066,1.1049,1.0887,1.0719,1.0719,1.0764,1.0793,0.3152,0.3265,0.3197,0.3223,0.3311,0.2975,0.2828,0.2837,0.2782,0.2816,0.2903,0.2997,0.3097,0.3233,0.3396,0.3465,0.3492,0.3523,0.3537,0.354,0.3571,0.3587,0.3587,0.3587,0.357,0.3537,0.3536,0.3548,0.3491,0.3491,0.3314,0.2986,0.2848,0.2497,0.1928,0.1373,0.1069,0.1106,0.1341,0.1696,0.2078,0.2069,0.1918,0.1656,0.1616,0.1488,0.1242,0.1256,0.1213,0.1191,0.1301,0.1239,0.094,0.1104,0.1071,0.0,0.0,0.0,0.0,0.0,0.0,0.0,0.0,0.0,0.0,0.0,0.2179,0.2613,0.467,0.6098,0.6361,0.7817,0.8711,0.8588,0.8852,0.9087,0.9141,0.9452,0.9609,0.9456,0.9737,0.9993,1.0163,1.027,1.0447,1.0676,1.0282,1.0007,1.0085,1.0217,1.0361,1.0484,1.0682,1.0874,1.0911,1.1013,1.111,1.1171,1.1191,1.1191,1.1191,1.1191,1.1191,1.1191,1.1191,1.1281,1.1496,1.1359,1.1244,1.1463,1.1322,1.1177,1.1152,1.1152,1.1163,0.342,0.3675,0.3609,0.3747,0.3933,0.331,0.3035,0.3019,0.2955,0.3068,0.3297,0.3446,0.3507,0.3508,0.3508,0.3537,0.3615,0.3587,0.3587,0.3587,0.3587,0.3587,0.3587,0.3587,0.3587,0.3587,0.3587,0.3587,0.3587,0.3587,0.3562,0.3486,0.3458,0.3179,0.2597,0.1511,0.094,0.0951,0.1454,0.1965,0.2469,0.2351,0.2057,0.16,0.1523,0.1258,0.0826,0.0827,0.0873,0.0858,0.1065,0.1106,0.0882,0.1178,0.1241,0.0,0.1078,0.0,0.0,0.0,0.0,0.0,0.0,0.0,0.0,0.2463,0.2589,0.2786,0.438,0.545,0.5479,0.7367,0.8643,0.8752,0.9237,0.9579,0.9672,0.9831,0.9946,0.9946,1.0109,1.0288,1.0381,1.0422,1.0507,1.0664,1.0685,1.0677,1.0665,1.0708,1.0729,1.0756,1.0911,1.1078,1.1204,1.1252,1.1269,1.1289,1.1292,1.1264,1.1313,1.1338,1.133,1.1359,1.1433,1.1591,1.201,1.1724,1.1591,1.2001,1.1954,1.1793,1.1672,1.1708,1.1805,0.4026,0.4094,0.3993,0.4006,0.4,0.3855,0.3752,0.3699,0.3683,0.3663,0.3617,0.3602,0.3571,0.3571,0.357,0.3604,0.3587,0.3587,0.3587,0.3587,0.3587,0.3587,0.3587,0.3587,0.3587,0.3587,0.3587,0.3587,0.3587,0.3587,0.3358,0.2886,0.2887,0.2582,0.2057,0.0,0.0,0.0,0.1582,0.1808,0.1862,0.1412,0.1127,0.0979,0.0937,0.0,0.0827,0.1066,0.1163,0.1144,0.1169,0.0,0.0,0.0,0.0,0.0,0.0,0.0,0.0,0.0,0.0,0.0,0.2358,0.2382,0.248,0.2716,0.2884,0.2921,0.4183,0.4991,0.4991,0.6876,0.821,0.8407,0.9255,0.9903,1.0068,1.0113,1.0133,1.0137,1.027,1.0369,1.0413,1.0523,1.0651,1.0743,1.0822,1.0874,1.0736,1.085,1.0939,1.0956,1.1098,1.1236,1.1419,1.1443,1.15,1.1626,1.1705,1.1692,1.1706,1.1885,1.2005,1.1996,1.2252,1.2397,1.2534,1.2487,1.2388,1.2538,1.2542,1.234,1.181,1.1918,1.2106,0.42,0.0,0.4131,0.4092,0.0,0.4061,0.4015,0.3924,0.3898,0.3838,0.3748,0.3687,0.3678,0.3703,0.3674,0.3677,0.3706,0.3706,0.3706,0.3706,0.3677,0.3705,0.3706,0.3674,0.3661,0.3632,0.3659,0.3659,0.3662,0.3691,0.3548,0.3226,0.3227,0.3108,0.2857,0.2829,0.2551,0.2032,0.2173,0.2366,0.2608,0.2336,0.2013,0.1695,0.0,0.0,0.0,0.0,0.0,0.0,0.0,0.0,0.0,0.0,0.0,0.2226,0.2419,0.254,0.2701,0.2696,0.275,0.283,0.2879,0.284,0.2709,0.2971,0.3144,0.3117,0.4226,0.5192,0.5768,0.7245,0.8487,0.9183,0.9709,1.0088,1.0178,1.0272,1.0298,1.0314,1.0591,1.0748,1.0752,1.0981,1.1126,1.1162,1.1211,1.1249,1.1181,1.1124,1.1114,1.1212,1.1293,1.1423,1.1589,1.1634,1.1744,1.1924,1.2005,1.2066,1.2216,1.2333,1.2449,1.2449,1.2595,1.2719,1.2904,1.281,1.2749,1.29,1.293,1.2851,1.2494,1.2576,1.2721,0.4228,0.4298,0.4199,0.4149,0.418,0.4164,0.4076,0.4009,0.0,0.0,0.0,0.375,0.3751,0.3794,0.3747,0.3751,0.3798,0.381,0.3809,0.383,0.381,0.3809,0.3795,0.3746,0.3722,0.3724,0.3724,0.3724,0.3725,0.3775,0.3827,0.3827,0.3827,0.3805,0.3814,0.3814,0.3547,0.3013,0.283,0.296,0.3451,0.3292,0.2961,0.2484,0.2415,0.2121,0.1632,0.1686,0.171,0.1705,0.1944,0.2021,0.1856,0.2254,0.2435,0.2322,0.2514,0.2741,0.2961,0.2966,0.3056,0.3216,0.3282,0.3229,0.2983,0.3175,0.3312,0.3338,0.4167,0.5124,0.6104,0.7156,0.8276,0.9515,0.9812,1.0007,1.031,1.0437,1.0562,1.0632,1.0952,1.1181,1.1173,1.14,1.1596,1.16,1.1594,1.1666,1.164,1.1452,1.1421,1.1628,1.1699,1.1731,1.19,1.1971,1.204,1.2234,1.2298,1.2389,1.2629,1.2749,1.2779,1.2779,1.281,1.2994,1.3204,1.3114,1.2964,1.3234,1.3264,1.3299,1.3299,1.3264,1.329,0.43,0.4305,0.4289,0.4256,0.4217,0.4174,0.4138,0.4068,0.3933,0.3916,0.3903,0.3813,0.379,0.3798,0.379,0.3791,0.3802,0.3853,0.385,0.0,0.3853,0.3849,0.3799,0.379,0.3786,0.3786,0.3786,0.3786,0.3787,0.3795,0.3827,0.3829,0.3827,0.3825,0.3873,0.3908,0.3846,0.3726,0.3177,0.2882,0.2895,0.2393,0.2057,0.1914,0.191,0.1825,0.1717,0.1961,0.211,0.2026,0.2051,0.2302,0.2685,0.2526,0.2585,0.3008,0.3151,0.32,0.3245,0.3317,0.3342,0.3388,0.3369,0.3351,0.3251,0.3317,0.3374,0.3399,0.3595,0.3676,0.394,0.5026,0.6305,0.7538,0.8417,0.944,1.0804,1.0985,1.1093,1.137,1.1496,1.1518,1.1541,1.1596,1.165,1.1618,1.1756,1.1854,1.1966,1.1851,1.1894,1.2171,1.2262,1.2374,1.2466,1.2569,1.2535,1.2599,1.262,1.2637,1.2727,1.2937,1.3096,1.3114,1.3329,1.3509,1.3599,1.3599,1.3539,1.3599,1.3599,1.3599,1.3599,1.3599,1.3614,0.4307,0.4307,0.4307,0.4292,0.4263,0.4197,0.4168,0.4165,0.4053,0.3985,0.395,0.3894,0.3867,0.3864,0.3862,0.3867,0.3869,0.3866,0.3865,0.384,0.3866,0.391,0.3907,0.3879,0.3865,0.3864,0.3862,0.3847,0.3851,0.3852,0.3838,0.3868,0.3868,0.3882,0.3907,0.3909,0.391,0.3876,0.3544,0.3381,0.3356,0.3062,0.2882,0.2782,0.2786,0.2742,0.2618,0.2751,0.2848,0.2825,0.2798,0.2921,0.3162,0.3028,0.3043,0.3281,0.3329,0.3344,0.3344,0.3397,0.3386,0.3386,0.3415,0.358,0.3871,0.3628,0.3593,0.3916,0.3974,0.4435,0.536,0.633,0.7404,0.8638,0.9662,1.0608,1.1355,1.1537,1.1592,1.1726,1.1897,1.1935,1.1828,1.1951,1.2032,1.2041,1.2073,1.216,1.2242,1.2187,1.2193,1.2366,1.2492,1.2589,1.2697,1.2685,1.274,1.277,1.2812,1.2896,1.3015,1.3227,1.3333,1.3455,1.3629,1.3688,1.3688,1.3688,1.3688,1.3688,1.3688,1.3688,1.3688,1.3688,1.3688,0.4307,0.4307,0.4307,0.4307,0.4304,0.4258,0.4204,0.4199,0.4153,0.41,0.4039,0.397,0.3938,0.3932,0.3907,0.3913,0.3904,0.3922,0.3959,0.3959,0.3927,0.3974,0.3992,0.394,0.3924,0.393,0.3921,0.393,0.3935,0.3904,0.3896,0.3935,0.3895,0.3895,0.3938,0.3896,0.3919,0.3883,0.3857,0.3803,0.3818,0.382,0.3733,0.3619,0.3608,0.3552,0.3441,0.3431,0.3425,0.3386,0.3386,0.3386,0.3386,0.3386,0.3386,0.3386,0.3424,0.3437,0.3451,0.3628,0.3688,0.3689,0.3867,0.4171,0.4555,0.4252,0.4136,0.4537,0.469,0.5282,0.6389,0.7249,0.8251,0.9392,1.0135,1.0701,1.146,1.1634,1.1745,1.194,1.2191,1.2252,1.216,1.2273,1.2355,1.2355,1.2382,1.2382,1.2382,1.2442,1.2488,1.251,1.2614,1.2749,1.2782,1.2812,1.2842,1.295,1.2965,1.3048,1.3228,1.3315,1.3395,1.3547,1.3608,1.3632,1.367,1.3688,1.3688,1.3688,1.3688,1.3688,1.3688,1.3688,1.3688,0.4307,0.4307,0.4307,0.4307,0.4305,0.43,0.4296,0.4296,0.429,0.4256,0.4155,0.4046,0.3996,0.3988,0.3905,0.3945,0.3999,0.4053,0.4074,0.4073,0.4077,0.4051,0.4012,0.3991,0.3991,0.3996,0.3986,0.3978,0.3981,0.3943,0.3947,0.3984,0.3914,0.3947,0.3985,0.3946,0.392,0.3919,0.3909,0.3877,0.3886,0.3883,0.3824,0.3702,0.3698,0.3613,0.3495,0.3489,0.3465,0.3392,0.3389,0.3388,0.3389,0.3388,0.3414,0.3394,0.3463,0.3512,0.3624,0.4186,0.4557,0.4621,0.5045,0.5364,0.548,0.5423,0.536,0.536,0.5343,0.5461,0.5566,0.5847,0.6576,0.7724,0.8026,0.8401,1.0465,1.0803,1.1211,1.2278,1.2384,1.2378,1.2341,1.2355,1.2382,1.2382,1.2442,1.2405,1.2396,1.2597,1.2696,1.2725,1.2777,1.2843,1.2988,1.3069,1.303,1.3055,1.3064,1.3098,1.3131,1.315,1.3197,1.3448,1.3466,1.3532,1.3636,1.3688,1.3688,1.3688,1.3688,1.3688,1.3688,1.3688,1.3688,0.4307,0.4307,0.4307,0.4307,0.4307,0.4307,0.4307,0.4307,0.4307,0.4293,0.4228,0.4146,0.4091,0.4055,0.4032,0.4035,0.4057,0.4082,0.4093,0.4093,0.4093,0.4131,0.4104,0.4032,0.4038,0.413,0.4039,0.4022,0.4047,0.4034,0.4035,0.4053,0.4032,0.4034,0.4051,0.3999,0.397,0.3968,0.3905,0.3907,0.3917,0.3913,0.3856,0.3776,0.3762,0.3703,0.3565,0.355,0.3538,0.3518,0.3515,0.3531,0.3567,0.3536,0.3548,0.3643,0.3673,0.3839,0.421,0.4557,0.4922,0.524,0.5503,0.5791,0.6167,0.6199,0.6294,0.6541,0.6254,0.6129,0.6468,0.7004,0.757,0.8133,0.8968,1.0032,1.1049,1.1638,1.2164,1.2579,1.2635,1.2573,1.2442,1.2382,1.2382,1.2433,1.2535,1.2583,1.2456,1.263,1.2719,1.2606,1.2573,1.272,1.2999,1.3093,1.3041,1.2951,1.2918,1.2918,1.2928,1.3036,1.3169,1.3343,1.3447,1.3567,1.3699,1.3718,1.3688,1.3688,1.3688,1.3688,1.3688,1.3688,1.3688,0.4333,0.433,0.4315,0.4307,0.4307,0.4307,0.4307,0.4307,0.4307,0.4307,0.4303,0.426,0.4218,0.4143,0.4109,0.41,0.4116,0.4118,0.4128,0.417,0.4127,0.4142,0.4203,0.4099,0.4099,0.4158,0.4097,0.4068,0.4093,0.4093,0.4101,0.4145,0.4101,0.4134,0.4111,0.4058,0.4028,0.4024,0.3986,0.3959,0.3945,0.3942,0.3885,0.3838,0.3824,0.3766,0.3647,0.364,0.3632,0.3587,0.3587,0.3636,0.3677,0.3655,0.3745,0.4017,0.4033,0.4327,0.4912,0.5197,0.5536,0.5947,0.6124,0.6421,0.6803,0.6889,0.7097,0.7415,0.7079,0.697,0.7331,0.7961,0.8447,0.8812,1.0001,1.0834,1.1481,1.2102,1.2418,1.2631,1.2639,1.2625,1.2424,1.2382,1.2382,1.2428,1.2621,1.2719,1.2499,1.2611,1.2696,1.2456,1.2418,1.2532,1.2833,1.2862,1.2842,1.2776,1.2673,1.2673,1.2677,1.2819,1.3051,1.3154,1.3425,1.3614,1.3695,1.3688,1.3688,1.3688,1.3688,1.3688,1.3688,1.3688,1.3688,0.4395,0.4383,0.4331,0.4307,0.4307,0.4307,0.4307,0.4307,0.4307,0.4307,0.4307,0.4303,0.43,0.4285,0.4183,0.4159,0.4174,0.418,0.424,0.4281,0.4237,0.4214,0.4217,0.421,0.4211,0.4222,0.4203,0.4142,0.4103,0.4099,0.4123,0.4209,0.413,0.4127,0.4196,0.412,0.4089,0.4088,0.4074,0.4053,0.4005,0.3999,0.3973,0.3908,0.3916,0.3824,0.372,0.3702,0.3676,0.359,0.3589,0.359,0.3598,0.3674,0.3992,0.455,0.465,0.4974,0.5636,0.6236,0.6674,0.6794,0.7182,0.7573,0.7543,0.7573,0.7603,0.7693,0.7587,0.7568,0.7511,0.7633,0.8061,0.8868,0.91,0.9964,1.127,1.1632,1.1789,1.227,1.2456,1.2447,1.2387,1.2382,1.2382,1.2447,1.2625,1.2682,1.2503,1.2625,1.2649,1.2484,1.2382,1.2396,1.2447,1.2536,1.2508,1.2475,1.2499,1.2456,1.2405,1.2457,1.2753,1.2994,1.3183,1.3392,1.3619,1.3688,1.3688,1.3688,1.3688,1.3688,1.3688,1.3688,1.3688,0.4375,0.4339,0.4316,0.4307,0.4307,0.4307,0.4307,0.4307,0.4307,0.4307,0.4307,0.4307,0.4307,0.4305,0.4263,0.4255,0.4274,0.4275,0.4286,0.4304,0.4285,0.4275,0.427,0.4237,0.424,0.4266,0.4203,0.4226,0.421,0.4243,0.4252,0.4268,0.4253,0.4255,0.426,0.4214,0.4151,0.4143,0.4078,0.4042,0.4055,0.4023,0.3999,0.4026,0.3949,0.3851,0.3768,0.3728,0.3696,0.3674,0.3637,0.3605,0.3703,0.4077,0.4619,0.5176,0.5315,0.5666,0.6378,0.6721,0.7049,0.7476,0.7688,0.7804,0.7812,0.7842,0.784,0.784,0.7837,0.7812,0.7744,0.7682,0.8015,0.8957,0.9624,1.0288,1.1318,1.1961,1.234,1.2384,1.2382,1.2382,1.2382,1.2387,1.2382,1.2405,1.263,1.2658,1.2517,1.2625,1.2691,1.248,1.2382,1.2382,1.2382,1.2391,1.2387,1.2387,1.2391,1.2433,1.2423,1.2532,1.2809,1.3065,1.3174,1.334,1.3628,1.3688,1.3688,1.3688,1.3688,1.3688,1.3688,1.3688,1.3688,0.4386,0.436,0.4323,0.4307,0.4307,0.4307,0.4307,0.4307,0.4307,0.4307,0.4307,0.4307,0.4307,0.4307,0.4307,0.4307,0.4307,0.4307,0.4307,0.4307,0.4307,0.4307,0.4301,0.4266,0.4232,0.4264,0.4266,0.4268,0.4303,0.4307,0.4307,0.4305,0.4307,0.4307,0.43,0.4266,0.4247,0.4195,0.4131,0.4105,0.4115,0.4064,0.4039,0.4043,0.3978,0.3919,0.383,0.3788,0.3744,0.3765,0.3848,0.4032,0.4306,0.4698,0.5249,0.5863,0.5983,0.639,0.7085,0.7225,0.7439,0.7839,0.79,0.7903,0.7903,0.7903,0.7903,0.7903,0.7903,0.7903,0.7889,0.7829,0.8159,0.9049,0.974,1.0358,1.1048,1.1848,1.2252,1.2379,1.2382,1.2382,1.2396,1.248,1.2517,1.2545,1.2729,1.2781,1.2706,1.2687,1.2729,1.2578,1.2559,1.2489,1.248,1.2489,1.2456,1.2451,1.2414,1.2423,1.248,1.263,1.2828,1.3089,1.3287,1.3448,1.3586,1.3655,1.3688,1.3688,1.3688,1.3688,1.3688,1.3688,1.3688,0.4425,0.4446,0.4356,0.4307,0.4307,0.4307,0.4307,0.4307,0.4307,0.4307,0.4307,0.4307,0.4307,0.4307,0.4307,0.4307,0.4307,0.4307,0.4307,0.4307,0.4307,0.4307,0.4305,0.4301,0.4298,0.4307,0.4305,0.4304,0.4307,0.4307,0.4307,0.4307,0.4307,0.4307,0.4307,0.4301,0.4303,0.4361,0.4378,0.4359,0.4218,0.4313,0.429,0.4185,0.4163,0.4156,0.4041,0.397,0.3938,0.3925,0.4346,0.4881,0.5337,0.5488,0.5878,0.6528,0.6667,0.708,0.7728,0.7792,0.777,0.7881,0.7892,0.7883,0.7878,0.7894,0.7903,0.7903,0.7903,0.7903,0.7903,0.7892,0.8239,0.9036,0.9327,0.9628,1.0221,1.0908,1.1659,1.216,1.2332,1.2382,1.2456,1.2606,1.2738,1.2785,1.2928,1.3046,1.2989,1.2909,1.2819,1.2795,1.2752,1.2654,1.2625,1.2602,1.2559,1.2494,1.2447,1.2428,1.2513,1.2649,1.2814,1.3041,1.3141,1.3306,1.3614,1.367,1.366,1.366,1.3674,1.3688,1.3688,1.3688,1.3688,0.4346,0.4358,0.4324,0.4307,0.4307,0.4307,0.4307,0.4307,0.4307,0.4307,0.4307,0.4307,0.4307,0.4307,0.4307,0.4307,0.4307,0.4307,0.4307,0.4307,0.4307,0.4307,0.4307,0.4307,0.4307,0.4307,0.4307,0.4307,0.4307,0.4307,0.4307,0.4307,0.4307,0.4307,0.434,0.4307,0.4508,0.5005,0.4996,0.5213,0.5625,0.5577,0.5551,0.5577,0.5499,0.5398,0.5322,0.4864,0.4579,0.449,0.5035,0.5602,0.6009,0.6106,0.6486,0.7128,0.7169,0.7321,0.7776,0.7731,0.7684,0.7736,0.7758,0.7755,0.7766,0.7862,0.79,0.7903,0.7903,0.7903,0.7903,0.7903,0.8276,0.915,0.9268,0.948,1.0164,1.085,1.1325,1.1549,1.2032,1.2359,1.2456,1.2644,1.2828,1.2842,1.2989,1.3107,1.3093,1.3051,1.3008,1.2999,1.2918,1.2861,1.2852,1.28,1.2743,1.2644,1.2554,1.2517,1.2592,1.2621,1.2767,1.2951,1.3046,1.324,1.3548,1.3646,1.3636,1.3655,1.3684,1.3688,1.3688,1.3688,1.3688,0.4341,0.4339,0.4318,0.4307,0.4307,0.4307,0.4307,0.4307,0.4307,0.4307,0.4307,0.4307,0.4307,0.4307,0.4307,0.4307,0.4307,0.4307,0.4307,0.4307,0.4307,0.4307,0.4307,0.4307,0.4307,0.4307,0.4307,0.4307,0.4307,0.4307,0.4307,0.4307,0.4575,0.471,0.4743,0.4978,0.5347,0.5707,0.5734,0.5931,0.6279,0.6306,0.6273,0.6255,0.6176,0.6087,0.5973,0.5747,0.5548,0.5382,0.5831,0.6337,0.676,0.6832,0.7033,0.7364,0.7443,0.7503,0.7755,0.7722,0.7655,0.7703,0.7739,0.7741,0.7736,0.7837,0.79,0.7903,0.7903,0.7903,0.7903,0.7903,0.8208,0.8696,0.8702,0.9047,0.9742,1.0154,1.0719,1.1119,1.1769,1.2224,1.2599,1.2852,1.3018,1.3046,1.3131,1.324,1.3225,1.3188,1.3169,1.3169,1.3131,1.3112,1.3079,1.3032,1.297,1.2828,1.2658,1.2635,1.2654,1.2587,1.2644,1.2899,1.3036,1.3254,1.3509,1.3614,1.3638,1.3676,1.3688,1.3688,1.3688,1.3688,1.3688,0.4398,0.4391,0.4334,0.4307,0.4307,0.4307,0.4307,0.4307,0.4307,0.4307,0.4307,0.4307,0.4307,0.4307,0.4307,0.4307,0.4307,0.4307,0.4307,0.4307,0.4307,0.4307,0.4307,0.4307,0.4307,0.4307,0.4307,0.4307,0.4307,0.4307,0.4307,0.4374,0.4945,0.5381,0.5414,0.6018,0.6319,0.6449,0.6445,0.6514,0.6646,0.659,0.6573,0.6464,0.6464,0.6376,0.6348,0.6667,0.6667,0.6201,0.6683,0.7127,0.7461,0.7522,0.7549,0.7573,0.754,0.7597,0.7709,0.7747,0.7766,0.7712,0.7774,0.7851,0.7733,0.7804,0.7903,0.7903,0.7903,0.7903,0.7903,0.7903,0.7933,0.7889,0.7986,0.823,0.8651,0.8816,0.9688,1.1016,1.1585,1.1987,1.287,1.3197,1.331,1.3348,1.3362,1.3471,1.3509,1.3434,1.3302,1.3302,1.3325,1.3254,1.3221,1.3117,1.3041,1.2857,1.272,1.2743,1.2757,1.2668,1.2772,1.2999,1.3065,1.3258,1.3433,1.3532,1.3643,1.3695,1.3718,1.3688,1.3688,1.3688,1.3688,0.4398,0.4391,0.4334,0.4307,0.4307,0.4307,0.4307,0.4307,0.4307,0.4307,0.4307,0.4307,0.4307,0.4307,0.4307,0.4307,0.4307,0.4307,0.4307,0.4307,0.4307,0.4307,0.4307,0.4307,0.4307,0.4307,0.4307,0.4307,0.4307,0.4307,0.4307,0.434,0.508,0.5448,0.5515,0.6118,0.6684,0.7149,0.7216,0.7486,0.7872,0.7853,0.785,0.7809,0.763,0.7553,0.75,0.7606,0.7647,0.7575,0.7718,0.7851,0.791,0.7924,0.7883,0.7802,0.7703,0.7706,0.7804,0.7706,0.7655,0.7698,0.7758,0.7763,0.7714,0.7837,0.7892,0.7903,0.7903,0.7903,0.7903,0.7897,0.7897,0.7897,0.7856,0.7886,0.8087,0.8594,0.9401,1.0464,1.1183,1.1998,1.2771,1.3268,1.3405,1.3429,1.3509,1.3633,1.3622,1.3622,1.351,1.348,1.349,1.3395,1.3325,1.3192,1.3051,1.2871,1.279,1.28,1.2842,1.2871,1.3131,1.3434,1.3197,1.3263,1.3424,1.3556,1.3618,1.3709,1.3718,1.3688,1.3688,1.3688,1.3688,0.4443,0.4395,0.436,0.433,0.4308,0.4307,0.4307,0.4307,0.4307,0.4307,0.4307,0.4307,0.4307,0.4307,0.4307,0.4307,0.4307,0.4307,0.4307,0.4307,0.4307,0.4307,0.4307,0.4307,0.4307,0.4307,0.4307,0.4307,0.4307,0.4307,0.4307,0.4508,0.5347,0.5817,0.5917,0.6853,0.7486,0.7884,0.7982,0.8184,0.8545,0.8524,0.8429,0.838,0.8266,0.8208,0.8102,0.8032,0.8053,0.8058,0.8125,0.8147,0.8107,0.8137,0.807,0.7987,0.7913,0.7913,0.7938,0.7842,0.7815,0.7867,0.7881,0.7848,0.7842,0.7908,0.7973,0.7911,0.7903,0.7903,0.7892,0.7831,0.7826,0.7883,0.7859,0.7796,0.7796,0.8169,0.8885,0.9768,1.0708,1.1619,1.2586,1.3144,1.3436,1.3537,1.3638,1.369,1.3684,1.3688,1.3684,1.3636,1.3613,1.3532,1.3505,1.3386,1.324,1.3051,1.2989,1.2975,1.2946,1.3018,1.3188,1.3377,1.3283,1.3283,1.3424,1.3561,1.3632,1.3674,1.3684,1.3688,1.3688,1.3688,1.3688,0.453,0.4398,0.4392,0.4357,0.4311,0.4307,0.4307,0.4307,0.4307,0.4307,0.4307,0.4307,0.4307,0.4307,0.4307,0.4307,0.4307,0.4307,0.4307,0.4307,0.4307,0.4307,0.4307,0.4307,0.4307,0.4307,0.4307,0.4307,0.4307,0.4307,0.4374,0.4777,0.5783,0.6384,0.6719,0.7817,0.8487,0.8487,0.8487,0.8487,0.8587,0.8604,0.853,0.8462,0.8407,0.8277,0.816,0.813,0.8106,0.7933,0.8091,0.8198,0.8162,0.8212,0.8209,0.8133,0.8129,0.8121,0.8104,0.8085,0.8085,0.8088,0.8094,0.805,0.7973,0.8012,0.8023,0.7911,0.7903,0.7903,0.7892,0.7785,0.7821,0.7872,0.7785,0.7812,0.7853,0.781,0.8116,0.9112,1.0151,1.0997,1.2053,1.29,1.3559,1.3608,1.3699,1.3709,1.3688,1.3688,1.3688,1.3679,1.3665,1.3665,1.3632,1.3599,1.3433,1.3263,1.3244,1.3206,1.3074,1.3131,1.3174,1.3245,1.3382,1.3414,1.3462,1.3566,1.3646,1.3674,1.3688,1.3688,1.3688,1.3688,1.3688,0.4422,0.4395,0.4346,0.4319,0.4308,0.4307,0.4307,0.4307,0.4307,0.4307,0.4307,0.4307,0.4307,0.4307,0.4307,0.4307,0.4307,0.4307,0.4307,0.4307,0.4307,0.4308,0.4309,0.4312,0.4309,0.4308,0.4307,0.4307,0.4307,0.4407,0.4609,0.5247,0.5982,0.6686,0.7316,0.8051,0.862,0.862,0.862,0.862,0.862,0.862,0.8607,0.8535,0.8467,0.835,0.8214,0.8127,0.8099,0.8118,0.8225,0.831,0.8329,0.8424,0.8429,0.8356,0.8326,0.8296,0.822,0.8201,0.8198,0.8177,0.8195,0.8144,0.8064,0.8069,0.8031,0.7933,0.7903,0.7903,0.7897,0.7881,0.787,0.7878,0.7867,0.7851,0.7886,0.7872,0.8249,0.8943,0.9476,1.027,1.1868,1.2169,1.281,1.3444,1.3658,1.3688,1.3658,1.3599,1.3688,1.3688,1.3688,1.3674,1.3622,1.3603,1.3553,1.3433,1.3438,1.3443,1.331,1.3301,1.3406,1.3505,1.3589,1.3613,1.3566,1.3599,1.3684,1.3688,1.3688,1.3688,1.3688,1.3688,1.3688,0.4422,0.4395,0.4364,0.4334,0.4309,0.4307,0.4307,0.4307,0.4307,0.4307,0.4307,0.4307,0.4307,0.4307,0.4307,0.4307,0.4307,0.4307,0.4307,0.4315,0.4333,0.435,0.435,0.4346,0.4339,0.4313,0.4307,0.4307,0.4374,0.4642,0.5045,0.548,0.6382,0.7083,0.7548,0.8218,0.8554,0.862,0.862,0.862,0.862,0.862,0.862,0.8584,0.8524,0.844,0.8323,0.8269,0.8201,0.8201,0.8312,0.8356,0.8342,0.8494,0.8543,0.8513,0.8497,0.8475,0.841,0.8323,0.8313,0.8391,0.8353,0.8223,0.8176,0.8138,0.8077,0.7954,0.7903,0.7903,0.79,0.7837,0.7815,0.7883,0.7853,0.7774,0.7733,0.7785,0.7925,0.8528,0.8948,0.9606,1.0467,1.1196,1.1661,1.2148,1.2784,1.2874,1.3114,1.3144,1.3599,1.3688,1.3688,1.3665,1.3599,1.3605,1.36,1.3572,1.3561,1.36,1.3553,1.36,1.3651,1.3684,1.3674,1.3679,1.3651,1.3688,1.3688,1.3688,1.3688,1.3688,1.3693,1.3703,1.3698,0.4471,0.4384,0.4384,0.4354,0.4311,0.4307,0.4307,0.4307,0.4307,0.4307,0.4307,0.4307,0.4307,0.4307,0.4307,0.4307,0.4307,0.4307,0.4307,0.4312,0.4346,0.436,0.4367,0.4362,0.4348,0.4309,0.4307,0.434,0.4676,0.5077,0.5513,0.5915,0.6849,0.7514,0.7815,0.8218,0.862,0.862,0.862,0.862,0.862,0.862,0.862,0.8584,0.8576,0.8535,0.8451,0.8369,0.8359,0.8248,0.8331,0.8321,0.835,0.8451,0.862,0.8617,0.8607,0.856,0.8538,0.8494,0.8481,0.8615,0.8503,0.8359,0.8264,0.8215,0.8138,0.8023,0.7927,0.7903,0.7894,0.7815,0.7832,0.7862,0.7782,0.7687,0.7619,0.7655,0.775,0.7817,0.8325,0.8962,0.9523,1.0157,1.0491,1.088,1.1545,1.2057,1.2268,1.2539,1.2844,1.3204,1.3144,1.3539,1.3572,1.3613,1.3633,1.3638,1.3641,1.368,1.369,1.3704,1.3688,1.3688,1.3688,1.3688,1.3688,1.3688,1.3688,1.3688,1.3688,1.3688,1.3703,1.3717,1.3736,0.4376,0.4322,0.4323,0.4316,0.4308,0.4307,0.4307,0.4307,0.4307,0.4307,0.4307,0.4307,0.4307,0.4307,0.4307,0.4307,0.4307,0.4307,0.4307,0.4308,0.4331,0.4338,0.4342,0.4346,0.4296,0.4311,0.4344,0.4584,0.5052,0.5379,0.6146,0.696,0.7424,0.7794,0.8267,0.8554,0.862,0.862,0.862,0.862,0.862,0.862,0.862,0.862,0.862,0.8573,0.8541,0.8434,0.8375,0.8391,0.8378,0.8407,0.8383,0.8519,0.8579,0.862,0.862,0.862,0.8579,0.8571,0.8596,0.8612,0.856,0.8497,0.838,0.8372,0.825,0.8115,0.7976,0.7916,0.7903,0.7892,0.7883,0.7897,0.7881,0.7812,0.781,0.7744,0.7679,0.7651,0.7963,0.8259,0.8789,0.9268,0.9616,1.0031,1.0607,1.0967,1.1118,1.139,1.1696,1.2057,1.2389,1.2994,1.3495,1.361,1.3665,1.3655,1.367,1.367,1.3709,1.3684,1.3688,1.3688,1.3688,1.3688,1.3688,1.3688,1.3688,1.3688,1.3688,1.3688,1.3707,1.3736,1.3868,0.4335,0.4307,0.4307,0.4307,0.4307,0.4307,0.4307,0.4307,0.4307,0.4307,0.4307,0.4307,0.4307,0.4307,0.4307,0.4307,0.4308,0.4307,0.4307,0.4311,0.4337,0.4354,0.435,0.435,0.4375,0.4382,0.4408,0.4759,0.5542,0.6403,0.6949,0.7533,0.7972,0.8376,0.8593,0.8619,0.8595,0.862,0.862,0.862,0.862,0.862,0.862,0.862,0.862,0.862,0.8609,0.8546,0.8508,0.8505,0.8505,0.8505,0.8519,0.8543,0.862,0.862,0.862,0.862,0.862,0.862,0.8617,0.862,0.862,0.8532,0.8454,0.8364,0.8302,0.8193,0.8117,0.806,0.807,0.8033,0.8003,0.7984,0.7949,0.7889,0.7842,0.7796,0.7736,0.7628,0.7817,0.8017,0.8143,0.8557,0.8827,0.9241,0.9731,0.991,1.0031,1.0331,1.0664,1.1209,1.1696,1.2268,1.287,1.3114,1.3389,1.3479,1.3569,1.3569,1.3688,1.3688,1.3688,1.3688,1.3688,1.3688,1.3688,1.3688,1.3688,1.3688,1.3688,1.3693,1.3712,1.3773,1.391,0.4319,0.4307,0.4307,0.4307,0.4307,0.4307,0.4307,0.4307,0.4307,0.4307,0.4307,0.4307,0.4307,0.4307,0.4309,0.4313,0.4322,0.4318,0.4315,0.4335,0.4352,0.4375,0.4377,0.4387,0.4395,0.4458,0.4744,0.4962,0.5691,0.6733,0.7527,0.7927,0.8418,0.8784,0.8738,0.8625,0.8628,0.862,0.862,0.862,0.862,0.862,0.862,0.862,0.862,0.862,0.8617,0.8612,0.8573,0.8573,0.8612,0.8615,0.8617,0.862,0.862,0.862,0.862,0.862,0.862,0.862,0.862,0.862,0.862,0.8535,0.8481,0.8437,0.8345,0.8258,0.8199,0.818,0.8185,0.8141,0.8132,0.8107,0.8039,0.796,0.7913,0.791,0.794,0.7875,0.7787,0.7881,0.8083,0.806,0.8394,0.8499,0.8958,0.897,0.9089,0.9454,0.9846,1.0482,1.1027,1.1575,1.2027,1.2328,1.2659,1.2994,1.3114,1.3174,1.3449,1.3688,1.3658,1.3599,1.3688,1.3688,1.3688,1.3688,1.3688,1.3688,1.3688,1.3693,1.3707,1.3807,1.3948,0.4356,0.4307,0.4307,0.4307,0.4307,0.4307,0.4273,0.4239,0.4206,0.4307,0.4037,0.4239,0.4206,0.4171,0.4137,0.4235,0.4285,0.4171,0.4232,0.4324,0.4348,0.4335,0.4323,0.4319,0.4373,0.45,0.5017,0.5446,0.5777,0.6454,0.7213,0.7748,0.8351,0.8734,0.869,0.8675,0.8623,0.8623,0.8626,0.8626,0.862,0.862,0.862,0.862,0.862,0.862,0.862,0.862,0.862,0.862,0.862,0.862,0.862,0.862,0.862,0.862,0.862,0.862,0.862,0.862,0.862,0.862,0.862,0.8579,0.8541,0.8478,0.8426,0.8402,0.8285,0.8239,0.8245,0.8199,0.8183,0.8172,0.8137,0.8152,0.8138,0.8092,0.8114,0.8074,0.8023,0.804,0.8153,0.8029,0.796,0.803,0.8108,0.8158,0.8275,0.8674,0.8906,0.9511,1.021,1.0789,1.1152,1.1454,1.1877,1.2328,1.2453,1.2599,1.2749,1.2964,1.3449,1.3419,1.3509,1.3629,1.3688,1.3688,1.3688,1.3726,1.3773,1.374,1.3693,1.383,1.4029,0.4331,0.4307,0.4307,0.4307,0.4307,0.4307,0.3936,0.3463,0.3396,0.3059,0.2722,0.316,0.3396,0.3329,0.2824,0.2833,0.3324,0.3465,0.3838,0.4258,0.4315,0.4338,0.4324,0.4345,0.4391,0.4551,0.4785,0.4916,0.5387,0.6256,0.7196,0.7783,0.8189,0.8545,0.8696,0.8717,0.8732,0.8727,0.8721,0.8655,0.8639,0.862,0.862,0.862,0.862,0.862,0.862,0.862,0.862,0.862,0.862,0.862,0.862,0.862,0.862,0.862,0.862,0.862,0.862,0.862,0.862,0.862,0.862,0.8584,0.8573,0.8543,0.8508,0.8511,0.8467,0.8432,0.8405,0.834,0.8315,0.8296,0.8267,0.8237,0.8245,0.8288,0.8277,0.8269,0.8256,0.8263,0.8233,0.8168,0.8095,0.8118,0.8122,0.8107,0.8094,0.8186,0.835,0.8449,0.918,0.9913,1.0243,1.0577,1.1001,1.1394,1.1402,1.1553,1.1696,1.1997,1.2487,1.278,1.2733,1.3003,1.3458,1.3717,1.3745,1.3807,1.3877,1.3873,1.3882,1.4038,1.4241,0.4307,0.4307,0.4307,0.4307,0.4273,0.4037,0.3463,0.2756,0.242,0.1848,0.1478,0.1949,0.2318,0.2184,0.1647,0.1719,0.2335,0.2622,0.3198,0.3773,0.4217,0.4354,0.4353,0.4382,0.4433,0.4539,0.4647,0.4703,0.5073,0.5779,0.6701,0.7742,0.7955,0.8318,0.8705,0.8845,0.8815,0.8812,0.8774,0.8754,0.8688,0.8603,0.8592,0.862,0.862,0.862,0.862,0.862,0.862,0.862,0.862,0.862,0.862,0.862,0.862,0.862,0.862,0.862,0.862,0.862,0.862,0.862,0.862,0.862,0.862,0.862,0.862,0.8573,0.8568,0.8568,0.8568,0.8497,0.8475,0.8435,0.8361,0.8318,0.8331,0.8397,0.8443,0.8437,0.8432,0.8446,0.841,0.8367,0.8315,0.8231,0.8179,0.8102,0.8031,0.7979,0.8008,0.8136,0.8405,0.9047,0.9193,0.9585,1.0068,1.0424,1.0461,1.0727,1.0997,1.1195,1.1558,1.174,1.1868,1.2081,1.2405,1.3108,1.3811,1.3901,1.3991,1.4062,1.4133,1.4279,1.4402,0.4307,0.4307,0.4307,0.4307,0.4239,0.3227,0.2789,0.2454,0.1613,0.1143,0.0975,0.1109,0.1075,0.1109,0.0942,0.0913,0.1334,0.2268,0.2612,0.3093,0.377,0.4117,0.4202,0.4271,0.4493,0.4582,0.4619,0.4653,0.4723,0.4956,0.5858,0.6765,0.7529,0.8194,0.8636,0.8817,0.8887,0.8865,0.884,0.8814,0.8748,0.8686,0.8623,0.862,0.862,0.862,0.862,0.862,0.862,0.862,0.862,0.862,0.862,0.862,0.862,0.862,0.862,0.862,0.862,0.862,0.862,0.862,0.862,0.862,0.862,0.862,0.862,0.862,0.862,0.862,0.8617,0.8609,0.8549,0.853,0.8494,0.8489,0.8475,0.85,0.8543,0.856,0.8554,0.8538,0.8535,0.8478,0.8446,0.8397,0.8263,0.8181,0.8069,0.8009,0.7976,0.8013,0.7971,0.815,0.8144,0.8518,0.9072,0.9411,0.9523,1.0019,1.0549,1.0687,1.0457,1.0909,1.1099,1.1218,1.151,1.2405,1.3181,1.3785,1.4118,1.426,1.4323,1.4432,1.4517,0.4307,0.4307,0.4307,0.4307,0.4239,0.316,0.2318,0.1613,0.0605,0.0135,0.0067,-0.0538,-0.0538,-0.0202,-0.0639,-0.0506,0.0102,0.0511,0.1156,0.1971,0.2753,0.3313,0.3577,0.4132,0.453,0.4604,0.4644,0.467,0.4696,0.4701,0.5637,0.6621,0.7181,0.7723,0.8187,0.8804,0.8944,0.893,0.8873,0.8856,0.8781,0.8691,0.862,0.862,0.862,0.862,0.862,0.862,0.862,0.862,0.862,0.862,0.862,0.862,0.862,0.862,0.862,0.862,0.862,0.862,0.862,0.862,0.862,0.862,0.862,0.862,0.862,0.862,0.862,0.862,0.862,0.862,0.8612,0.862,0.862,0.862,0.862,0.862,0.862,0.8576,0.8579,0.8573,0.8609,0.8607,0.8552,0.8516,0.8369,0.8263,0.8119,0.8051,0.8035,0.803,0.8027,0.8043,0.8043,0.8123,0.8169,0.8443,0.8756,0.9208,0.9689,0.9232,0.9156,0.9719,1.0302,1.0468,1.0932,1.1826,1.2522,1.3101,1.3839,1.4512,1.4583,1.4519,1.4575,0.4307,0.4307,0.4307,0.4307,0.4171,0.316,0.2083,0.1008,0.0,-0.0741,-0.1043,-0.1818,-0.1818,-0.1414,-0.1683,-0.1784,-0.0981,-0.0511,0.0,0.0922,0.199,0.2628,0.3203,0.3826,0.4545,0.4635,0.4671,0.4701,0.47,0.4701,0.5242,0.5967,0.662,0.7212,0.8363,0.8773,0.9065,0.9033,0.8976,0.8941,0.8872,0.8765,0.8686,0.8672,0.865,0.862,0.862,0.862,0.862,0.862,0.862,0.862,0.862,0.862,0.862,0.862,0.862,0.862,0.862,0.862,0.862,0.862,0.862,0.862,0.862,0.862,0.862,0.862,0.862,0.862,0.862,0.862,0.862,0.862,0.862,0.862,0.862,0.862,0.862,0.8617,0.862,0.862,0.862,0.8615,0.8543,0.8513,0.8424,0.8301,0.8209,0.8166,0.8176,0.8176,0.8147,0.8169,0.8191,0.82,0.8222,0.8247,0.8473,0.8425,0.8587,0.8248,0.8353,0.9048,0.9528,0.9732,1.018,1.0772,1.1552,1.2375,1.3053,1.3667,1.4086,1.4003,1.4355,0.4307,0.4307,0.4307,0.4307,0.4171,0.316,0.2117,0.1176,0.0,-0.1077,-0.1919,-0.2188,-0.2188,-0.202,-0.2155,-0.202,-0.1823,-0.1092,-0.0652,-0.0137,0.1213,0.2286,0.305,0.3638,0.437,0.4646,0.4701,0.4701,0.4701,0.4701,0.4883,0.5283,0.6039,0.7024,0.8827,0.903,0.9155,0.9258,0.9169,0.9073,0.9038,0.887,0.8817,0.8751,0.8697,0.8625,0.8623,0.862,0.862,0.862,0.862,0.862,0.862,0.862,0.862,0.862,0.862,0.862,0.862,0.862,0.862,0.862,0.862,0.862,0.862,0.862,0.862,0.862,0.862,0.862,0.862,0.862,0.862,0.862,0.862,0.862,0.862,0.862,0.862,0.862,0.862,0.862,0.862,0.8576,0.8527,0.8451,0.8405,0.834,0.8269,0.8269,0.8326,0.8299,0.8307,0.8307,0.831,0.8242,0.8244,0.8239,0.8267,0.8307,0.838,0.8405,0.8522,0.869,0.8857,0.9145,0.9312,0.9528,1.03,1.1033,1.1778,1.2414,1.2968,1.339,1.36,0.4307,0.4307,0.4307,0.4307,0.4137,0.316,0.2454,0.1882,0.0336,-0.1144,-0.202,-0.2188,-0.2188,-0.2188,-0.2188,-0.2189,-0.2093,-0.2048,-0.1649,-0.1412,0.0035,0.0917,0.1817,0.2903,0.3853,0.4505,0.4701,0.4701,0.4701,0.4701,0.5064,0.5463,0.5934,0.7227,0.8102,0.8488,0.866,0.9167,0.9198,0.9092,0.9079,0.8941,0.8856,0.8822,0.8736,0.8677,0.8606,0.8637,0.8598,0.8623,0.862,0.862,0.862,0.862,0.862,0.862,0.862,0.862,0.862,0.862,0.862,0.862,0.862,0.862,0.862,0.862,0.862,0.862,0.862,0.862,0.862,0.862,0.862,0.862,0.862,0.862,0.862,0.862,0.862,0.862,0.862,0.862,0.862,0.862,0.8549,0.8535,0.8505,0.8508,0.8462,0.8475,0.85,0.85,0.85,0.8486,0.8459,0.8394,0.8388,0.8426,0.8424,0.8394,0.8467,0.85,0.856,0.8659,0.8615,0.8574,0.8831,0.9081,0.9102,0.9621,1.0528,1.1362,1.2022,1.2318,1.2368,0.3733,0.3699,0.3329,0.3193,0.3193,0.3228,0.2891,0.195,0.0269,-0.1144,-0.202,-0.2188,-0.2188,-0.2188,-0.2188,-0.2188,-0.2192,-0.2198,-0.2181,-0.2048,-0.1058,-0.0143,0.0826,0.2086,0.3218,0.4039,0.4556,0.4701,0.4701,0.4701,0.4918,0.5354,0.5972,0.6404,0.7087,0.7521,0.8063,0.8562,0.8691,0.888,0.8988,0.9046,0.8946,0.8918,0.8853,0.878,0.869,0.8644,0.863,0.8642,0.8626,0.8623,0.859,0.8623,0.8623,0.862,0.862,0.862,0.862,0.862,0.862,0.862,0.862,0.862,0.862,0.862,0.862,0.862,0.862,0.862,0.862,0.862,0.862,0.862,0.862,0.862,0.862,0.862,0.862,0.862,0.862,0.862,0.862,0.862,0.8576,0.8579,0.8615,0.862,0.862,0.862,0.862,0.8581,0.8579,0.8552,0.8532,0.8511,0.8522,0.8609,0.8549,0.8505,0.8527,0.8554,0.8573,0.862,0.8573,0.8565,0.8576,0.8715,0.8842,0.9072,0.9576,1.0373,1.1097,1.1263,1.1263,0.2689,0.2487,0.1545,0.1209,0.1478,0.3093,0.2858,0.1042,-0.0034,-0.1144,-0.2188,-0.2188,-0.2188,-0.2188,-0.2188,-0.2188,-0.2197,-0.2213,-0.2197,-0.2007,-0.1321,-0.0794,0.0181,0.1635,0.2653,0.3311,0.3971,0.4701,0.4701,0.4701,0.4738,0.4773,0.5029,0.5463,0.6008,0.6478,0.7204,0.7808,0.8271,0.8542,0.8845,0.9083,0.9084,0.9022,0.896,0.8862,0.881,0.8787,0.874,0.8697,0.8647,0.8603,0.8598,0.8595,0.8595,0.8631,0.8639,0.8645,0.865,0.8656,0.8595,0.8595,0.862,0.862,0.862,0.862,0.862,0.862,0.862,0.862,0.862,0.862,0.862,0.862,0.862,0.862,0.862,0.862,0.862,0.862,0.862,0.862,0.862,0.862,0.862,0.862,0.862,0.862,0.862,0.862,0.862,0.862,0.8584,0.862,0.8573,0.8557,0.8562,0.862,0.862,0.856,0.8617,0.862,0.862,0.862,0.862,0.862,0.862,0.862,0.862,0.8884,0.915,0.938,1.0074,1.014,1.0263,0.2251,0.1545,0.1209,0.1109,0.1176,0.1747,0.121,0.0,-0.0437,-0.1144,-0.2188,-0.2188,-0.2188,-0.2188,-0.2188,-0.2188,-0.2204,-0.2193,-0.2189,-0.2008,-0.1789,-0.1264,-0.0327,0.0947,0.2003,0.3059,0.3935,0.4701,0.4701,0.4701,0.4701,0.4701,0.4701,0.492,0.5065,0.5282,0.6224,0.7059,0.767,0.8177,0.8649,0.8971,0.9064,0.9111,0.9079,0.8976,0.8924,0.8829,0.8793,0.8795,0.8753,0.8754,0.8751,0.8751,0.8751,0.8754,0.8754,0.8754,0.872,0.8717,0.8685,0.8617,0.8592,0.862,0.862,0.862,0.862,0.862,0.862,0.862,0.862,0.862,0.862,0.862,0.862,0.862,0.862,0.862,0.862,0.862,0.862,0.862,0.862,0.862,0.862,0.862,0.862,0.862,0.862,0.862,0.862,0.862,0.862,0.862,0.862,0.8576,0.8579,0.862,0.862,0.862,0.862,0.862,0.862,0.862,0.862,0.862,0.862,0.862,0.862,0.862,0.8787,0.8851,0.8984,0.9217,0.9313,0.1446,0.0471,-0.0034,-0.0202,-0.0202,-0.0202,-0.0606,-0.1043,-0.0707,-0.1144,-0.2121,-0.2188,-0.2188,-0.2188,-0.2188,-0.219,-0.2192,-0.2203,-0.2197,-0.2214,-0.2248,-0.1879,-0.0982,0.0364,0.1457,0.2622,0.3716,0.4701,0.4701,0.4701,0.4701,0.4701,0.4701,0.4701,0.4774,0.4883,0.5209,0.6152,0.6948,0.7672,0.8288,0.883,0.9109,0.9217,0.9196,0.9092,0.9,0.8932,0.8908,0.8919,0.8861,0.8815,0.8793,0.8803,0.8812,0.8818,0.8842,0.884,0.8834,0.8819,0.8731,0.8668,0.8647,0.8623,0.862,0.862,0.862,0.862,0.862,0.862,0.862,0.862,0.862,0.862,0.862,0.862,0.862,0.862,0.862,0.862,0.862,0.862,0.862,0.862,0.862,0.862,0.862,0.862,0.862,0.862,0.862,0.862,0.862,0.862,0.862,0.862,0.862,0.862,0.862,0.862,0.862,0.862,0.862,0.862,0.862,0.862,0.862,0.862,0.862,0.862,0.862,0.8687,0.8753,0.8787,0.882,0.0336,-0.0707,-0.1751,-0.2019,-0.2155,-0.2054,-0.2087,-0.2087,-0.1144,-0.1212,-0.2087,-0.2188,-0.2188,-0.2188,-0.2188,-0.2188,-0.2199,-0.2198,-0.2191,-0.221,-0.2247,-0.2096,-0.1455,-0.0036,0.1166,0.2077,0.3243,0.4701,0.4701,0.4701,0.4701,0.4701,0.4701,0.4701,0.4701,0.4701,0.492,0.5245,0.6261,0.7167,0.7926,0.8649,0.923,0.9296,0.928,0.925,0.9136,0.9084,0.9054,0.8981,0.8922,0.8878,0.887,0.881,0.8832,0.8892,0.8927,0.893,0.89,0.8875,0.8836,0.8765,0.8694,0.8639,0.862,0.862,0.862,0.862,0.862,0.862,0.862,0.862,0.862,0.862,0.862,0.862,0.862,0.862,0.862,0.862,0.862,0.862,0.862,0.862,0.862,0.862,0.862,0.862,0.862,0.862,0.862,0.862,0.862,0.862,0.862,0.862,0.862,0.862,0.862,0.862,0.862,0.862,0.862,0.862,0.862,0.862,0.862,0.862,0.862,0.862,0.862,0.862,0.862,0.862,0.862,-0.0774,-0.1784,-0.2087,-0.2188,-0.2188,-0.2188,-0.2188,-0.2188,-0.1953,-0.1919,-0.2188,-0.2188,-0.2188,-0.2188,-0.2188,-0.2188,-0.2197,-0.2183,-0.2206,-0.2199,-0.2235,-0.2271,-0.1817,0.0,0.102,0.1968,0.3243,0.4694,0.4692,0.4694,0.4699,0.4699,0.47,0.4701,0.4701,0.4701,0.4738,0.4773,0.55,0.648,0.7242,0.7998,0.8577,0.9013,0.9258,0.9294,0.9231,0.9141,0.916,0.9157,0.909,0.9046,0.9017,0.8924,0.8943,0.9027,0.9054,0.9054,0.9017,0.8967,0.887,0.8795,0.871,0.8653,0.862,0.862,0.862,0.862,0.862,0.862,0.862,0.862,0.862,0.862,0.862,0.862,0.862,0.862,0.862,0.862,0.862,0.862,0.862,0.862,0.862,0.862,0.862,0.862,0.862,0.862,0.862,0.862,0.862,0.862,0.862,0.862,0.862,0.862,0.862,0.862,0.862,0.862,0.862,0.862,0.862,0.862,0.862,0.862,0.862,0.862,0.862,0.862,0.862,0.862,0.862,-0.074,-0.2121,-0.2188,-0.2188,-0.2188,-0.2188,-0.2188,-0.2188,-0.2188,-0.2188,-0.2188,-0.2188,-0.2188,-0.2188,-0.2188,-0.2188,-0.2192,-0.2205,-0.2206,-0.2202,-0.2224,-0.2261,-0.1339,-0.0036,0.0802,0.1784,0.3511,0.4657,0.4664,0.4659,0.4656,0.4667,0.4679,0.4701,0.4701,0.4701,0.4701,0.4738,0.5174,0.5718,0.6553,0.7457,0.8177,0.8721,0.9049,0.9193,0.9288,0.9203,0.9258,0.9231,0.9095,0.9117,0.9076,0.8998,0.9019,0.9117,0.9174,0.9171,0.9125,0.9027,0.89,0.8826,0.8705,0.8637,0.8697,0.8691,0.8626,0.862,0.862,0.862,0.862,0.862,0.862,0.862,0.862,0.862,0.862,0.862,0.862,0.862,0.862,0.862,0.862,0.862,0.862,0.862,0.862,0.862,0.862,0.862,0.862,0.8631,0.8637,0.8626,0.862,0.862,0.862,0.862,0.862,0.862,0.862,0.862,0.862,0.862,0.862,0.862,0.862,0.862,0.862,0.862,0.862,0.862,0.862,0.862,0.862,-0.0538,-0.2087,-0.2188,-0.2188,-0.2188,-0.2188,-0.2188,-0.2188,-0.2188,-0.2188,-0.2188,-0.2188,-0.2188,-0.2188,-0.2188,-0.2188,-0.2193,-0.2204,-0.2206,-0.2199,-0.2258,-0.2284,-0.1549,-0.0254,0.0763,0.2068,0.3722,0.4347,0.462,0.4633,0.4645,0.463,0.4657,0.4701,0.4701,0.4701,0.4701,0.4701,0.492,0.5136,0.6043,0.7129,0.7779,0.8324,0.8832,0.9266,0.9304,0.9304,0.9304,0.925,0.916,0.9185,0.9157,0.9106,0.9133,0.9237,0.9277,0.928,0.9247,0.9071,0.8976,0.8862,0.8712,0.8688,0.8751,0.8732,0.8664,0.8633,0.8633,0.8595,0.8595,0.862,0.862,0.862,0.862,0.862,0.862,0.862,0.862,0.862,0.862,0.862,0.862,0.862,0.862,0.862,0.862,0.862,0.862,0.862,0.862,0.8647,0.8672,0.8656,0.8631,0.8595,0.8598,0.862,0.862,0.862,0.862,0.862,0.862,0.862,0.862,0.862,0.862,0.862,0.862,0.8626,0.862,0.862,0.862,0.862,0.862,-0.1818,-0.2188,-0.2188,-0.2188,-0.2188,-0.2188,-0.2188,-0.2188,-0.2188,-0.2188,-0.2188,-0.2188,-0.2188,-0.2188,-0.2188,-0.2188,-0.219,-0.2201,-0.2183,-0.2208,-0.2225,-0.2257,-0.1748,-0.0395,0.0938,0.2423,0.3799,0.4436,0.462,0.4648,0.4656,0.4618,0.467,0.47,0.4701,0.4701,0.4701,0.4701,0.47,0.488,0.5241,0.6292,0.7419,0.8143,0.8866,0.9157,0.9304,0.9304,0.9304,0.9285,0.9253,0.925,0.9245,0.9195,0.9206,0.9264,0.9304,0.9304,0.9245,0.9114,0.9027,0.8908,0.8791,0.8754,0.8792,0.8789,0.8739,0.8767,0.8732,0.8641,0.8617,0.8628,0.862,0.862,0.862,0.862,0.862,0.862,0.862,0.862,0.862,0.862,0.862,0.862,0.862,0.862,0.862,0.862,0.862,0.862,0.8628,0.8656,0.8694,0.8675,0.8645,0.8614,0.8614,0.86,0.862,0.862,0.862,0.862,0.862,0.862,0.862,0.862,0.862,0.862,0.8606,0.8609,0.8626,0.862,0.8631,0.8628,0.86]},{"header":{"parameterUnit":"m.s-1","parameterCategory":1,"la1":31.0,"la2":29.5877,"lo1":-88.7671,"lo2":-86.6584,"dy":0.0162,"dx":0.0185,"nx":115,"ny":88,"refTime":"2023-03-03T06:00:00:Z","depth":0,"parameterNumber":3,"parameterNumberName":"V-component_of_WINDS"},"data":[0.0,0.0,0.0,0.0,0.0,0.0,0.0,0.0,0.0,0.0,0.0,0.0,0.0,0.0,0.0,0.0,0.0,0.0,0.0,0.0,0.0,0.0,0.0,0.0,0.0,0.0,0.0,0.0,0.0,0.0,0.0,0.0,0.0,0.0,0.0,0.0,0.0,0.0,0.0,0.0,0.0,0.0,0.0,0.0,0.0,0.0,0.0,0.0,0.0,0.0,0.0,0.0,0.0,0.0,0.0,0.0,0.0,0.0,0.0,0.0,0.0,0.0,0.0,0.0,0.0,0.0,0.0,0.0,0.0,0.0,0.0,0.0,0.0,0.0,0.0,0.0,0.0,0.0,0.0,0.0,0.0,0.0,0.0,0.0,0.0,0.0,0.0,0.0,0.0,0.0,0.0,0.0,0.0,0.0,0.0,0.0,0.0,0.0,0.0,0.0,0.0,0.0,0.0,0.0,0.0,0.0,0.0,0.0,0.0,0.0,0.0,0.0,0.0,0.0,0.0,0.0,0.0,0.0,0.0,0.0,0.0,0.0,0.0,0.0,0.0,0.0,0.0,0.0,0.0,0.0,0.0,0.0,0.0,0.0,0.0,0.0,0.0,0.0,0.0,0.0,0.0,0.0,0.0,0.0,0.0,0.0,0.0,0.0,0.0,0.0,0.0,0.0,0.0,0.0,0.0,0.0,0.0,0.0,0.0,0.0,0.0,0.0,0.0,0.0,0.0,0.0,0.0,0.0,0.0,0.0,0.0,0.0,0.0,0.0,0.0,0.0,0.0,0.0,0.0,0.0,0.0,0.0,0.0,0.0,0.0,0.0,0.0,0.0,0.0,0.0,0.0,0.0,0.0,0.0,0.0,0.0,0.0,0.0,0.0,0.0,0.0,0.0,0.0,0.0,0.0,0.0,0.0,0.0,0.0,0.0,0.0,0.0,0.0,0.0,0.0,0.0,0.0,0.0,0.0,0.0,0.0,0.0,0.0,0.0,0.0,0.0,0.0,0.0,0.0,0.0,0.0,0.0,0.0,0.0,0.0,0.0,0.0,0.0,0.0,0.0,0.0,0.0,0.0,0.0,0.0,0.0,0.0,0.0,0.0,0.0,0.0,0.0,0.0,0.0,0.0,0.0,0.0,0.0,0.0,0.0,0.0,0.0,0.0,0.0,0.0,0.0,0.0,0.0,0.0,0.0,0.0,0.0,0.0,0.0,0.0,0.0,0.0,0.0,0.0,0.0,0.0,0.0,0.0,0.0,0.0,0.0,0.0,0.0,0.0,0.0,0.0,0.0,0.0,0.0,0.0,0.0,0.0,0.0,0.0,0.0,0.0,0.0,0.0,0.0,0.0,0.0,0.0,0.0,0.0,0.0,0.0,0.0,0.0,0.0,0.0,0.0,0.0,0.0,0.0,0.0,0.0,0.0,0.0,0.0,0.0,0.0,0.0,0.0,0.0,0.0,0.0,0.0,0.0,0.0,0.0,0.0,0.0,0.0,0.0,0.0,0.0,0.0,0.0,0.0,0.0,0.0,0.0,0.0,0.0,0.0,0.0,0.0,0.0,0.0,0.0,0.0,0.0,0.0,0.0,0.0,0.0,0.0,0.0,0.0,0.0,0.0,0.0,0.0,0.0,0.0,0.0,0.0,0.0,0.0,0.0,0.0,0.0,0.0,0.0,0.0,0.0,0.0,0.0,0.0,0.0,0.0,0.0,0.0,0.0,0.0,0.0,0.0,0.0,0.0,0.0,0.0,0.0,0.0,0.0,0.0,0.0,0.0,0.0,0.0,0.0,0.0,0.0,0.0,0.0,0.0,0.0,0.0,0.0,0.0,0.0,0.0,0.0,0.0,0.0,0.0,0.0,0.0,0.0,0.0,0.0,0.0,0.0,0.0,0.0,0.0,0.0,0.0,0.0,0.0,0.0,0.0,0.0,0.0,0.0,0.0,0.0,0.0,0.0,0.0,0.0,0.0,0.0,0.0,0.0,0.0,0.0,0.0,0.0,0.0,0.0,0.0,0.0,0.0,0.0,0.0,0.0,0.0,0.0,0.0,0.0,0.0,0.0,0.0,0.0,0.0,0.0,0.0,0.0,0.0,0.0,0.0,0.0,0.0,0.0,0.0,0.0,0.0,0.0,0.0,0.0,0.0,0.0,0.0,0.0,0.0,0.0,0.0,0.0,0.0,0.0,0.0,0.0,0.0,0.0,0.0,0.0,0.0,0.0,0.0,0.0,0.0,0.0,0.0,0.0,0.0,0.0,0.0,0.0,0.0,0.0,0.0,0.0,0.0,0.0,0.0,0.0,0.0,0.0,0.0,0.0,0.0,0.0,0.0,0.0,0.0,0.0,0.0,0.0,0.0,0.0,0.0,0.0,0.0,0.0,0.0,0.0,0.0,0.0,0.0,0.0,0.0,0.0,0.0,0.0,0.0,0.0,0.0,0.0,0.0,0.0,0.0,0.0,0.0,0.0,0.0,0.0,0.0,0.0,0.0,0.0,0.0,0.0,0.0,0.0,0.0,0.0,0.0,0.0,0.0,0.0,0.0,0.0,0.0,0.0,0.0,0.0,0.0,0.0,0.0,0.0,0.0,0.0,0.0,0.0,0.0,0.0,0.0,0.0,0.0,0.0,0.0,0.0,0.0,0.0,0.0,0.0,0.0,0.0,0.0,0.0,0.0,0.0,0.0,0.0,0.0,0.0,0.0,0.0,0.0,0.0,0.0,0.0,0.0,0.0,0.0,0.0,0.0,0.0,0.0,0.0,0.0,0.0,0.0,0.0,0.0,0.0,0.0,0.0,0.0,0.0,0.0,0.0,0.0,0.0,0.0,0.0,0.0,0.0,0.0,0.0,0.0,0.0,0.0,0.0,0.0,0.0,0.0,0.0,0.0,0.0,0.0,0.0,0.0,0.0,0.0,0.0,0.0,0.0,0.0,0.0,0.0,0.0,0.0,0.0,0.0,0.0,0.0,0.0,0.0,0.0,0.0,0.0,0.0,0.0,0.0,0.0,0.0,0.0,0.0,0.0,0.0,0.0,0.0,0.0,0.0,0.0,0.0,0.0,0.0,0.0,0.0,0.0,0.0,0.0,0.0,0.0,0.0,0.0,0.0,0.0,0.0,0.0,0.0,0.0,0.0,0.0,0.0,0.0,0.0,0.0,0.0,0.0,0.0,0.0,0.0,0.0,0.0,0.0,0.0,0.0,0.0,0.0,0.0,0.0,0.0,0.0,0.0,0.0,0.0,0.0,0.0,0.0,0.0,0.0,0.0,0.0,0.0,0.0,0.0,0.0,0.0,0.0,0.0,0.0,0.0,0.0,0.0,0.0,0.0,0.0,0.0,0.0,0.0,0.0,0.0,0.0,0.0,0.0,0.0,0.0,0.0,0.0,0.0,0.0,0.0,0.0,0.0,0.0,0.0,0.0,0.0,0.0,0.0,0.0,0.0,0.0,0.0,0.0,0.0,0.0,0.0,0.0,0.0,0.0,0.0,0.0,0.0,0.0,0.0,0.0,0.0,0.0,0.0,0.0,0.0,0.0,0.0,0.0,0.0,0.0,0.0,0.0,0.0,0.0,0.0,0.0,0.0,0.0,0.0,0.0,0.0,0.0,0.0,0.0,0.0,0.0,0.0,0.0,0.0,0.0,0.0,0.0,0.0,0.0,0.0,0.0,0.0,0.0,0.0,0.0,0.0,0.0,0.0,0.0,0.0,0.0,0.0,0.0,0.0,0.0,0.0,0.0,0.0,0.0,0.0,0.0,0.0,0.0,0.0,0.0,0.0,0.0,0.0,0.0,0.0,0.0,0.0,0.0,0.0,0.0,0.0,0.0,0.0,0.0,0.0,0.0,0.0,0.0,0.0,0.0,0.0,0.0,0.0,0.0,0.0,0.0,0.0,0.0,0.0,0.0,0.0,0.0,0.0,0.0,0.0,0.0,0.0,0.0,0.0,0.0,0.0,0.0,0.0,0.0,0.0,0.0,0.0,0.0,0.0,0.0,0.0,0.0,0.0,0.0,0.0,0.0,0.0,0.0,0.0,0.0,0.0,0.0,0.0,0.0,0.0,0.0,0.0,0.0,0.0,0.0,0.0,0.0,0.0,0.0,0.0,0.0,0.0,0.0,0.0,0.0,0.0,0.0,0.0,0.0,0.0,0.0,0.0,0.0,0.0,0.0,0.0,0.0,0.0,0.0,0.0,0.0,0.0,0.0,0.0,0.0,0.0,0.0,0.0,0.0,0.0,0.0,0.0,0.0,0.0,0.0,0.0,3.08,0.0,0.0,0.0,0.0,0.0,0.0,0.0,0.0,0.0,0.0,0.0,0.0,0.0,0.0,0.0,0.0,0.0,0.0,0.0,0.0,0.0,0.0,0.0,0.0,0.0,0.0,0.0,0.0,0.0,0.0,0.0,0.0,0.0,0.0,0.0,0.0,0.0,0.0,0.0,0.0,0.0,0.0,0.0,0.0,0.0,0.0,0.0,0.0,0.0,0.0,0.0,0.0,0.0,0.0,0.0,0.0,0.0,0.0,0.0,0.0,0.0,0.0,0.0,0.0,0.0,0.0,0.0,0.0,0.0,0.0,0.0,0.0,0.0,0.0,0.0,0.0,0.0,0.0,0.0,0.0,0.0,0.0,0.0,0.0,0.0,0.0,0.0,0.0,0.0,0.0,0.0,0.0,0.0,0.0,0.0,0.0,0.0,0.0,0.0,0.0,0.0,0.0,0.0,0.0,0.0,0.0,0.0,0.0,0.0,0.0,3.08,3.0801,3.0788,3.0792,3.0792,0.0,0.0,0.0,0.0,0.0,0.0,0.0,0.0,0.0,0.0,0.0,0.0,0.0,0.0,0.0,0.0,0.0,0.0,0.0,0.0,0.0,0.0,0.0,0.0,0.0,0.0,0.0,0.0,0.0,0.0,0.0,0.0,0.0,0.0,0.0,0.0,0.0,0.0,0.0,0.0,0.0,0.0,0.0,0.0,0.0,0.0,0.0,0.0,0.0,0.0,0.0,0.0,0.0,0.0,0.0,0.0,0.0,0.0,0.0,0.0,0.0,0.0,0.0,0.0,0.0,0.0,0.0,0.0,0.0,0.0,0.0,0.0,0.0,0.0,0.0,0.0,0.0,0.0,0.0,0.0,0.0,0.0,0.0,0.0,0.0,0.0,0.0,0.0,0.0,0.0,0.0,0.0,0.0,0.0,0.0,0.0,0.0,0.0,0.0,0.0,0.0,0.0,0.0,0.0,0.0,0.0,0.0,0.0,0.0,0.0,0.0,0.0,3.08,3.0785,3.0786,0.0,0.0,0.0,0.0,0.0,0.0,0.0,0.0,0.0,0.0,0.0,0.0,0.0,0.0,0.0,0.0,0.0,0.0,0.0,0.0,0.0,0.0,0.0,0.0,0.0,0.0,0.0,0.0,0.0,0.0,0.0,0.0,0.0,0.0,0.0,0.0,0.0,0.0,0.0,0.0,0.0,0.0,0.0,0.0,0.0,0.0,0.0,0.0,0.0,0.0,0.0,0.0,0.0,0.0,0.0,0.0,0.0,0.0,0.0,0.0,0.0,0.0,0.0,0.0,0.0,0.0,0.0,0.0,0.0,0.0,0.0,0.0,0.0,0.0,0.0,0.0,0.0,0.0,0.0,0.0,0.0,0.0,0.0,0.0,0.0,0.0,0.0,0.0,0.0,0.0,0.0,0.0,0.0,0.0,0.0,0.0,0.0,0.0,0.0,0.0,0.0,0.0,0.0,0.0,0.0,0.0,0.0,0.0,0.0,0.0,3.0796,3.0796,3.0797,0.0,3.0798,0.0,0.0,0.0,0.0,0.0,0.0,0.0,0.0,0.0,0.0,0.0,0.0,0.0,0.0,0.0,0.0,0.0,0.0,0.0,0.0,0.0,0.0,0.0,0.0,0.0,0.0,0.0,0.0,0.0,0.0,0.0,0.0,0.0,0.0,0.0,0.0,0.0,0.0,0.0,0.0,0.0,0.0,0.0,0.0,0.0,0.0,0.0,0.0,0.0,0.0,0.0,0.0,0.0,0.0,0.0,0.0,0.0,0.0,0.0,0.0,0.0,0.0,0.0,0.0,0.0,0.0,0.0,0.0,0.0,0.0,0.0,0.0,0.0,0.0,0.0,0.0,0.0,0.0,0.0,0.0,0.0,0.0,0.0,0.0,0.0,0.0,0.0,0.0,0.0,0.0,0.0,0.0,0.0,0.0,0.0,0.0,0.0,0.0,0.0,0.0,0.0,0.0,0.0,0.0,0.0,0.0,0.0,0.0,0.0,0.0,2.9764,3.078,3.1291,3.1335,0.0,0.0,0.0,0.0,0.0,0.0,0.0,0.0,0.0,0.0,0.0,0.0,0.0,0.0,0.0,0.0,0.0,0.0,0.0,0.0,0.0,0.0,0.0,0.0,0.0,0.0,0.0,0.0,0.0,0.0,0.0,0.0,0.0,0.0,0.0,0.0,0.0,0.0,0.0,0.0,0.0,0.0,0.0,0.0,0.0,0.0,0.0,0.0,0.0,0.0,0.0,0.0,0.0,0.0,0.0,0.0,0.0,0.0,0.0,0.0,0.0,0.0,0.0,0.0,0.0,0.0,0.0,0.0,0.0,0.0,0.0,0.0,0.0,0.0,0.0,0.0,0.0,0.0,0.0,0.0,0.0,0.0,0.0,0.0,0.0,0.0,0.0,0.0,0.0,0.0,0.0,0.0,0.0,0.0,0.0,0.0,0.0,0.0,0.0,0.0,0.0,0.0,0.0,0.0,0.0,0.0,0.0,0.0,0.0,0.0,2.9243,2.942,3.0416,3.0849,3.0874,3.0469,0.0,0.0,0.0,0.0,0.0,0.0,0.0,0.0,0.0,0.0,0.0,0.0,0.0,0.0,0.0,0.0,0.0,0.0,0.0,0.0,0.0,0.0,0.0,0.0,0.0,0.0,0.0,0.0,0.0,0.0,0.0,0.0,0.0,0.0,0.0,0.0,0.0,0.0,0.0,0.0,0.0,0.0,0.0,0.0,0.0,0.0,0.0,0.0,0.0,0.0,0.0,0.0,0.0,0.0,0.0,0.0,0.0,0.0,0.0,0.0,0.0,0.0,0.0,0.0,0.0,0.0,0.0,0.0,0.0,0.0,0.0,0.0,0.0,0.0,0.0,0.0,0.0,0.0,0.0,0.0,0.0,0.0,0.0,0.0,0.0,0.0,0.0,0.0,0.0,0.0,0.0,0.0,0.0,0.0,0.0,0.0,0.0,0.0,0.0,0.0,0.0,0.0,0.0,0.0,0.0,0.0,0.0,0.0,3.0695,3.0661,3.0332,2.9689,2.8907,2.8849,0.0,0.0,0.0,0.0,0.0,0.0,0.0,0.0,0.0,0.0,0.0,0.0,0.0,0.0,0.0,0.0,0.0,0.0,0.0,0.0,0.0,0.0,0.0,0.0,0.0,0.0,0.0,0.0,0.0,0.0,0.0,0.0,0.0,0.0,0.0,0.0,0.0,0.0,0.0,0.0,0.0,0.0,0.0,0.0,0.0,0.0,0.0,0.0,0.0,0.0,0.0,0.0,0.0,0.0,0.0,0.0,0.0,0.0,0.0,0.0,0.0,0.0,0.0,0.0,0.0,0.0,0.0,0.0,0.0,0.0,0.0,0.0,0.0,0.0,0.0,0.0,0.0,0.0,0.0,0.0,0.0,0.0,0.0,0.0,0.0,0.0,0.0,0.0,0.0,0.0,0.0,0.0,0.0,0.0,0.0,0.0,0.0,0.0,0.0,0.0,0.0,0.0,0.0,0.0,0.0,0.0,0.0,0.0,0.0,2.9275,3.0234,3.0411,2.9651,2.9786,3.0059,0.0,0.0,0.0,0.0,0.0,0.0,0.0,0.0,0.0,0.0,0.0,0.0,0.0,0.0,0.0,0.0,0.0,0.0,0.0,0.0,0.0,0.0,0.0,0.0,0.0,0.0,0.0,0.0,0.0,0.0,0.0,0.0,0.0,0.0,0.0,0.0,0.0,0.0,0.0,0.0,0.0,0.0,0.0,0.0,0.0,0.0,0.0,0.0,0.0,0.0,0.0,0.0,0.0,0.0,0.0,0.0,0.0,0.0,0.0,0.0,0.0,0.0,0.0,0.0,0.0,0.0,0.0,0.0,0.0,0.0,0.0,0.0,0.0,0.0,0.0,0.0,0.0,0.0,0.0,0.0,0.0,0.0,0.0,0.0,0.0,0.0,0.0,0.0,0.0,0.0,0.0,0.0,0.0,0.0,0.0,0.0,0.0,0.0,0.0,0.0,0.0,0.0,0.0,0.0,0.0,0.0,0.0,0.0,0.0,2.8791,0.0,3.0021,0.0,2.9436,2.9689,0.0,0.0,0.0,0.0,0.0,0.0,0.0,0.0,0.0,0.0,0.0,0.0,0.0,0.0,0.0,0.0,0.0,0.0,0.0,0.0,0.0,0.0,0.0,0.0,0.0,0.0,0.0,0.0,0.0,0.0,0.0,0.0,0.0,0.0,0.0,0.0,0.0,0.0,0.0,0.0,0.0,0.0,0.0,0.0,0.0,0.0,0.0,0.0,0.0,0.0,0.0,0.0,0.0,0.0,0.0,0.0,0.0,0.0,0.0,0.0,0.0,0.0,0.0,0.0,0.0,0.0,0.0,0.0,0.0,0.0,0.0,0.0,0.0,0.0,0.0,0.0,0.0,0.0,0.0,0.0,0.0,0.0,0.0,0.0,0.0,0.0,0.0,0.0,0.0,0.0,0.0,0.0,0.0,0.0,0.0,0.0,0.0,0.0,0.0,0.0,0.0,0.0,0.0,0.0,0.0,0.0,0.0,0.0,2.9612,2.9612,2.9631,2.9319,2.8381,2.7679,2.7562,0.0,0.0,0.0,0.0,0.0,0.0,0.0,0.0,0.0,0.0,0.0,0.0,0.0,0.0,0.0,0.0,0.0,0.0,0.0,0.0,0.0,0.0,0.0,0.0,0.0,0.0,0.0,0.0,0.0,0.0,0.0,0.0,0.0,0.0,0.0,0.0,0.0,0.0,0.0,0.0,0.0,0.0,0.0,0.0,0.0,0.0,0.0,0.0,0.0,0.0,0.0,0.0,0.0,0.0,0.0,0.0,0.0,0.0,0.0,0.0,0.0,0.0,0.0,0.0,0.0,0.0,0.0,0.0,0.0,0.0,0.0,0.0,0.0,0.0,0.0,0.0,0.0,0.0,0.0,0.0,0.0,0.0,0.0,0.0,0.0,0.0,0.0,0.0,0.0,0.0,0.0,0.0,0.0,0.0,0.0,0.0,0.0,0.0,0.0,0.0,0.0,0.0,0.0,0.0,0.0,0.0,0.0,0.0,0.0,3.0411,3.0431,3.0587,3.086,2.9534,2.9456,0.0,0.0,0.0,0.0,0.0,0.0,0.0,0.0,0.0,0.0,0.0,0.0,0.0,0.0,0.0,0.0,0.0,0.0,0.0,0.0,0.0,0.0,0.0,0.0,0.0,0.0,0.0,0.0,0.0,0.0,0.0,0.0,0.0,0.0,0.0,0.0,0.0,0.0,0.0,0.0,0.0,0.0,0.0,0.0,0.0,0.0,0.0,0.0,0.0,0.0,0.0,0.0,0.0,0.0,0.0,0.0,0.0,0.0,0.0,0.0,0.0,0.0,0.0,0.0,0.0,0.0,0.0,0.0,0.0,0.0,0.0,0.0,0.0,0.0,0.0,0.0,0.0,0.0,0.0,0.0,0.0,0.0,0.0,0.0,0.0,0.0,0.0,0.0,0.0,0.0,0.0,0.0,0.0,0.0,0.0,0.0,0.0,0.0,0.0,0.0,0.0,0.0,0.0,0.0,0.0,0.0,0.0,0.0,0.0,3.1273,3.1273,3.139,3.1645,3.063,3.0414,3.1095,0.0,0.0,0.0,0.0,0.0,0.0,0.0,0.0,0.0,0.0,0.0,0.0,0.0,0.0,0.0,0.0,0.0,0.0,0.0,0.0,0.0,0.0,0.0,0.0,0.0,0.0,0.0,0.0,0.0,0.0,0.0,0.0,0.0,0.0,0.0,0.0,0.0,0.0,0.0,0.0,0.0,0.0,0.0,0.0,0.0,0.0,0.0,0.0,0.0,0.0,0.0,0.0,0.0,0.0,0.0,0.0,0.0,0.0,0.0,0.0,0.0,0.0,0.0,0.0,0.0,0.0,0.0,0.0,0.0,0.0,0.0,0.0,0.0,0.0,0.0,0.0,0.0,0.0,0.0,0.0,0.0,0.0,0.0,0.0,0.0,0.0,0.0,0.0,0.0,0.0,0.0,0.0,0.0,0.0,0.0,0.0,0.0,0.0,0.0,0.0,0.0,0.0,0.0,0.0,0.0,0.0,0.0,0.0,3.2314,3.2373,3.2022,3.1201,3.1103,3.0652,0.0,0.0,0.0,0.0,0.0,0.0,0.0,0.0,0.0,0.0,0.0,0.0,0.0,0.0,0.0,0.0,0.0,0.0,0.0,0.0,0.0,0.0,0.0,0.0,0.0,0.0,0.0,0.0,0.0,0.0,0.0,0.0,0.0,0.0,0.0,0.0,0.0,0.0,0.0,0.0,0.0,0.0,0.0,0.0,0.0,0.0,0.0,0.0,0.0,0.0,0.0,0.0,0.0,0.0,0.0,0.0,0.0,0.0,0.0,0.0,0.0,0.0,0.0,0.0,0.0,0.0,0.0,0.0,0.0,0.0,0.0,0.0,0.0,0.0,0.0,0.0,0.0,0.0,0.0,0.0,0.0,0.0,0.0,0.0,0.0,0.0,0.0,0.0,0.0,0.0,0.0,0.0,0.0,0.0,0.0,0.0,0.0,0.0,0.0,0.0,0.0,0.0,0.0,0.0,0.0,0.0,0.0,0.0,0.0,3.4916,3.5621,3.5231,3.3763,3.3078,3.2625,0.0,0.0,0.0,0.0,0.0,0.0,0.0,0.0,0.0,0.0,0.0,0.0,0.0,0.0,0.0,0.0,0.0,0.0,0.0,0.0,0.0,0.0,0.0,0.0,0.0,0.0,0.0,0.0,0.0,0.0,0.0,0.0,0.0,0.0,0.0,0.0,0.0,0.0,0.0,0.0,0.0,0.0,0.0,0.0,0.0,0.0,0.0,0.0,0.0,0.0,0.0,0.0,0.0,0.0,0.0,0.0,0.0,0.0,0.0,0.0,0.0,0.0,0.0,0.0,0.0,0.0,0.0,0.0,0.0,0.0,0.0,0.0,0.0,0.0,0.0,0.0,0.0,0.0,0.0,0.0,0.0,0.0,0.0,0.0,0.0,0.0,0.0,0.0,0.0,0.0,0.0,0.0,0.0,0.0,0.0,0.0,0.0,0.0,0.0,0.0,0.0,0.0,0.0,0.0,0.0,0.0,0.0,0.0,3.4252,3.5971,3.7206,3.7363,3.6365,3.5503,3.4698,0.0,0.0,0.0,0.0,0.0,0.0,0.0,0.0,0.0,0.0,0.0,0.0,0.0,0.0,0.0,0.0,0.0,0.0,0.0,0.0,0.0,0.0,0.0,0.0,0.0,0.0,0.0,0.0,0.0,0.0,0.0,0.0,0.0,0.0,0.0,0.0,0.0,0.0,0.0,0.0,0.0,0.0,0.0,0.0,0.0,0.0,0.0,0.0,0.0,0.0,0.0,0.0,0.0,0.0,0.0,0.0,0.0,0.0,0.0,0.0,0.0,0.0,0.0,0.0,0.0,0.0,0.0,0.0,0.0,0.0,0.0,0.0,0.0,0.0,0.0,0.0,0.0,0.0,0.0,0.0,0.0,0.0,0.0,0.0,0.0,0.0,0.0,0.0,0.0,0.0,0.0,0.0,0.0,0.0,0.0,0.0,0.0,0.0,0.0,0.0,0.0,0.0,0.0,0.0,0.0,0.0,0.0,0.0,3.4508,3.6246,3.7968,3.8867,3.8848,3.7849,3.6517,0.0,0.0,0.0,0.0,0.0,0.0,0.0,0.0,0.0,0.0,0.0,0.0,0.0,0.0,0.0,0.0,0.0,0.0,0.0,0.0,0.0,0.0,0.0,0.0,0.0,0.0,0.0,0.0,0.0,0.0,0.0,0.0,0.0,0.0,0.0,0.0,0.0,0.0,0.0,0.0,0.0,0.0,0.0,0.0,0.0,0.0,0.0,0.0,0.0,0.0,0.0,0.0,0.0,0.0,0.0,0.0,0.0,0.0,0.0,0.0,0.0,0.0,0.0,0.0,0.0,0.0,0.0,0.0,0.0,0.0,0.0,0.0,0.0,0.0,0.0,0.0,0.0,0.0,0.0,0.0,0.0,0.0,0.0,0.0,0.0,0.0,0.0,0.0,0.0,0.0,0.0,0.0,0.0,0.0,0.0,0.0,0.0,0.0,0.0,0.0,0.0,0.0,0.0,0.0,0.0,0.0,0.0,0.0,3.6286,3.8026,3.9746,4.0644,4.0625,3.8455,3.6811,0.0,0.0,0.0,0.0,0.0,0.0,0.0,0.0,0.0,0.0,0.0,0.0,0.0,0.0,0.0,0.0,0.0,0.0,0.0,0.0,0.0,0.0,0.0,0.0,0.0,0.0,0.0,0.0,0.0,0.0,0.0,0.0,0.0,0.0,0.0,0.0,0.0,0.0,0.0,0.0,0.0,0.0,0.0,0.0,0.0,0.0,0.0,0.0,3.1599,0.0,0.0,0.0,0.0,0.0,0.0,0.0,0.0,0.0,0.0,0.0,0.0,0.0,0.0,0.0,0.0,0.0,0.0,0.0,0.0,0.0,0.0,0.0,0.0,0.0,0.0,0.0,0.0,0.0,0.0,0.0,0.0,0.0,0.0,0.0,0.0,0.0,0.0,0.0,0.0,0.0,0.0,0.0,0.0,0.0,0.0,0.0,0.0,0.0,0.0,0.0,0.0,0.0,0.0,0.0,0.0,0.0,0.0,0.0,3.7421,3.912,4.0465,4.1147,4.1089,3.9433,3.8102,0.0,0.0,0.0,0.0,0.0,0.0,0.0,0.0,0.0,0.0,0.0,0.0,0.0,0.0,0.0,0.0,0.0,0.0,0.0,0.0,0.0,0.0,0.0,0.0,0.0,0.0,0.0,0.0,0.0,0.0,0.0,0.0,0.0,0.0,0.0,0.0,0.0,0.0,0.0,0.0,0.0,0.0,0.0,0.0,0.0,0.0,0.0,0.0,0.0,0.0,0.0,0.0,0.0,0.0,0.0,0.0,0.0,0.0,0.0,0.0,0.0,0.0,0.0,0.0,0.0,0.0,0.0,0.0,0.0,0.0,0.0,0.0,0.0,0.0,0.0,0.0,0.0,0.0,0.0,0.0,0.0,0.0,0.0,0.0,0.0,0.0,0.0,0.0,0.0,0.0,0.0,0.0,0.0,0.0,0.0,0.0,0.0,0.0,0.0,0.0,0.0,0.0,0.0,0.0,0.0,0.0,0.0,3.6933,3.806,3.9755,4.0669,4.1116,4.1116,4.0449,3.9627,3.8648,0.0,0.0,0.0,0.0,0.0,0.0,0.0,0.0,0.0,0.0,0.0,0.0,0.0,0.0,0.0,0.0,0.0,0.0,0.0,0.0,0.0,0.0,0.0,0.0,0.0,0.0,0.0,0.0,0.0,0.0,0.0,0.0,0.0,0.0,0.0,0.0,0.0,0.0,3.1255,3.2626,0.0,0.0,0.0,0.0,0.0,0.0,0.0,0.0,3.4616,0.0,0.0,0.0,0.0,0.0,0.0,0.0,0.0,0.0,0.0,0.0,0.0,0.0,0.0,0.0,0.0,0.0,0.0,0.0,0.0,0.0,0.0,0.0,0.0,0.0,0.0,0.0,0.0,0.0,0.0,0.0,0.0,0.0,0.0,0.0,0.0,0.0,0.0,0.0,0.0,0.0,0.0,0.0,0.0,0.0,0.0,0.0,0.0,0.0,0.0,0.0,0.0,0.0,0.0,0.0,0.0,3.8118,3.7594,3.8124,3.9843,4.0741,4.1191,4.1171,4.0996,4.0173,3.8667,0.0,0.0,0.0,0.0,0.0,0.0,0.0,0.0,0.0,0.0,0.0,0.0,0.0,0.0,0.0,0.0,0.0,0.0,0.0,0.0,0.0,0.0,0.0,0.0,0.0,0.0,0.0,0.0,0.0,0.0,0.0,0.0,0.0,0.0,0.0,0.0,0.0,0.0,0.0,3.522,3.6375,0.0,0.0,0.0,0.0,0.0,0.0,0.0,0.0,3.496,0.0,0.0,0.0,0.0,0.0,0.0,0.0,0.0,0.0,0.0,0.0,0.0,0.0,0.0,0.0,0.0,0.0,0.0,0.0,0.0,0.0,0.0,0.0,0.0,0.0,0.0,0.0,0.0,0.0,0.0,0.0,0.0,0.0,0.0,0.0,0.0,0.0,0.0,0.0,0.0,0.0,0.0,0.0,0.0,0.0,0.0,0.0,0.0,0.0,0.0,0.0,0.0,0.0,0.0,0.0,3.8491,3.8594,3.9216,4.0482,4.0931,4.1146,4.1126,4.0723,3.988,0.0,0.0,0.0,0.0,0.0,0.0,0.0,0.0,0.0,0.0,0.0,0.0,0.0,0.0,0.0,0.0,0.0,0.0,0.0,0.0,0.0,0.0,0.0,0.0,0.0,0.0,0.0,0.0,0.0,0.0,0.0,0.0,0.0,0.0,0.0,0.0,0.0,0.0,0.0,0.0,3.6394,3.7213,3.8067,0.0,0.0,0.0,0.0,0.0,0.0,3.5639,3.5772,0.0,0.0,0.0,0.0,0.0,0.0,0.0,0.0,0.0,0.0,0.0,0.0,0.0,0.0,0.0,0.0,0.0,0.0,0.0,0.0,0.0,0.0,0.0,0.0,0.0,0.0,0.0,0.0,0.0,0.0,0.0,0.0,0.0,0.0,0.0,0.0,0.0,0.0,0.0,0.0,0.0,0.0,0.0,0.0,0.0,0.0,0.0,0.0,0.0,0.0,0.0,0.0,0.0,0.0,0.0,3.8589,3.9412,4.0242,4.1079,4.1117,4.1196,4.1333,4.0566,3.9822,0.0,0.0,0.0,0.0,0.0,0.0,0.0,0.0,0.0,0.0,0.0,0.0,0.0,0.0,0.0,0.0,0.0,0.0,0.0,0.0,0.0,0.0,0.0,0.0,0.0,0.0,0.0,0.0,0.0,0.0,0.0,0.0,0.0,0.0,0.0,0.0,0.0,0.0,0.0,0.0,0.0,3.8044,3.9016,3.8862,0.0,0.0,0.0,0.0,3.648,3.7073,0.0,0.0,0.0,0.0,0.0,0.0,0.0,0.0,0.0,0.0,0.0,0.0,0.0,0.0,0.0,0.0,0.0,0.0,0.0,0.0,0.0,0.0,0.0,0.0,0.0,0.0,0.0,0.0,0.0,0.0,0.0,0.0,0.0,0.0,0.0,0.0,0.0,0.0,0.0,0.0,0.0,0.0,0.0,0.0,0.0,0.0,0.0,0.0,0.0,0.0,0.0,0.0,0.0,0.0,0.0,0.0,3.8589,3.9453,4.0312,4.1132,4.1191,4.1543,4.2207,4.1424,4.0912,0.0,0.0,0.0,0.0,0.0,0.0,0.0,0.0,0.0,0.0,0.0,0.0,0.0,0.0,0.0,0.0,0.0,0.0,0.0,0.0,0.0,0.0,0.0,0.0,0.0,0.0,0.0,0.0,0.0,0.0,0.0,0.0,0.0,0.0,0.0,0.0,0.0,0.0,0.0,0.0,0.0,3.9847,3.8517,3.9567,3.9927,0.0,0.0,3.906,3.8967,3.9637,0.0,0.0,0.0,0.0,0.0,0.0,0.0,0.0,0.0,0.0,0.0,0.0,0.0,0.0,0.0,0.0,0.0,0.0,0.0,0.0,0.0,0.0,0.0,0.0,0.0,0.0,0.0,0.0,0.0,0.0,0.0,0.0,0.0,0.0,0.0,0.0,0.0,0.0,0.0,0.0,0.0,0.0,0.0,0.0,0.0,0.0,0.0,0.0,0.0,0.0,0.0,0.0,0.0,0.0,0.0,3.8454,3.9331,4.0176,4.0781,4.1172,4.1191,4.1582,4.2383,4.111,4.0638,0.0,0.0,0.0,0.0,0.0,0.0,0.0,0.0,0.0,0.0,0.0,0.0,0.0,0.0,0.0,0.0,0.0,0.0,0.0,0.0,0.0,0.0,0.0,0.0,0.0,0.0,0.0,0.0,0.0,0.0,0.0,0.0,0.0,0.0,0.0,0.0,0.0,0.0,0.0,0.0,0.0,0.0,4.0982,4.1263,0.0,0.0,0.0,4.0504,3.9539,0.0,0.0,0.0,0.0,0.0,0.0,0.0,0.0,0.0,0.0,0.0,0.0,0.0,0.0,0.0,0.0,0.0,0.0,0.0,0.0,0.0,0.0,0.0,0.0,0.0,0.0,0.0,0.0,0.0,0.0,0.0,0.0,0.0,0.0,0.0,0.0,0.0,0.0,0.0,0.0,0.0,0.0,0.0,0.0,0.0,0.0,0.0,0.0,0.0,0.0,0.0,0.0,0.0,0.0,0.0,0.0,0.0,4.0212,4.123,4.1775,4.1835,4.1816,4.2226,4.2988,4.1209,0.0,0.0,0.0,0.0,0.0,0.0,0.0,0.0,0.0,0.0,0.0,0.0,0.0,0.0,0.0,0.0,0.0,0.0,0.0,0.0,0.0,0.0,0.0,0.0,0.0,0.0,0.0,3.637,0.0,0.0,0.0,0.0,0.0,0.0,0.0,0.0,0.0,0.0,0.0,0.0,0.0,0.0,4.131,4.2394,4.2567,4.2302,0.0,0.0,4.1839,4.0814,4.184,4.1767,0.0,0.0,0.0,0.0,0.0,0.0,0.0,0.0,0.0,0.0,0.0,0.0,0.0,0.0,0.0,0.0,0.0,0.0,0.0,0.0,0.0,0.0,0.0,0.0,0.0,0.0,0.0,0.0,0.0,0.0,0.0,0.0,0.0,0.0,0.0,0.0,0.0,0.0,0.0,0.0,0.0,0.0,0.0,0.0,0.0,0.0,0.0,0.0,0.0,0.0,0.0,0.0,0.0,0.0,0.0,4.1035,4.2669,4.3504,4.3529,4.3532,4.3944,4.4744,4.2363,4.1794,0.0,0.0,0.0,0.0,0.0,0.0,0.0,0.0,0.0,0.0,0.0,0.0,0.0,0.0,0.0,0.0,0.0,0.0,0.0,0.0,0.0,0.0,0.0,0.0,0.0,0.0,0.0,0.0,0.0,0.0,0.0,0.0,0.0,0.0,0.0,0.0,0.0,0.0,0.0,0.0,0.0,4.155,4.0869,4.2799,4.4288,0.0,0.0,4.3265,4.3936,4.475,4.3953,3.9887,0.0,0.0,0.0,0.0,0.0,0.0,0.0,0.0,0.0,0.0,0.0,0.0,0.0,0.0,0.0,0.0,0.0,0.0,0.0,0.0,0.0,0.0,0.0,0.0,0.0,0.0,0.0,0.0,0.0,0.0,0.0,0.0,0.0,0.0,0.0,0.0,0.0,0.0,0.0,0.0,0.0,0.0,0.0,0.0,0.0,0.0,0.0,0.0,0.0,0.0,0.0,0.0,0.0,4.1073,4.1894,4.3078,4.3698,4.3703,4.3705,4.4116,4.4975,4.2987,4.2461,0.0,0.0,0.0,0.0,0.0,0.0,0.0,0.0,0.0,0.0,0.0,0.0,0.0,0.0,0.0,0.0,0.0,0.0,0.0,0.0,0.0,0.0,0.0,0.0,0.0,0.0,0.0,0.0,3.7838,3.7646,3.7706,0.0,0.0,0.0,0.0,0.0,0.0,0.0,0.0,0.0,0.0,4.3081,4.4302,4.4911,0.0,0.0,4.4901,4.4629,4.4421,4.4651,4.3966,4.1315,4.0283,0.0,0.0,0.0,0.0,0.0,0.0,0.0,0.0,0.0,0.0,0.0,0.0,0.0,0.0,0.0,0.0,0.0,0.0,0.0,0.0,0.0,0.0,0.0,0.0,0.0,0.0,0.0,0.0,0.0,0.0,0.0,0.0,0.0,0.0,0.0,0.0,0.0,0.0,0.0,0.0,0.0,0.0,0.0,0.0,0.0,0.0,0.0,0.0,0.0,0.0,0.0,0.0,4.2048,4.3163,4.4032,4.4475,4.4461,4.4482,4.4756,4.5303,4.3452,4.2694,0.0,0.0,0.0,0.0,0.0,0.0,0.0,0.0,0.0,0.0,0.0,0.0,0.0,0.0,0.0,0.0,0.0,0.0,0.0,0.0,0.0,0.0,0.0,0.0,0.0,0.0,0.0,0.0,3.8901,3.8904,3.8946,0.0,0.0,0.0,0.0,0.0,0.0,0.0,0.0,0.0,0.0,4.4104,4.5879,4.586,4.5755,4.5956,4.5593,4.5244,4.5152,4.4936,4.4097,4.219,0.0,0.0,0.0,0.0,0.0,0.0,0.0,0.0,0.0,0.0,0.0,0.0,0.0,0.0,0.0,0.0,0.0,0.0,0.0,0.0,0.0,0.0,0.0,0.0,0.0,0.0,0.0,0.0,0.0,0.0,4.2327,0.0,0.0,0.0,0.0,0.0,0.0,0.0,0.0,0.0,0.0,0.0,0.0,0.0,0.0,0.0,0.0,0.0,0.0,0.0,0.0,0.0,0.0,4.3216,4.4915,4.5743,4.6223,4.6223,4.6231,4.6215,4.6196,4.3779,4.2436,4.2439,0.0,0.0,0.0,0.0,0.0,0.0,0.0,0.0,0.0,0.0,0.0,0.0,0.0,0.0,0.0,0.0,0.0,0.0,0.0,0.0,0.0,0.0,0.0,0.0,0.0,0.0,4.073,4.0704,4.0655,0.0,0.0,0.0,0.0,0.0,0.0,0.0,0.0,0.0,0.0,4.2729,4.4301,4.4436,4.509,4.5936,4.6735,4.5451,4.4936,4.6528,4.609,4.4705,0.0,0.0,0.0,0.0,0.0,0.0,0.0,0.0,0.0,0.0,0.0,0.0,0.0,0.0,0.0,0.0,0.0,0.0,0.0,0.0,0.0,0.0,0.0,0.0,0.0,0.0,0.0,4.2633,4.3614,0.0,0.0,0.0,0.0,0.0,0.0,0.0,0.0,0.0,0.0,0.0,4.416,4.4726,0.0,0.0,0.0,0.0,0.0,0.0,0.0,0.0,0.0,0.0,0.0,0.0,4.4113,4.5773,4.6152,4.6573,4.7119,4.6595,4.6305,4.6266,4.4881,4.3579,4.2436,0.0,0.0,0.0,0.0,0.0,0.0,0.0,0.0,0.0,0.0,0.0,0.0,0.0,0.0,0.0,0.0,0.0,0.0,0.0,0.0,0.0,0.0,0.0,0.0,0.0,4.1786,0.0,0.0,0.0,0.0,0.0,0.0,0.0,0.0,0.0,0.0,0.0,4.085,4.2802,4.4271,4.5379,4.5947,4.6259,4.6562,0.0,0.0,0.0,0.0,0.0,0.0,0.0,0.0,0.0,0.0,0.0,0.0,0.0,0.0,4.479,4.2586,4.1819,4.1646,4.1919,0.0,0.0,0.0,0.0,0.0,0.0,0.0,0.0,0.0,0.0,0.0,0.0,0.0,0.0,4.2747,0.0,4.3489,0.0,0.0,0.0,0.0,0.0,0.0,0.0,0.0,4.6035,4.6171,4.5914,4.6187,4.5696,0.0,4.4914,4.4899,0.0,0.0,0.0,0.0,0.0,0.0,0.0,0.0,4.4875,4.6222,4.6289,4.6573,4.71,4.6593,4.6301,4.6281,4.5148,4.3728,4.2018,4.1402,4.1248,0.0,0.0,0.0,0.0,0.0,0.0,0.0,0.0,0.0,0.0,0.0,0.0,0.0,0.0,0.0,0.0,0.0,0.0,0.0,0.0,0.0,0.0,0.0,4.1993,0.0,0.0,0.0,0.0,0.0,0.0,0.0,0.0,0.0,4.2448,4.2036,4.2446,4.4081,4.5047,4.5806,4.6374,0.0,0.0,0.0,0.0,0.0,0.0,0.0,4.5595,4.5273,4.5017,4.4874,4.509,4.6259,4.7063,4.6756,0.0,0.0,4.5098,4.4389,4.4202,4.4493,4.4725,4.4956,4.5221,4.5527,4.5737,0.0,0.0,0.0,0.0,0.0,0.0,0.0,0.0,4.166,4.1816,0.0,4.2617,0.0,0.0,0.0,0.0,0.0,4.5937,0.0,0.0,4.6393,4.6836,4.7529,4.6783,4.637,4.637,4.7099,4.7023,4.6066,4.2844,0.0,0.0,0.0,0.0,0.0,0.0,4.5481,4.6379,4.6387,4.6359,4.6417,4.6378,4.634,4.6262,4.4661,4.3002,4.1343,4.1213,4.0826,4.0125,4.1577,0.0,0.0,0.0,0.0,0.0,0.0,0.0,0.0,0.0,0.0,0.0,0.0,0.0,0.0,0.0,0.0,0.0,0.0,0.0,0.0,4.1461,0.0,0.0,0.0,0.0,0.0,0.0,0.0,0.0,0.0,0.0,4.3516,4.3873,4.4318,4.4342,0.0,0.0,0.0,0.0,4.5951,4.6827,4.6942,4.723,4.8034,4.8114,4.7769,4.6957,0.0,0.0,4.692,4.7499,4.7834,4.7001,4.7543,4.7966,4.7952,4.7129,4.6788,4.748,4.703,4.6879,4.7573,4.8222,4.8846,4.7265,0.0,0.0,0.0,0.0,4.5273,4.5176,4.5114,4.4254,4.4372,4.5155,4.4528,0.0,0.0,0.0,0.0,0.0,0.0,4.7141,4.7191,4.7806,4.8225,4.845,4.8212,4.7762,4.7159,4.679,4.6148,4.5252,4.3729,4.3396,4.4236,0.0,0.0,0.0,0.0,4.6632,4.7955,4.7516,4.7509,4.8057,4.7529,4.6924,4.6301,4.5226,4.4406,4.3898,4.269,4.2207,4.2584,4.247,0.0,0.0,0.0,0.0,0.0,0.0,0.0,0.0,0.0,0.0,0.0,0.0,0.0,0.0,0.0,0.0,0.0,0.0,0.0,4.2898,4.3194,4.3824,0.0,0.0,0.0,0.0,0.0,0.0,0.0,0.0,0.0,4.6491,4.525,4.4528,0.0,0.0,4.5821,4.6428,4.6477,4.6742,4.7549,0.0,0.0,0.0,4.8039,4.7947,4.7698,4.829,4.8694,4.8443,4.9075,4.9564,4.9283,4.9438,4.9612,4.9536,4.8427,4.7638,4.7755,4.8067,4.8391,4.868,4.9343,4.9929,5.0182,4.757,4.7714,4.7422,4.6854,4.7166,4.6909,4.6295,4.6099,4.6315,4.6708,4.5883,4.5965,4.6774,4.6773,0.0,0.0,0.0,4.8022,4.8041,4.8919,4.9497,4.9795,4.9481,4.9054,4.8508,4.7647,4.6964,4.6437,4.5956,4.5998,4.6451,0.0,0.0,4.6009,4.6222,4.698,4.8224,4.7514,4.7334,4.7784,4.7334,4.6826,4.632,4.5792,4.5343,4.5011,4.4015,4.3355,4.3184,4.3031,4.3231,0.0,0.0,0.0,0.0,0.0,0.0,0.0,0.0,0.0,0.0,0.0,4.4225,0.0,0.0,0.0,0.0,4.2717,4.2812,4.3201,4.3975,0.0,0.0,0.0,0.0,0.0,0.0,0.0,4.6305,4.584,4.5975,4.7266,4.6181,4.5557,4.6402,4.6532,4.6757,4.7271,0.0,4.7568,4.836,4.8483,4.8616,4.8968,4.901,4.897,4.8963,4.9278,4.957,4.9589,5.0,5.0277,5.0296,5.0296,5.0417,5.0741,4.9704,4.8787,4.8806,4.9194,4.9563,4.9582,5.0245,5.0812,5.2595,5.1729,5.0871,4.9508,4.7996,4.8699,4.8147,4.6786,4.7488,4.7784,4.7654,4.6857,4.6903,4.7605,4.7605,0.0,4.764,4.8498,4.8895,4.8913,4.9792,5.0611,5.1331,5.0553,5.0163,5.0065,4.9262,4.8872,4.8775,4.8768,4.8833,4.8837,4.6566,4.6224,4.7677,4.7093,4.7093,4.7892,4.7144,4.6672,4.6515,4.6436,4.6358,4.6301,4.6301,4.593,4.5148,4.503,4.423,4.265,4.3204,4.3228,4.2505,0.0,0.0,0.0,0.0,0.0,0.0,0.0,0.0,0.0,0.0,0.0,0.0,0.0,0.0,0.0,4.3753,0.0,4.3401,4.4146,0.0,0.0,0.0,4.5633,4.5434,4.5462,4.5496,4.552,0.0,0.0,4.679,0.0,4.7268,4.7996,4.8033,4.8036,4.8074,4.8107,4.837,4.9181,4.929,4.9599,5.0239,5.0448,5.0514,5.0598,5.0547,5.0537,5.0556,5.0569,5.0531,5.0608,5.0531,5.0735,5.1538,5.1028,5.0487,5.0493,5.0353,5.0277,5.0277,5.0818,5.1328,5.6062,5.5222,5.4361,5.2627,5.0511,5.0707,5.0548,5.0152,4.9704,4.9491,4.9416,4.8571,4.8317,4.8489,4.8478,4.8488,4.854,4.934,4.9723,4.9774,5.0612,5.114,5.1294,5.1121,5.0672,5.0029,4.9813,4.9404,4.8821,4.8805,4.9135,4.9745,4.9172,4.9089,4.9494,4.9964,5.0276,5.049,5.0294,4.9529,4.8233,4.7607,4.6983,4.632,4.6301,4.6184,4.5988,4.5343,4.4503,4.3451,4.2944,4.2596,4.2427,4.3426,0.0,0.0,0.0,0.0,0.0,0.0,0.0,0.0,0.0,4.7245,4.7859,0.0,4.6873,0.0,4.5711,4.4889,4.4204,4.4772,0.0,0.0,4.5979,4.6234,4.5486,4.5941,4.6328,4.6387,4.6918,4.762,4.8438,4.9103,4.9578,4.9681,4.872,4.8227,4.8802,4.8861,4.9141,4.9907,5.0046,5.0119,5.0428,5.0927,5.1522,5.2122,5.2186,5.2193,5.2212,5.2212,5.2212,5.2199,5.2212,5.2314,5.248,5.2333,5.2199,5.2123,5.1219,5.0296,5.0296,5.0506,5.064,5.7726,5.7505,5.6296,5.516,5.4137,5.3413,5.2854,5.2482,5.1996,5.1583,5.1128,4.989,4.9317,4.9328,4.9336,4.9547,4.9937,5.0385,5.0579,5.0618,5.1067,5.13,5.13,5.13,5.1047,5.0579,5.056,5.0344,4.9917,4.9917,5.0144,5.0635,5.0643,5.0818,5.1214,5.1349,5.159,5.198,5.1213,5.0147,4.8823,4.7983,4.75,4.7412,4.7023,4.7027,4.7445,4.6995,4.6332,4.5473,4.4981,4.4533,4.417,4.4967,4.5651,0.0,0.0,0.0,0.0,0.0,0.0,0.0,0.0,0.0,0.0,0.0,4.6961,4.6919,4.5876,4.5176,4.5081,4.5644,4.588,4.5505,4.6211,4.6344,4.5437,4.6072,4.6578,4.6609,4.7329,4.8174,4.8996,4.9512,4.9954,5.0225,4.957,4.9188,4.957,4.9663,4.9813,5.0266,5.0663,5.1022,5.1334,5.1811,5.227,5.2696,5.2792,5.2792,5.2792,5.2792,5.2792,5.2792,5.2792,5.2932,5.3226,5.3015,5.29,5.3073,5.2284,5.1476,5.1362,5.1362,5.1279,5.8533,5.9026,5.7465,5.7162,5.76,5.6133,5.5033,5.4213,5.4118,5.3506,5.2494,5.0879,5.0151,5.017,5.017,5.0579,5.1298,5.13,5.13,5.13,5.13,5.13,5.13,5.13,5.13,5.13,5.13,5.13,5.13,5.13,5.1341,5.1464,5.1466,5.1973,5.2866,5.2244,5.2198,5.2843,5.1268,5.0,4.9157,4.84,4.8316,4.888,4.812,4.805,4.8841,4.8899,4.8488,4.7668,4.7605,4.7155,4.6222,4.6958,4.7386,0.0,4.8191,0.0,0.0,0.0,0.0,0.0,0.0,0.0,0.0,4.6517,4.649,4.6381,4.5493,4.52,4.5865,4.6352,4.6349,4.5693,4.6175,4.6305,4.5747,4.6252,4.6667,4.6667,4.7431,4.8271,4.897,4.9161,4.9563,5.0168,5.0403,5.0365,5.0308,5.0378,5.0474,5.0468,5.1194,5.1977,5.2709,5.2938,5.3015,5.311,5.3269,5.3135,5.3225,5.32,5.3161,5.3155,5.3219,5.3385,5.4033,5.3576,5.3385,5.3995,5.3505,5.2921,5.2647,5.2539,5.2437,5.9923,5.9958,5.8947,5.8202,5.7654,5.7371,5.6771,5.5972,5.5268,5.4075,5.2551,5.1515,5.1067,5.1067,5.1047,5.1143,5.13,5.13,5.13,5.13,5.13,5.13,5.13,5.13,5.13,5.13,5.13,5.13,5.13,5.13,5.1668,5.2342,5.2362,5.314,5.4629,0.0,0.0,0.0,5.273,5.1785,5.0942,5.0761,5.0397,4.9873,4.9053,0.0,4.888,4.8855,4.8443,4.7662,4.7603,0.0,0.0,0.0,0.0,0.0,0.0,0.0,0.0,0.0,0.0,0.0,4.8536,4.8477,4.8335,4.8302,4.8019,4.7332,4.6923,4.651,4.6039,4.5835,4.5972,4.6492,4.653,4.6716,4.724,4.745,4.7545,4.7564,4.8315,4.8913,4.9123,4.9639,5.0111,5.0271,5.0913,5.1022,5.0372,5.0907,5.1328,5.1404,5.2073,5.2862,5.3722,5.3836,5.4104,5.4696,5.4919,5.4861,5.4779,5.474,5.4714,5.4676,5.4699,5.4647,5.4836,5.4766,5.4608,5.4855,5.4734,5.4259,5.2997,5.2672,5.2569,6.0538,0.0,5.9544,5.8979,0.0,5.8531,5.7869,5.7013,5.5743,5.4455,5.3188,5.2312,5.2195,5.2545,5.2136,5.2175,5.2584,5.2584,5.2584,5.2584,5.2586,5.2565,5.2584,5.2136,5.1941,5.1943,5.1922,5.1922,5.1961,5.237,5.2811,5.3223,5.3242,5.3699,5.4515,5.4555,5.4354,5.3966,5.31,5.2231,5.1379,5.0942,5.0526,5.0108,0.0,0.0,0.0,0.0,0.0,0.0,0.0,0.0,0.0,0.0,0.0,4.6881,4.7653,4.796,4.756,4.7932,4.7968,4.7552,4.7921,4.8158,4.8166,4.815,4.7963,4.7554,4.7704,4.7648,4.7188,4.6905,4.6934,4.7241,4.7195,4.7335,4.7755,4.8195,4.8449,4.8525,4.9165,4.9631,4.965,4.992,5.0188,5.022,5.0569,5.0741,5.0435,5.1368,5.2289,5.2747,5.3129,5.3741,5.4524,5.4734,5.481,5.5211,5.5294,5.528,5.5247,5.5202,5.5155,5.5155,5.5102,5.5094,5.5071,5.5073,5.5087,5.5052,5.5045,5.4843,5.3983,5.3804,5.3629,6.0947,6.1471,6.0049,5.9798,6.0246,5.9542,5.8745,5.7791,0.0,0.0,0.0,5.3208,5.3227,5.3831,5.3169,5.3227,5.389,5.4065,5.4046,5.3927,5.4065,5.4046,5.3851,5.3149,5.2818,5.2838,5.2838,5.2838,5.2857,5.3558,5.3888,5.3888,5.3888,5.3987,5.4123,5.4123,5.4122,5.4096,5.3441,5.2632,5.178,5.1085,5.0675,5.0564,4.9707,4.9192,4.9035,4.9033,4.8954,4.8818,4.8809,4.8728,4.8578,4.858,4.8493,4.8343,4.847,4.8262,4.7564,4.7642,4.7421,4.6725,4.7308,4.7664,4.7504,4.7648,4.7737,4.7735,4.8238,4.8499,4.8406,4.8242,4.8161,4.8111,4.8091,4.8111,4.8246,4.8839,4.9291,4.9356,4.9786,5.0175,5.0137,5.0126,5.0101,5.012,5.0342,5.0406,5.0672,5.1656,5.2742,5.3697,5.3881,5.4314,5.5097,5.5281,5.5306,5.5183,5.5189,5.5169,5.5114,5.5087,5.508,5.508,5.5073,5.505,5.5,5.5021,5.5057,5.4992,5.4985,5.4997,5.4997,5.4985,5.4698,6.149,6.1568,6.1334,6.0867,6.0302,6.0168,5.9642,5.8628,5.6249,5.5134,5.4959,5.4104,5.3773,5.389,5.3773,5.3792,5.3948,5.4669,5.463,0.0,5.4669,5.4611,5.3909,5.3773,5.3714,5.3714,5.3714,5.3714,5.3734,5.3851,5.3888,5.3907,5.3888,5.4279,5.4961,5.5018,5.5002,5.5011,5.4888,5.4416,5.3555,5.3462,5.3085,5.2348,5.1468,5.067,4.9951,4.9903,4.9564,4.8845,4.8804,4.848,4.7737,4.7706,4.7351,4.668,4.7278,4.7627,4.7526,4.8187,4.8557,4.8456,4.8555,4.8302,4.7604,4.8187,4.8633,4.8612,4.8735,4.8748,4.8708,4.8588,4.8715,4.9152,4.9148,4.928,4.9759,4.9939,5.0035,4.9993,5.0044,5.0139,5.0114,5.0101,5.0089,5.0196,5.0545,5.1345,5.17,5.1846,5.2297,5.3516,5.3916,5.4271,5.4951,5.5128,5.5116,5.5121,5.5076,5.5012,5.4992,5.4943,5.4945,5.5021,5.499,5.4946,5.4923,5.4923,5.4938,5.4923,5.4923,5.4923,5.4923,5.4923,5.4859,6.1588,6.1588,6.1588,6.1373,6.0964,6.0499,6.007,5.9561,5.7964,5.699,5.6483,5.5684,5.5295,5.5256,5.4805,5.4864,5.5333,5.5725,5.5706,5.5355,5.5725,5.5918,5.5879,5.5039,5.4844,5.5256,5.4805,5.4591,5.4649,5.508,5.5316,5.5314,5.5314,5.5509,5.5879,5.5899,5.5918,5.5862,5.4983,5.4309,5.3899,5.3917,5.332,5.1996,5.1546,5.0727,4.9442,4.9396,4.9214,4.8805,4.8806,4.8623,4.8236,4.8206,4.8029,4.7661,4.799,4.8204,4.8204,4.8573,4.8808,4.8808,4.9218,4.9265,4.8851,4.9183,4.944,4.9415,4.9803,5.0058,4.9947,4.9755,4.9725,4.9942,4.9853,5.004,5.0697,5.0856,5.0844,5.0793,5.0773,5.0563,5.0107,5.0018,4.9998,5.0036,5.041,5.0771,5.1113,5.0885,5.1406,5.3431,5.4244,5.4663,5.4998,5.5082,5.4909,5.45,5.441,5.437,5.4342,5.4311,5.4486,5.4858,5.4916,5.4901,5.4901,5.4901,5.4901,5.4901,5.4901,5.4901,5.4901,5.4901,5.4901,6.1588,6.1588,6.1588,6.1588,6.1549,6.0886,6.0596,6.0518,5.9856,5.9096,5.8219,5.7226,5.6758,5.668,5.5879,5.5957,5.6721,5.6974,5.707,5.707,5.7052,5.7284,5.7537,5.6347,5.6113,5.6641,5.6074,5.576,5.5838,5.6271,5.6604,5.6719,5.6585,5.6585,5.6758,5.6604,5.6485,5.6409,5.5158,5.4379,5.4182,5.4201,5.3385,5.1749,5.1593,5.0794,4.9216,4.906,4.8982,4.8808,4.8808,4.8808,4.8808,4.8808,4.8808,4.8808,4.8962,4.9157,4.9352,4.9555,4.9629,4.9648,5.0183,5.0531,5.0478,5.0505,5.0436,5.0284,5.0741,5.1056,5.0889,5.0774,5.0661,5.0521,5.0377,5.048,5.1034,5.1155,5.1129,5.1084,5.1025,5.0668,5.0168,4.992,4.9899,4.9899,4.9893,4.9893,4.9893,5.0019,5.1154,5.2615,5.3835,5.4144,5.4417,5.441,5.4142,5.3554,5.349,5.345,5.3426,5.3404,5.3726,5.4333,5.4579,5.4674,5.4825,5.4901,5.4901,5.4901,5.4901,5.4901,5.4901,5.4901,5.4901,6.1588,6.1588,6.1588,6.1588,6.1568,6.149,6.1432,6.1432,6.1354,6.0867,5.9895,5.8317,5.7596,5.7479,5.6741,5.6855,5.7635,5.8414,5.8726,5.8706,5.8765,5.8395,5.783,5.7518,5.7518,5.7596,5.7459,5.7342,5.7381,5.6836,5.6894,5.742,5.6858,5.6894,5.744,5.6875,5.6505,5.6485,5.6349,5.5881,5.5137,5.5098,5.426,5.2526,5.2467,5.1671,4.9976,4.9898,4.9547,4.8886,4.8847,4.8828,4.8847,4.8828,4.8826,4.8925,4.9527,5.0229,5.1024,5.1745,5.2086,5.2159,5.21,5.2127,5.2135,5.2141,5.1813,5.1263,5.1108,5.1155,5.1084,5.1073,5.1023,5.0921,5.0855,5.0715,5.0589,5.0418,5.0309,5.0059,5.0254,4.9994,4.9963,4.9899,4.9893,4.9893,5.0019,4.9987,4.995,5.0523,5.0921,5.1397,5.1606,5.1992,5.258,5.266,5.275,5.2603,5.252,5.2532,5.2544,5.262,5.2809,5.3814,5.401,5.4276,5.4693,5.4901,5.4901,5.4901,5.4901,5.4901,5.4901,5.4901,5.4901,6.1588,6.1588,6.1588,6.1588,6.1588,6.1588,6.1588,6.1588,6.1588,6.1393,6.0947,5.9759,5.896,5.8453,5.8122,5.8161,5.8473,5.8843,5.8999,5.8999,5.8999,5.9074,5.9155,5.8122,5.82,5.9055,5.8219,5.7966,5.8336,5.8141,5.8161,5.8414,5.8122,5.8141,5.8395,5.7635,5.7226,5.7187,5.6741,5.631,5.6015,5.5957,5.5139,5.3578,5.3383,5.2545,5.0989,5.0774,5.0599,5.0307,5.0268,5.0502,5.1008,5.056,5.0735,5.1688,5.2117,5.2438,5.2762,5.3086,5.3249,5.3199,5.3193,5.3142,5.31,5.3116,5.2928,5.2563,5.2106,5.1787,5.1746,5.1676,5.1616,5.153,5.1352,5.1313,5.1704,5.1174,5.079,5.0689,5.0675,5.0429,5.0019,4.9893,4.9893,4.9981,5.0277,5.0467,5.0075,5.0656,5.0896,5.0561,5.0429,5.1016,5.2014,5.2393,5.2184,5.1824,5.1691,5.1691,5.1729,5.2165,5.2696,5.3518,5.3935,5.4287,5.4818,5.4894,5.4901,5.4901,5.4901,5.4901,5.4901,5.4901,5.4901,6.1958,6.1919,6.1705,6.1588,6.1588,6.1588,6.1588,6.1588,6.1588,6.1588,6.1529,6.0925,6.0321,5.972,5.9232,5.9096,5.933,5.9349,5.9505,5.9639,5.9486,5.97,6.0107,5.9077,5.9077,5.9934,5.9057,5.8628,5.8999,5.8999,5.9116,5.9269,5.9116,5.9113,5.9252,5.8492,5.8063,5.8005,5.7459,5.707,5.6855,5.6816,5.5998,5.4455,5.426,5.3442,5.1747,5.1649,5.1532,5.13,5.13,5.1591,5.2175,5.1863,5.2327,5.3658,5.3873,5.385,5.378,5.3969,5.4092,5.4029,5.4009,5.3994,5.3948,5.3917,5.391,5.3827,5.3321,5.2941,5.2577,5.2485,5.2409,5.231,5.2056,5.2088,5.219,5.1648,5.1111,5.0897,5.0694,5.0637,5.0063,4.9893,4.9893,4.9962,5.0618,5.0896,5.0246,5.058,5.0921,5.0075,4.9924,5.0379,5.1471,5.1585,5.1388,5.1123,5.0827,5.0827,5.0846,5.1414,5.2222,5.276,5.3719,5.4477,5.4799,5.4901,5.4901,5.4901,5.4901,5.4901,5.4901,5.4901,5.4901,6.2854,6.2679,6.1938,6.1588,6.1588,6.1588,6.1588,6.1588,6.1588,6.1588,6.1588,6.1529,6.149,6.1276,5.9815,5.9484,6.0168,6.0246,6.0633,6.1218,6.0594,6.0263,6.0302,6.0204,6.0224,6.038,6.0107,5.97,5.9135,5.9077,5.9427,6.0185,5.9525,5.9486,6.001,5.9388,5.894,5.8921,5.8726,5.8414,5.7732,5.7635,5.6814,5.5448,5.5134,5.426,5.2779,5.2526,5.2156,5.1339,5.132,5.1339,5.1456,5.2136,5.2936,5.3694,5.3823,5.3813,5.3905,5.4468,5.4849,5.4835,5.4785,5.4752,5.4756,5.4752,5.4748,5.4735,5.4632,5.4279,5.3656,5.3462,5.334,5.3172,5.3132,5.2639,5.1636,5.1536,5.0939,5.0262,5.0075,5.0038,4.9912,4.9893,4.9893,5.0038,5.0637,5.0865,5.0265,5.0637,5.0732,5.0189,4.9893,4.995,5.0038,5.0398,5.0284,5.0151,5.0246,5.0075,4.9987,5.0196,5.1149,5.1995,5.2753,5.3586,5.4496,5.4901,5.4901,5.4901,5.4901,5.4901,5.4901,5.4901,5.4901,6.2562,6.2055,6.1724,6.1588,6.1588,6.1588,6.1588,6.1588,6.1588,6.1588,6.1588,6.1588,6.1588,6.1568,6.0964,6.0847,6.112,6.114,6.1295,6.1549,6.1276,6.114,6.1062,6.0594,6.0633,6.1003,6.0577,6.0438,6.0674,6.0672,6.0808,6.1042,6.0828,6.0847,6.0925,6.0263,5.9836,5.972,5.8784,5.8258,5.8453,5.7985,5.7635,5.7574,5.6033,5.4649,5.3461,5.2896,5.2448,5.2136,5.161,5.1554,5.2134,5.2909,5.3473,5.3755,5.4271,5.4766,5.5179,5.5493,5.5649,5.5613,5.5584,5.5528,5.5586,5.5582,5.5563,5.5563,5.5543,5.5369,5.5103,5.4658,5.4235,5.4068,5.3893,5.3393,5.2405,5.1681,5.0909,5.0134,4.9893,4.9893,4.9893,4.9912,4.9893,4.9987,5.0656,5.077,5.0322,5.0637,5.0903,5.017,4.9893,4.9893,4.9893,4.9931,4.9912,4.9912,4.9931,4.9981,4.9943,5.0379,5.1256,5.2279,5.2715,5.3378,5.4534,5.4901,5.4901,5.4901,5.4901,5.4901,5.4901,5.4901,5.4901,6.2718,6.2348,6.1822,6.1588,6.1588,6.1588,6.1588,6.1588,6.1588,6.1588,6.1588,6.1588,6.1588,6.1588,6.1588,6.1588,6.1588,6.1588,6.1588,6.1588,6.1588,6.1588,6.151,6.1003,6.1006,6.1454,6.1003,6.1042,6.1529,6.1588,6.1588,6.1568,6.1588,6.1588,6.149,6.1003,6.073,6.046,5.9544,5.9174,5.931,5.857,5.8219,5.8278,5.6892,5.5604,5.4768,5.4164,5.3541,5.3011,5.2163,5.1953,5.2519,5.3034,5.3591,5.4078,5.4634,5.5276,5.594,5.606,5.6032,5.5997,5.5988,5.6008,5.6008,5.6008,5.6008,5.6008,5.6008,5.6008,5.5911,5.5485,5.5003,5.4626,5.4369,5.3757,5.2542,5.1707,5.091,5.0115,4.9893,4.9893,4.995,5.017,5.0322,5.0315,5.1054,5.1263,5.0959,5.0884,5.1054,5.0448,5.0372,5.0208,5.017,5.0208,5.0075,5.0057,4.9905,4.9943,5.017,5.0656,5.1331,5.2374,5.3169,5.3814,5.4363,5.4769,5.4901,5.4901,5.4901,5.4901,5.4901,5.4901,5.4901,6.3283,6.3575,6.2289,6.1588,6.1588,6.1588,6.1588,6.1588,6.1588,6.1588,6.1588,6.1588,6.1588,6.1588,6.1588,6.1588,6.1588,6.1588,6.1588,6.1588,6.1588,6.1588,6.1568,6.151,6.1471,6.1588,6.1568,6.1549,6.1588,6.1588,6.1588,6.1588,6.1588,6.1588,6.1588,6.151,6.1529,6.1408,6.1172,6.0899,6.0321,5.9355,5.8593,5.8033,5.7721,5.7193,5.6457,5.6325,5.5446,5.4018,5.3006,5.2488,5.2424,5.2487,5.3133,5.4395,5.4791,5.5172,5.5874,5.5885,5.573,5.5853,5.593,5.5872,5.5834,5.595,5.6008,5.6008,5.6008,5.6008,5.6008,5.593,5.5544,5.4728,5.4639,5.3913,5.2431,5.1594,5.1009,5.0168,4.9925,4.9893,5.0075,5.0561,5.0971,5.1161,5.1729,5.2203,5.1976,5.1654,5.1293,5.1199,5.1028,5.0751,5.0637,5.0542,5.0372,5.0227,5.0038,4.9962,5.0303,5.0732,5.1275,5.2184,5.2582,5.3245,5.4477,5.4825,5.4787,5.4787,5.4844,5.4901,5.4901,5.4901,5.4901,6.2153,6.2328,6.1841,6.1588,6.1588,6.1588,6.1588,6.1588,6.1588,6.1588,6.1588,6.1588,6.1588,6.1588,6.1588,6.1588,6.1588,6.1588,6.1588,6.1588,6.1588,6.1588,6.1588,6.1588,6.1588,6.1588,6.1588,6.1588,6.1588,6.1588,6.1588,6.1588,6.1588,6.1588,6.1585,6.1588,6.1573,6.1457,6.0928,6.0734,6.0854,5.9622,5.8997,5.9269,5.8786,5.805,5.7233,5.6666,5.5848,5.4758,5.3827,5.3025,5.2489,5.2321,5.2826,5.3689,5.3329,5.4018,5.5552,5.5006,5.4677,5.5045,5.52,5.518,5.5258,5.5718,5.5988,5.6008,5.6008,5.6008,5.6008,5.6008,5.5796,5.5421,5.5382,5.4811,5.3377,5.2165,5.1084,5.0272,4.9998,4.9918,5.0075,5.0713,5.1331,5.1388,5.1976,5.2449,5.2393,5.2222,5.2051,5.2014,5.1691,5.1464,5.1426,5.1338,5.1111,5.0713,5.0353,5.0201,5.0505,5.0618,5.1206,5.1824,5.2203,5.298,5.4212,5.4731,5.4693,5.4769,5.4882,5.4901,5.4901,5.4901,5.4901,6.2075,6.2055,6.1744,6.1588,6.1588,6.1588,6.1588,6.1588,6.1588,6.1588,6.1588,6.1588,6.1588,6.1588,6.1588,6.1588,6.1588,6.1588,6.1588,6.1588,6.1588,6.1588,6.1588,6.1588,6.1588,6.1588,6.1588,6.1588,6.1588,6.1588,6.1588,6.1588,6.1568,6.1558,6.1556,6.1537,6.1506,6.1376,6.0942,6.0903,6.1025,6.0001,5.9376,5.9516,5.9072,5.8218,5.713,5.676,5.6329,5.558,5.4906,5.4044,5.291,5.2782,5.2973,5.3243,5.3173,5.3598,5.518,5.4948,5.4465,5.4813,5.5064,5.5084,5.5045,5.5543,5.5988,5.6008,5.6008,5.6008,5.6008,5.6008,5.5964,5.589,5.5533,5.4983,5.3872,5.2543,5.1673,5.1209,5.1104,5.0916,5.1006,5.1547,5.2089,5.2203,5.2544,5.3101,5.3044,5.2771,5.2696,5.2696,5.2665,5.2468,5.2336,5.2146,5.19,5.1331,5.077,5.0675,5.0751,5.0486,5.0713,5.1616,5.2165,5.3037,5.4181,5.4477,5.4572,5.4723,5.4901,5.4901,5.4901,5.4901,5.4901,6.2893,6.2796,6.1977,6.1588,6.1588,6.1588,6.1588,6.1588,6.1588,6.1588,6.1588,6.1588,6.1588,6.1588,6.1588,6.1588,6.1588,6.1588,6.1588,6.1588,6.1588,6.1588,6.1588,6.1588,6.1588,6.1588,6.1588,6.1588,6.1588,6.1588,6.1588,6.1583,6.154,6.1503,6.15,6.1444,6.1414,6.1361,6.1322,6.1335,6.1301,6.0482,5.9717,5.9022,5.8727,5.7931,5.6814,5.6856,5.6856,5.6339,5.6205,5.5541,5.4156,5.3734,5.3927,5.3884,5.3652,5.4058,5.4851,5.5122,5.5258,5.4871,5.5316,5.564,5.5026,5.5528,5.6008,5.6008,5.6008,5.6008,5.6008,5.6008,5.6003,5.5911,5.5503,5.4657,5.3484,5.2685,5.2433,5.2529,5.2666,5.2576,5.2226,5.293,5.3385,5.3537,5.3594,5.4029,5.4181,5.3757,5.3226,5.3226,5.3442,5.3158,5.2904,5.2487,5.2184,5.1445,5.1016,5.099,5.1047,5.0808,5.1225,5.2014,5.2279,5.3177,5.3878,5.4276,5.4591,5.4799,5.4894,5.4901,5.4901,5.4901,5.4901,6.2893,6.2796,6.1977,6.1588,6.1588,6.1588,6.1588,6.1588,6.1588,6.1588,6.1588,6.1588,6.1588,6.1588,6.1588,6.1588,6.1588,6.1588,6.1588,6.1588,6.1588,6.1588,6.1588,6.1588,6.1588,6.1588,6.1588,6.1588,6.1588,6.1588,6.1588,6.1585,6.1548,6.1497,6.1491,6.1434,6.1336,6.1264,6.1256,6.1243,6.1077,6.041,5.9878,5.9568,5.8449,5.7612,5.6969,5.6581,5.6654,5.7058,5.765,5.7454,5.6283,5.6162,5.5872,5.5292,5.4813,5.4832,5.5311,5.4832,5.4465,5.4774,5.52,5.5021,5.489,5.5543,5.593,5.6008,5.6008,5.6008,5.6008,5.5969,5.5969,5.5969,5.5679,5.5241,5.4521,5.4067,5.3655,5.306,5.2893,5.2754,5.2814,5.3215,5.3764,5.3859,5.4181,5.4553,5.4636,5.4636,5.406,5.4067,5.4105,5.3726,5.3321,5.2911,5.2343,5.1502,5.118,5.1218,5.1388,5.1502,5.2544,5.3757,5.2809,5.3196,5.384,5.4371,5.4617,5.4856,5.4894,5.4901,5.4901,5.4901,5.4901,6.3536,6.2854,6.2348,6.1919,6.1607,6.1588,6.1588,6.1588,6.1588,6.1588,6.1588,6.1588,6.1588,6.1588,6.1588,6.1588,6.1588,6.1588,6.1588,6.1588,6.1588,6.1588,6.1588,6.1588,6.1588,6.1588,6.1588,6.1588,6.1588,6.1588,6.1588,6.1573,6.1506,6.1464,6.1454,6.1337,6.1243,6.1174,6.1141,6.1134,6.1045,6.0654,6.0214,5.9865,5.8816,5.8174,5.7419,5.7153,5.7071,5.711,5.7811,5.8202,5.7458,5.7671,5.7424,5.6607,5.6085,5.6085,5.6259,5.5582,5.5389,5.5756,5.5853,5.5621,5.5582,5.6046,5.651,5.6066,5.6008,5.6008,5.593,5.5722,5.5683,5.5872,5.5698,5.547,5.5253,5.4864,5.4555,5.4185,5.3987,5.3798,5.3581,5.3969,5.4139,5.4295,5.4572,5.478,5.4882,5.4901,5.4882,5.4693,5.4598,5.4276,5.4041,5.3688,5.3101,5.2222,5.1976,5.1919,5.1805,5.2089,5.2771,5.3529,5.315,5.315,5.384,5.4389,5.4674,5.4844,5.4882,5.4901,5.4901,5.4901,5.4901,6.4274,6.2893,6.2815,6.2309,6.1646,6.1588,6.1588,6.1588,6.1588,6.1588,6.1588,6.1588,6.1588,6.1588,6.1588,6.1588,6.1588,6.1588,6.1588,6.1588,6.1588,6.1588,6.1588,6.1588,6.1588,6.1588,6.1588,6.1588,6.1588,6.1588,6.1583,6.1553,6.1467,6.1388,6.1352,6.1182,6.1113,6.1113,6.1113,6.1113,6.1099,6.0978,6.0692,6.0209,5.9822,5.8894,5.8062,5.7849,5.7675,5.622,5.7796,5.8333,5.7845,5.843,5.841,5.7869,5.7613,5.7555,5.7439,5.7303,5.7303,5.7323,5.7361,5.7052,5.651,5.6781,5.6859,5.6066,5.6008,5.6008,5.593,5.5393,5.5427,5.5795,5.5393,5.5369,5.5659,5.535,5.5128,5.5566,5.5445,5.5443,5.5223,5.5052,5.4893,5.4579,5.4818,5.4856,5.4901,5.4901,5.4901,5.4863,5.4806,5.4806,5.4674,5.4541,5.3878,5.3196,5.312,5.2968,5.2438,5.2544,5.2715,5.2999,5.3548,5.3802,5.3992,5.4408,5.4731,5.4844,5.4901,5.4901,5.4901,5.4901,5.4901,6.3244,6.2854,6.2153,6.1763,6.1607,6.1588,6.1588,6.1588,6.1588,6.1588,6.1588,6.1588,6.1588,6.1588,6.1588,6.1588,6.1588,6.1588,6.1588,6.1588,6.1588,6.1607,6.1627,6.1666,6.1627,6.1607,6.1588,6.1588,6.1588,6.1581,6.1566,6.1515,6.1428,6.1355,6.1244,6.1152,6.1094,6.1094,6.1094,6.1094,6.1094,6.1094,6.0997,6.0731,6.0248,5.9416,5.8449,5.783,5.74,5.7535,5.8526,5.9362,5.9261,5.9938,5.9977,5.9455,5.9242,5.9029,5.8488,5.8352,5.8333,5.8415,5.8314,5.7946,5.7149,5.7187,5.6917,5.622,5.6008,5.6008,5.5969,5.5853,5.5776,5.5834,5.5756,5.564,5.5892,5.5795,5.5405,5.5099,5.5327,5.5582,5.5243,5.5178,5.5073,5.4941,5.4909,5.4901,5.4909,5.4923,5.4901,5.4901,5.4901,5.4844,5.4636,5.456,5.4231,5.3878,5.3897,5.3916,5.3385,5.3347,5.3643,5.4041,5.4503,5.4598,5.4408,5.4541,5.4882,5.4901,5.4901,5.4901,5.4901,5.4901,5.4901,6.3244,6.2854,6.2406,6.1977,6.1627,6.1588,6.1588,6.1588,6.1588,6.1588,6.1588,6.1588,6.1588,6.1588,6.1588,6.1588,6.1588,6.1588,6.1588,6.1705,6.1958,6.2211,6.2211,6.2153,6.2055,6.1685,6.1588,6.1588,6.1583,6.1563,6.1532,6.1475,6.1368,6.1272,6.1196,6.113,6.1103,6.1094,6.1094,6.1094,6.1094,6.1094,6.1094,6.1079,6.0654,6.0054,5.9223,5.8836,5.8352,5.8352,5.9145,5.9691,5.9595,6.0441,6.0789,6.0576,6.046,6.0306,5.9841,5.9459,5.9382,5.9706,5.9435,5.8743,5.8178,5.7907,5.7245,5.6375,5.6008,5.6008,5.5988,5.5543,5.5606,5.5872,5.5659,5.5316,5.5026,5.5176,5.5294,5.4809,5.494,5.5007,5.4969,5.5184,5.5307,5.5222,5.5099,5.5078,5.5021,5.5014,5.4923,5.4901,5.4901,5.4806,5.4541,5.4439,5.442,5.4306,5.4389,5.442,5.4231,5.442,5.475,5.4882,5.4844,5.4863,5.475,5.4901,5.4901,5.4901,5.4901,5.4901,5.492,5.4958,5.4939,6.3436,6.2698,6.2698,6.227,6.1646,6.1588,6.1588,6.1588,6.1588,6.1588,6.1588,6.1588,6.1588,6.1588,6.1588,6.1588,6.1588,6.1588,6.1588,6.1666,6.2153,6.2348,6.2445,6.2387,6.2172,6.1627,6.1588,6.1585,6.1561,6.1509,6.1472,6.1434,6.1298,6.12,6.1163,6.113,6.1094,6.1094,6.1094,6.1094,6.1094,6.1094,6.1094,6.1079,6.1021,6.0731,6.0132,5.9788,5.9474,5.8918,5.9517,5.944,5.9416,6.0132,6.1094,6.1075,6.0997,6.0905,6.075,6.0441,6.0344,6.1055,6.0499,5.9711,5.9034,5.8685,5.7907,5.6859,5.6182,5.6008,5.595,5.5606,5.5505,5.5718,5.5374,5.4697,5.4213,5.4465,5.4708,5.454,5.4682,5.4839,5.5061,5.5305,5.5422,5.5486,5.5352,5.5242,5.5196,5.5135,5.5085,5.5,5.5014,5.4938,5.4689,5.4598,5.4553,5.4572,5.4712,5.4742,5.478,5.4837,5.4901,5.4901,5.4901,5.4901,5.4901,5.4901,5.4901,5.4901,5.4901,5.4901,5.4958,5.5015,5.5091,6.2581,6.1802,6.1822,6.1724,6.1607,6.1588,6.1588,6.1588,6.1588,6.1588,6.1588,6.1588,6.1588,6.1588,6.1588,6.1588,6.1588,6.1588,6.1588,6.1607,6.1938,6.2036,6.2094,6.2153,6.1921,6.1646,6.1644,6.1685,6.1609,6.1484,6.1706,6.1384,6.129,6.1264,6.1241,6.1103,6.1094,6.1094,6.1094,6.1094,6.1094,6.1094,6.1094,6.1094,6.1094,6.1002,6.077,6.0252,5.9827,5.9706,5.9846,5.9822,5.9885,6.0615,6.1041,6.1094,6.1094,6.1094,6.1041,6.0983,6.092,6.1036,6.0905,6.046,5.9865,5.9571,5.87,5.7516,5.653,5.6104,5.6008,5.593,5.5872,5.5969,5.5853,5.5586,5.535,5.5103,5.4639,5.4228,5.4499,5.485,5.5104,5.5382,5.56,5.5646,5.5539,5.5449,5.5419,5.5364,5.532,5.5242,5.5169,5.505,5.4889,5.484,5.4806,5.4769,5.4825,5.4825,5.4856,5.4882,5.4901,5.4901,5.4901,5.4901,5.4901,5.4901,5.4901,5.4901,5.4901,5.4901,5.4977,5.5091,5.5621,6.1997,6.1588,6.1588,6.1588,6.1588,6.1588,6.1588,6.1588,6.1588,6.1588,6.1588,6.1588,6.1588,6.1588,6.1588,6.1588,6.1607,6.1588,6.1588,6.1646,6.2016,6.227,6.2211,6.2211,6.2562,6.2659,6.254,6.2201,6.2175,6.2564,6.2505,6.2477,6.2127,6.1798,6.163,6.1331,6.1157,6.1094,6.1094,6.1094,6.1094,6.1094,6.1094,6.1094,6.1094,6.1094,6.1017,6.0809,6.0538,6.0518,6.0518,6.0518,6.0615,6.0789,6.1094,6.1094,6.1094,6.1094,6.1094,6.1094,6.1075,6.1094,6.1094,6.0712,6.0151,5.9749,5.9304,5.8294,5.7753,5.7346,5.7424,5.6936,5.6723,5.6588,5.6336,5.5911,5.5582,5.547,5.5045,5.4488,5.4757,5.5084,5.5105,5.5398,5.5731,5.5783,5.5719,5.5668,5.5646,5.5571,5.5508,5.5401,5.532,5.5196,5.5059,5.5021,5.4975,5.4953,5.4931,5.4931,5.4901,5.4901,5.4901,5.4901,5.4901,5.4901,5.4901,5.4901,5.4901,5.4901,5.4901,5.492,5.4996,5.5242,5.5792,6.1763,6.1588,6.1588,6.1588,6.1588,6.1588,6.1588,6.1588,6.1588,6.1588,6.1588,6.1588,6.1588,6.1588,6.1627,6.1685,6.1802,6.1744,6.1705,6.1997,6.2231,6.2562,6.2601,6.2737,6.2854,6.3261,6.3377,6.3047,6.3064,6.3393,6.3599,6.3137,6.262,6.2254,6.1926,6.1369,6.1152,6.1094,6.1094,6.1094,6.1094,6.1094,6.1094,6.1094,6.1094,6.1094,6.1075,6.1036,6.1002,6.1002,6.1036,6.1055,6.1075,6.1094,6.1094,6.1094,6.1094,6.1094,6.1094,6.1094,6.1094,6.1094,6.1094,6.0731,6.0344,6.0035,5.9614,5.8995,5.8569,5.8434,5.8236,5.7927,5.7632,5.7458,5.6975,5.6414,5.6302,5.6283,5.6495,5.6031,5.5629,5.5636,5.5962,5.559,5.5956,5.6236,5.6165,5.5847,5.5808,5.5747,5.5659,5.5543,5.5437,5.5345,5.5249,5.5182,5.5107,5.505,5.5021,5.5007,5.496,5.4901,5.4909,5.4923,5.4901,5.4901,5.4901,5.4901,5.4901,5.4901,5.4901,5.492,5.4977,5.5375,5.5943,6.2289,6.1588,6.1588,6.1588,6.1588,6.1588,6.159,6.1592,6.1595,6.1588,6.1586,6.1592,6.1595,6.1578,6.158,6.2023,6.2255,6.2086,6.1984,6.233,6.2172,6.1997,6.1822,6.1763,6.2542,6.3356,6.3748,6.385,6.4017,6.409,6.3616,6.31,6.2905,6.2143,6.1834,6.1481,6.1113,6.1113,6.1133,6.1133,6.1094,6.1094,6.1094,6.1094,6.1094,6.1094,6.1094,6.1094,6.1094,6.1094,6.1094,6.1094,6.1094,6.1094,6.1094,6.1094,6.1094,6.1094,6.1094,6.1094,6.1094,6.1094,6.1094,6.1041,6.077,6.0325,5.9957,5.9783,5.9188,5.886,5.8898,5.8569,5.8453,5.8376,5.8125,5.8004,5.7907,5.7579,5.7733,5.768,5.7312,5.7211,5.7333,5.668,5.6197,5.6463,5.657,5.6267,5.5993,5.5953,5.5837,5.5717,5.5594,5.5504,5.5432,5.5371,5.5281,5.5182,5.5174,5.5121,5.5087,5.5057,5.496,5.4968,5.4946,5.4916,5.4901,5.4901,5.4901,5.5053,5.5242,5.511,5.492,5.547,5.6266,6.1938,6.1588,6.1588,6.1588,6.1588,6.1588,6.1593,6.1582,6.1586,6.1584,6.158,6.1579,6.1586,6.159,6.1595,6.179,6.2138,6.2228,6.2186,6.2355,6.2194,6.2036,6.1841,6.2133,6.2796,6.3587,6.4393,6.5186,6.5266,6.5346,6.5052,6.4552,6.4088,6.3569,6.2365,6.2027,6.1887,6.1848,6.181,6.1582,6.1229,6.1094,6.1094,6.1094,6.1094,6.1094,6.1094,6.1094,6.1094,6.1094,6.1094,6.1094,6.1094,6.1094,6.1094,6.1094,6.1094,6.1094,6.1094,6.1094,6.1094,6.1094,6.1094,6.1079,6.1002,6.0789,6.0538,6.0557,6.0248,5.9996,5.9803,5.9575,5.9401,5.9266,5.9053,5.884,5.8898,5.9208,5.913,5.9072,5.8976,5.8797,5.8584,5.812,5.7598,5.7535,5.7338,5.6787,5.6474,5.6243,5.6081,5.5908,5.5793,5.5687,5.5607,5.5545,5.5462,5.5383,5.5421,5.539,5.532,5.5255,5.5327,5.522,5.5151,5.5088,5.4998,5.5015,5.5129,5.5375,5.5659,5.564,5.5678,5.6304,5.7118,6.1588,6.1588,6.1588,6.1588,6.159,6.1586,6.1582,6.1579,6.1593,6.1593,6.1584,6.159,6.1577,6.1582,6.1618,6.1773,6.2007,6.2406,6.232,6.2249,6.226,6.227,6.225,6.2659,6.34,6.441,6.4931,6.5711,6.631,6.6468,6.6185,6.6032,6.5082,6.4268,6.3448,6.2936,6.2723,6.2704,6.2433,6.2042,6.1577,6.1215,6.1137,6.1094,6.1094,6.1094,6.1094,6.1094,6.1094,6.1094,6.1094,6.1094,6.1094,6.1094,6.1094,6.1094,6.1094,6.1094,6.1094,6.1094,6.1094,6.1094,6.1094,6.1094,6.1094,6.1094,6.1094,6.1002,6.0963,6.0963,6.0963,6.046,6.0306,6.0016,5.973,5.942,5.9281,5.9745,6.0074,6.0035,5.9996,6.0093,5.9841,5.9532,5.9165,5.8802,5.8197,5.7419,5.6917,5.6549,5.6308,5.6112,5.6033,5.5933,5.587,5.5784,5.5679,5.5733,5.5765,5.5834,5.5921,5.5961,5.6027,5.583,5.5683,5.5937,5.6246,5.5805,5.5394,5.5754,5.6114,5.6398,5.6683,5.727,5.7763,6.1588,6.1588,6.1588,6.1588,6.1592,6.1576,6.1577,6.1592,6.16,6.161,6.1613,6.1591,6.1592,6.1591,6.1672,6.1985,6.2681,6.2029,6.2152,6.2267,6.219,6.2286,6.2535,6.3058,6.3748,6.5014,6.554,6.6027,6.6493,6.6691,6.6128,6.5393,6.5447,6.4127,6.3458,6.3492,6.3482,6.3328,6.2897,6.2467,6.2003,6.1558,6.1113,6.1094,6.1094,6.1094,6.1094,6.1094,6.1094,6.1094,6.1094,6.1094,6.1094,6.1094,6.1094,6.1094,6.1094,6.1094,6.1094,6.1094,6.1094,6.1094,6.1094,6.1094,6.1094,6.1094,6.1094,6.1094,6.1094,6.1094,6.1075,6.1017,6.0828,6.0692,6.0441,6.0402,6.0306,6.048,6.0789,6.0905,6.0867,6.075,6.0731,6.0325,6.0093,5.9745,5.8797,5.798,5.7187,5.6762,5.653,5.6347,5.6274,5.6209,5.617,5.6154,5.6285,5.6427,5.6528,5.664,5.6743,5.6796,5.6938,5.6953,5.6936,5.7211,5.7372,5.6986,5.6671,5.6467,5.6626,5.7194,5.7581,5.8017,5.8358,6.1588,6.1588,6.1588,6.1588,6.1592,6.1579,6.1577,6.16,6.1638,6.166,6.168,6.1677,6.1658,6.1679,6.1676,6.1814,6.2187,6.2498,6.2352,6.2273,6.2283,6.2568,6.2984,6.3577,6.4274,6.5326,6.5891,6.6261,6.6631,6.6709,6.6519,6.6114,6.5899,6.5248,6.464,6.4164,6.4145,6.3792,6.3386,6.3013,6.2235,6.1597,6.1094,6.1094,6.1094,6.1094,6.1094,6.1094,6.1094,6.1094,6.1094,6.1094,6.1094,6.1094,6.1094,6.1094,6.1094,6.1094,6.1094,6.1094,6.1094,6.1094,6.1094,6.1094,6.1094,6.1094,6.1094,6.1094,6.1094,6.1094,6.1094,6.1094,6.1036,6.1094,6.1094,6.1094,6.1094,6.1094,6.1094,6.1021,6.1041,6.1002,6.1017,6.0997,6.0847,6.0596,5.9551,5.856,5.7772,5.7288,5.7172,5.7134,5.7114,5.723,5.723,5.712,5.6996,5.7133,5.7304,5.7529,5.7708,5.7881,5.8012,5.8079,5.8058,5.8068,5.8101,5.8125,5.7979,5.7751,5.792,5.8339,5.8624,5.878,5.8867,6.1588,6.1588,6.1588,6.1588,6.1578,6.1579,6.1586,6.1613,6.166,6.1714,6.171,6.1711,6.1711,6.1702,6.1715,6.1712,6.2004,6.2439,6.2461,6.261,6.2879,6.3363,6.3787,6.4281,6.4997,6.5774,6.6281,6.6709,6.669,6.6709,6.661,6.653,6.6468,6.5856,6.5169,6.4996,6.4759,6.4527,6.4121,6.3869,6.3129,6.2119,6.1558,6.1461,6.1307,6.1094,6.1094,6.1094,6.1094,6.1094,6.1094,6.1094,6.1094,6.1094,6.1094,6.1094,6.1094,6.1094,6.1094,6.1094,6.1094,6.1094,6.1094,6.1094,6.1094,6.1094,6.1094,6.1094,6.1094,6.1094,6.1094,6.1094,6.1094,6.1094,6.1094,6.1094,6.1094,6.1094,6.1094,6.1075,6.1094,6.1094,6.1094,6.1055,6.0789,6.0576,5.9938,5.9068,5.841,5.8101,5.8178,5.8178,5.8202,5.8357,5.8511,5.8116,5.7817,5.7991,5.8215,5.8557,5.877,5.8918,5.9199,5.9432,5.9318,5.8948,5.9051,5.9382,5.9255,5.9009,5.9183,5.9345,5.9387,5.9467,5.9222,6.1588,6.1588,6.1588,6.1588,6.1578,6.1579,6.1585,6.161,6.168,6.1709,6.1708,6.1699,6.1699,6.1705,6.1701,6.1705,6.1887,6.2568,6.2887,6.2988,6.3523,6.4452,6.4967,6.5328,6.5577,6.6439,6.6709,6.6709,6.6709,6.6709,6.6696,6.6666,6.6523,6.6132,6.5127,6.502,6.5397,6.5876,6.5238,6.4817,6.4309,6.311,6.2486,6.2022,6.1635,6.1369,6.1113,6.1094,6.1094,6.1094,6.1094,6.1094,6.1094,6.1094,6.1094,6.1094,6.1094,6.1094,6.1094,6.1094,6.1094,6.1094,6.1094,6.1094,6.1094,6.1094,6.1094,6.1094,6.1094,6.1094,6.1094,6.1094,6.1094,6.1094,6.1094,6.1094,6.1094,6.1094,6.1094,6.1094,6.1094,6.1094,6.1094,6.1021,6.0673,6.0368,6.0039,5.9575,5.9072,5.9072,5.9242,5.9285,5.9343,5.9343,5.9362,5.8879,5.8662,5.886,5.9053,5.9343,5.9629,5.9803,6.0161,6.063,6.0389,5.9852,6.0281,6.0801,6.0338,5.9891,6.0067,6.0178,6.0201,6.0089,5.9801,6.1588,6.1588,6.1588,6.1588,6.158,6.1579,6.1592,6.1592,6.1679,6.1708,6.1705,6.1699,6.1699,6.1699,6.1699,6.1719,6.1859,6.2564,6.2986,6.3148,6.3945,6.4661,6.5287,6.5658,6.5942,6.6508,6.6709,6.6709,6.6709,6.6709,6.6663,6.6632,6.6572,6.6326,6.5989,6.5861,6.6056,6.6007,6.545,6.4952,6.4856,6.3869,6.3013,6.2525,6.2162,6.1737,6.1234,6.121,6.1176,6.1113,6.1094,6.1094,6.1094,6.1094,6.1094,6.1094,6.1094,6.1094,6.1094,6.1094,6.1094,6.1094,6.1094,6.1094,6.1094,6.1094,6.1094,6.1094,6.1094,6.1094,6.1094,6.1094,6.1094,6.1094,6.1094,6.1094,6.1094,6.1094,6.1094,6.1094,6.1094,6.1094,6.1094,6.1094,6.0828,6.0731,6.0518,6.0538,6.0209,6.0306,6.048,6.048,6.048,6.0383,6.019,5.9725,5.9687,5.9957,5.9938,5.9962,6.0248,6.048,6.0668,6.0891,6.0818,6.0765,6.0906,6.0988,6.0905,6.0747,6.0675,6.0564,6.0437,6.0377,6.0287,6.1586,6.1588,6.159,6.1577,6.1577,6.1595,6.1592,6.161,6.1679,6.1708,6.1705,6.1699,6.1699,6.1699,6.1699,6.1699,6.1816,6.295,6.3458,6.3619,6.4679,6.5468,6.5874,6.5924,6.625,6.6635,6.6719,6.6709,6.6709,6.6709,6.6674,6.6641,6.6588,6.6509,6.638,6.6333,6.6269,6.6147,6.5736,6.5514,6.5243,6.4624,6.3908,6.3458,6.2994,6.2472,6.1834,6.1505,6.1408,6.1249,6.1133,6.1113,6.1118,6.1113,6.1113,6.1094,6.1094,6.1094,6.1094,6.1094,6.1094,6.1094,6.1094,6.1094,6.1094,6.1094,6.1094,6.1094,6.1094,6.1094,6.1094,6.1094,6.1094,6.1094,6.1094,6.1094,6.1094,6.1094,6.1094,6.1094,6.1094,6.1094,6.1094,6.1094,6.1021,6.1041,6.1055,6.1094,6.1094,6.1094,6.1094,6.106,6.1041,6.0847,6.0712,6.0557,6.0634,6.1017,6.0828,6.0518,6.0673,6.0867,6.1002,6.1094,6.1002,6.0944,6.1021,6.1041,6.0983,6.093,6.0892,6.0762,6.0613,6.0583,6.0583,6.1582,6.159,6.1582,6.159,6.1584,6.1582,6.1594,6.1612,6.168,6.1708,6.1699,6.1699,6.1699,6.1699,6.1699,6.1699,6.1953,6.336,6.3907,6.4539,6.5436,6.6186,6.6543,6.6601,6.6607,6.6656,6.6718,6.6709,6.6709,6.6709,6.6707,6.6685,6.6686,6.6632,6.6585,6.6521,6.6446,6.628,6.6165,6.5992,6.5795,6.5407,6.4894,6.445,6.4005,6.3308,6.2685,6.2274,6.1945,6.1635,6.1287,6.1215,6.1176,6.1157,6.1157,6.1171,6.1229,6.1268,6.1307,6.1345,6.1157,6.1157,6.1094,6.1094,6.1094,6.1094,6.1094,6.1094,6.1094,6.1094,6.1094,6.1094,6.1094,6.1094,6.1094,6.1094,6.1094,6.1094,6.1094,6.1094,6.1094,6.1094,6.1094,6.1094,6.1094,6.1094,6.1094,6.1094,6.1094,6.1094,6.1094,6.1094,6.1079,6.1094,6.1002,6.0886,6.0925,6.1094,6.1094,6.0905,6.1075,6.1094,6.1094,6.1094,6.1094,6.1094,6.1094,6.1094,6.1094,6.1036,6.0997,6.0942,6.0812,6.0801,6.0721,6.158,6.1582,6.159,6.1591,6.159,6.1596,6.1609,6.168,6.1678,6.1708,6.1699,6.1699,6.1699,6.1699,6.1699,6.1699,6.2129,6.2813,6.3673,6.4578,6.56,6.6218,6.6601,6.677,6.6747,6.6727,6.672,6.6709,6.6709,6.6709,6.6709,6.6709,6.6709,6.6694,6.6683,6.6646,6.6545,6.6462,6.6355,6.6294,6.6254,6.5916,6.5528,6.5088,6.4856,6.4121,6.3497,6.282,6.2569,6.2825,6.2278,6.2042,6.2022,6.2022,6.2022,6.2042,6.2042,6.2042,6.2046,6.2027,6.1795,6.1311,6.1137,6.1094,6.1094,6.1094,6.1094,6.1094,6.1094,6.1094,6.1094,6.1094,6.1094,6.1094,6.1094,6.1094,6.1094,6.1094,6.1094,6.1094,6.1094,6.1094,6.1094,6.1094,6.1094,6.1094,6.1094,6.1094,6.1094,6.1094,6.1094,6.1094,6.1094,6.1094,6.1094,6.1021,6.1041,6.1094,6.1094,6.1094,6.1094,6.1094,6.1094,6.1094,6.1094,6.1094,6.1094,6.1094,6.1094,6.1094,6.107,6.1041,6.1022,6.0987,6.0953,6.1624,6.1639,6.164,6.1621,6.164,6.164,6.1677,6.169,6.1715,6.1708,6.1702,6.1699,6.1699,6.1699,6.1699,6.1738,6.1816,6.3086,6.3927,6.4415,6.541,6.6243,6.6711,6.6796,6.6781,6.6745,6.6732,6.6709,6.6709,6.6709,6.6709,6.6709,6.6709,6.6709,6.6704,6.6696,6.6652,6.6552,6.6454,6.6374,6.63,6.623,6.5857,6.5586,6.5431,6.4952,6.4295,6.3555,6.3637,6.3715,6.3052,6.2723,6.2569,6.239,6.2704,6.2743,6.2917,6.2897,6.2859,6.2506,6.2124,6.1679,6.1287,6.1113,6.1094,6.1094,6.1094,6.1094,6.1094,6.1094,6.1094,6.1094,6.1094,6.1094,6.1094,6.1094,6.1094,6.1094,6.1094,6.1094,6.1094,6.1094,6.1094,6.1094,6.1094,6.1094,6.1094,6.1094,6.1094,6.1094,6.1094,6.1094,6.1094,6.1094,6.1094,6.1094,6.1094,6.1094,6.1094,6.1094,6.1094,6.1094,6.1094,6.1094,6.1094,6.1094,6.1094,6.1094,6.1094,6.1094,6.1094,6.1084,6.1075,6.107,6.1065,6.164,6.1715,6.1713,6.1686,6.1701,6.1704,6.1703,6.1703,6.1708,6.1707,6.1703,6.1699,6.1699,6.1699,6.1699,6.1699,6.2012,6.295,6.3751,6.4298,6.5371,6.6236,6.6683,6.6797,6.6787,6.6784,6.6757,6.6709,6.6709,6.6709,6.6709,6.6709,6.6709,6.6709,6.6709,6.6709,6.6694,6.6649,6.6542,6.645,6.6345,6.6254,6.6195,6.6147,6.6031,6.5818,6.5262,6.4894,6.4682,6.4159,6.3734,6.3424,6.311,6.2685,6.3096,6.3521,6.3773,6.3792,6.3579,6.3149,6.2622,6.2119,6.1616,6.1229,6.1094,6.1094,6.1094,6.1094,6.1094,6.1094,6.1094,6.1094,6.1094,6.1094,6.1094,6.1094,6.1094,6.1094,6.1094,6.1094,6.1094,6.1094,6.1094,6.1094,6.1094,6.1094,6.1094,6.1094,6.1094,6.1094,6.1094,6.1094,6.1094,6.1094,6.1094,6.1094,6.1094,6.1094,6.1094,6.1094,6.1094,6.1094,6.1094,6.1094,6.1094,6.1094,6.1094,6.1094,6.1094,6.1094,6.1094,6.1094,6.1094,6.1094,6.1094,6.1694,6.1712,6.1703,6.1699,6.1699,6.1699,6.1699,6.1699,6.1707,6.1708,6.1699,6.1699,6.1699,6.1699,6.1699,6.1699,6.1934,6.2501,6.3164,6.3985,6.502,6.6055,6.6616,6.6797,6.6808,6.6787,6.6757,6.6612,6.6573,6.6612,6.667,6.667,6.669,6.6709,6.6709,6.6709,6.6707,6.6685,6.6629,6.654,6.6462,6.6336,6.6263,6.6225,6.6132,6.6127,6.5682,6.5301,6.5436,6.5417,6.4933,6.4624,6.4411,6.3753,6.3889,6.4488,6.4682,6.4682,6.4411,6.3806,6.311,6.2332,6.1732,6.1326,6.1094,6.1094,6.1094,6.1094,6.1094,6.1094,6.1094,6.1094,6.1094,6.1094,6.1094,6.1094,6.1094,6.1094,6.1094,6.1094,6.1094,6.1094,6.1094,6.1094,6.1094,6.1094,6.1094,6.1094,6.1094,6.1094,6.1094,6.1094,6.1094,6.1094,6.1094,6.1094,6.1094,6.1094,6.1094,6.1094,6.1094,6.1094,6.1094,6.1094,6.1094,6.1094,6.1094,6.1094,6.1094,6.1094,6.1094,6.1094,6.1094,6.1094,6.1094,6.1675,6.1702,6.1699,6.1699,6.1699,6.1699,6.1699,6.1699,6.1699,6.1699,6.1699,6.1699,6.1699,6.1699,6.1699,6.1699,6.1797,6.2168,6.3184,6.4064,6.4688,6.5762,6.6354,6.6738,6.6811,6.6753,6.6294,6.6086,6.6183,6.6105,6.6066,6.6222,6.6398,6.6709,6.6709,6.6709,6.6709,6.6707,6.6674,6.661,6.6533,6.6418,6.6294,6.6245,6.622,6.62,6.6089,6.5746,6.5876,6.5682,6.4972,6.5127,6.4836,6.4275,6.443,6.5127,6.5533,6.5513,6.5185,6.4488,6.3579,6.2801,6.1693,6.121,6.1635,6.1597,6.1133,6.1094,6.1094,6.1094,6.1094,6.1094,6.1094,6.1094,6.1094,6.1094,6.1094,6.1094,6.1094,6.1094,6.1094,6.1094,6.1094,6.1094,6.1094,6.1094,6.1094,6.1094,6.1094,6.1094,6.1094,6.1171,6.121,6.1133,6.1094,6.1094,6.1094,6.1094,6.1094,6.1094,6.1094,6.1094,6.1094,6.1094,6.1094,6.1094,6.1094,6.1094,6.1094,6.1094,6.1094,6.1094,6.1094,6.1094,6.1094,6.1658,6.1703,6.1699,6.1699,6.1699,6.1699,6.1699,6.1699,6.1699,6.1699,6.1699,6.1699,6.1699,6.1699,6.1699,6.1699,6.1836,6.2148,6.3164,6.3985,6.4667,6.5409,6.6036,6.6542,6.6597,6.6511,6.6184,6.5774,6.556,6.5735,6.5911,6.5696,6.6086,6.6709,6.6709,6.6709,6.6709,6.6709,6.6694,6.6658,6.6562,6.6435,6.6342,6.6296,6.625,6.619,6.6205,6.6205,6.6205,6.5818,6.518,6.5354,6.5417,6.5049,6.5243,6.5721,6.6011,6.6031,6.5799,6.4798,6.4121,6.3308,6.1988,6.1577,6.2022,6.1887,6.1403,6.1427,6.1427,6.1157,6.1157,6.1094,6.1094,6.1094,6.1094,6.1094,6.1094,6.1094,6.1094,6.1094,6.1094,6.1094,6.1094,6.1094,6.1094,6.1094,6.1094,6.1094,6.1094,6.1094,6.1094,6.1287,6.1461,6.1345,6.1171,6.1157,6.1176,6.1094,6.1094,6.1094,6.1094,6.1094,6.1094,6.1094,6.1094,6.1094,6.1094,6.1094,6.1094,6.1133,6.1094,6.1094,6.1094,6.1094,6.1094,6.1692,6.1699,6.1699,6.1699,6.1699,6.1699,6.1699,6.1699,6.1699,6.1699,6.1699,6.1699,6.1699,6.1699,6.1699,6.1699,6.1758,6.2051,6.2501,6.3243,6.3711,6.4628,6.5406,6.578,6.6165,6.6284,6.6258,6.6023,6.556,6.595,6.6066,6.5521,6.6261,6.669,6.6709,6.6709,6.6709,6.6709,6.669,6.6657,6.6591,6.648,6.6403,6.6318,6.6225,6.6205,6.6205,6.6205,6.6205,6.6069,6.5837,6.5818,6.5779,6.5687,6.5765,6.5915,6.6205,6.6205,6.5779,6.5107,6.4488,6.3637,6.2549,6.2042,6.2312,6.2293,6.2182,6.2631,6.238,6.1485,6.1311,6.1152,6.1094,6.1094,6.1094,6.1094,6.1094,6.1094,6.1094,6.1094,6.1094,6.1094,6.1094,6.1094,6.1094,6.1094,6.1094,6.1094,6.1094,6.1094,6.1152,6.1345,6.1616,6.1481,6.1268,6.1292,6.1292,6.1195,6.1094,6.1094,6.1094,6.1094,6.1094,6.1094,6.1094,6.1094,6.1094,6.1094,6.1234,6.1253,6.1133,6.1094,6.1171,6.1152,6.1195]}]]